[[{"header":{"parameterUnit":"m.s-1","parameterCategory":1,"la1":31.0,"la2":29.5877,"lo1":-88.7671,"lo2":-86.6584,"dy":0.0162,"dx":0.0185,"nx":115,"ny":88,"refTime":"2023-08-08T00:00:00:Z","depth":0,"parameterNumber":2,"parameterNumberName":"U-component_of_WINDS"},"data":[0.0,0.0,0.0,0.0,0.0,0.0,0.0,0.0,0.0,0.0,0.0,0.0,0.0,0.0,0.0,0.0,0.0,0.0,0.0,0.0,0.0,0.0,0.0,0.0,0.0,0.0,0.0,0.0,0.0,0.0,0.0,0.0,0.0,0.0,0.0,0.0,0.0,0.0,0.0,0.0,0.0,0.0,0.0,0.0,0.0,0.0,0.0,0.0,0.0,0.0,0.0,0.0,0.0,0.0,0.0,0.0,0.0,0.0,0.0,0.0,0.0,0.0,0.0,0.0,0.0,0.0,0.0,0.0,0.0,0.0,0.0,0.0,0.0,0.0,0.0,0.0,0.0,0.0,0.0,0.0,0.0,0.0,0.0,0.0,0.0,0.0,0.0,0.0,0.0,0.0,0.0,0.0,0.0,0.0,0.0,0.0,0.0,0.0,0.0,0.0,0.0,0.0,0.0,0.0,0.0,0.0,0.0,0.0,0.0,0.0,0.0,0.0,0.0,0.0,0.0,0.0,0.0,0.0,0.0,0.0,0.0,0.0,0.0,0.0,0.0,0.0,0.0,0.0,0.0,0.0,0.0,0.0,0.0,0.0,0.0,0.0,0.0,0.0,0.0,0.0,0.0,0.0,0.0,0.0,0.0,0.0,0.0,0.0,0.0,0.0,0.0,0.0,0.0,0.0,0.0,0.0,0.0,0.0,0.0,0.0,0.0,0.0,0.0,0.0,0.0,0.0,0.0,0.0,0.0,0.0,0.0,0.0,0.0,0.0,0.0,0.0,0.0,0.0,0.0,0.0,0.0,0.0,0.0,0.0,0.0,0.0,0.0,0.0,0.0,0.0,0.0,0.0,0.0,0.0,0.0,0.0,0.0,0.0,0.0,0.0,0.0,0.0,0.0,0.0,0.0,0.0,0.0,0.0,0.0,0.0,0.0,0.0,0.0,0.0,0.0,0.0,0.0,0.0,0.0,0.0,0.0,0.0,0.0,0.0,0.0,0.0,0.0,0.0,0.0,0.0,0.0,0.0,0.0,0.0,0.0,0.0,0.0,0.0,0.0,0.0,0.0,0.0,0.0,0.0,0.0,0.0,0.0,0.0,0.0,0.0,0.0,0.0,0.0,0.0,0.0,0.0,0.0,0.0,0.0,0.0,0.0,0.0,0.0,0.0,0.0,0.0,0.0,0.0,0.0,0.0,0.0,0.0,0.0,0.0,0.0,0.0,0.0,0.0,0.0,0.0,0.0,0.0,0.0,0.0,0.0,0.0,0.0,0.0,0.0,0.0,0.0,0.0,0.0,0.0,0.0,0.0,0.0,0.0,0.0,0.0,0.0,0.0,0.0,0.0,0.0,0.0,0.0,0.0,0.0,0.0,0.0,0.0,0.0,0.0,0.0,0.0,0.0,0.0,0.0,0.0,0.0,0.0,0.0,0.0,0.0,0.0,0.0,0.0,0.0,0.0,0.0,0.0,0.0,0.0,0.0,0.0,0.0,0.0,0.0,0.0,0.0,0.0,0.0,0.0,0.0,0.0,0.0,0.0,0.0,0.0,0.0,0.0,0.0,0.0,0.0,0.0,0.0,0.0,0.0,0.0,0.0,0.0,0.0,0.0,0.0,0.0,0.0,0.0,0.0,0.0,0.0,0.0,0.0,0.0,0.0,0.0,0.0,0.0,0.0,0.0,0.0,0.0,0.0,0.0,0.0,0.0,0.0,0.0,0.0,0.0,0.0,0.0,0.0,0.0,0.0,0.0,0.0,0.0,0.0,0.0,0.0,0.0,0.0,0.0,0.0,0.0,0.0,0.0,0.0,0.0,0.0,0.0,0.0,0.0,0.0,0.0,0.0,0.0,0.0,0.0,0.0,0.0,0.0,0.0,0.0,0.0,0.0,0.0,0.0,0.0,0.0,0.0,0.0,0.0,0.0,0.0,0.0,0.0,0.0,0.0,0.0,0.0,0.0,0.0,0.0,0.0,0.0,0.0,0.0,0.0,0.0,0.0,0.0,0.0,0.0,0.0,0.0,0.0,0.0,0.0,0.0,0.0,0.0,0.0,0.0,0.0,0.0,0.0,0.0,0.0,0.0,0.0,0.0,0.0,0.0,0.0,0.0,0.0,0.0,0.0,0.0,0.0,0.0,0.0,0.0,0.0,0.0,0.0,0.0,0.0,0.0,0.0,0.0,0.0,0.0,0.0,0.0,0.0,0.0,0.0,0.0,0.0,0.0,0.0,0.0,0.0,0.0,0.0,0.0,0.0,0.0,0.0,0.0,0.0,0.0,0.0,0.0,0.0,0.0,0.0,0.0,0.0,0.0,0.0,0.0,0.0,0.0,0.0,0.0,0.0,0.0,0.0,0.0,0.0,0.0,0.0,0.0,0.0,0.0,0.0,0.0,0.0,0.0,0.0,0.0,0.0,0.0,0.0,0.0,0.0,0.0,0.0,0.0,0.0,0.0,0.0,0.0,0.0,0.0,0.0,0.0,0.0,0.0,0.0,0.0,0.0,0.0,0.0,0.0,0.0,0.0,0.0,0.0,0.0,0.0,0.0,0.0,0.0,0.0,0.0,0.0,0.0,0.0,0.0,0.0,0.0,0.0,0.0,0.0,0.0,0.0,0.0,0.0,0.0,0.0,0.0,0.0,0.0,0.0,0.0,0.0,0.0,0.0,0.0,0.0,0.0,0.0,0.0,0.0,0.0,0.0,0.0,0.0,0.0,0.0,0.0,0.0,0.0,0.0,0.0,0.0,0.0,0.0,0.0,0.0,0.0,0.0,0.0,0.0,0.0,0.0,0.0,0.0,0.0,0.0,0.0,0.0,0.0,0.0,0.0,0.0,0.0,0.0,0.0,0.0,0.0,0.0,0.0,0.0,0.0,0.0,0.0,0.0,0.0,0.0,0.0,0.0,0.0,0.0,0.0,0.0,0.0,0.0,0.0,0.0,0.0,0.0,0.0,0.0,0.0,0.0,0.0,0.0,0.0,0.0,0.0,0.0,0.0,0.0,0.0,0.0,0.0,0.0,0.0,0.0,0.0,0.0,0.0,0.0,0.0,0.0,0.0,0.0,0.0,0.0,0.0,0.0,0.0,0.0,0.0,0.0,0.0,0.0,0.0,0.0,0.0,0.0,0.0,0.0,0.0,0.0,0.0,0.0,0.0,0.0,0.0,0.0,0.0,0.0,0.0,0.0,0.0,0.0,0.0,0.0,0.0,0.0,0.0,0.0,0.0,0.0,0.0,0.0,0.0,0.0,0.0,0.0,0.0,0.0,0.0,0.0,0.0,0.0,0.0,0.0,0.0,0.0,0.0,0.0,0.0,0.0,0.0,0.0,0.0,0.0,0.0,0.0,0.0,0.0,0.0,0.0,0.0,0.0,0.0,0.0,0.0,0.0,0.0,0.0,0.0,0.0,0.0,0.0,0.0,0.0,0.0,0.0,0.0,0.0,0.0,0.0,0.0,0.0,0.0,0.0,0.0,0.0,0.0,0.0,0.0,0.0,0.0,0.0,0.0,0.0,0.0,0.0,0.0,0.0,0.0,0.0,0.0,0.0,0.0,0.0,0.0,0.0,0.0,0.0,0.0,0.0,0.0,0.0,0.0,0.0,0.0,0.0,0.0,0.0,0.0,0.0,0.0,0.0,0.0,0.0,0.0,0.0,0.0,0.0,0.0,0.0,0.0,0.0,0.0,0.0,0.0,0.0,0.0,0.0,0.0,0.0,0.0,0.0,0.0,0.0,0.0,0.0,0.0,0.0,0.0,0.0,0.0,0.0,0.0,0.0,0.0,0.0,0.0,0.0,0.0,0.0,0.0,0.0,0.0,0.0,0.0,0.0,0.0,0.0,0.0,0.0,0.0,0.0,0.0,0.0,0.0,0.0,0.0,0.0,0.0,0.0,0.0,0.0,0.0,0.0,0.0,0.0,0.0,0.0,0.0,0.0,0.0,0.0,0.0,0.0,0.0,0.0,0.0,0.0,0.0,0.0,0.0,0.0,0.0,0.0,0.0,0.0,0.0,0.0,0.0,0.0,0.0,0.0,0.0,0.0,0.0,0.0,0.0,0.0,0.0,0.0,0.0,0.0,0.0,0.0,0.0,0.0,0.0,0.0,0.0,0.0,0.0,0.0,0.0,0.0,0.0,0.0,0.0,0.0,0.0,0.0,0.0,0.0,0.0,0.0,0.0,0.0,0.0,0.0,0.0,0.0,0.0,0.0,0.0,0.0,0.0,0.0,0.0,0.0,0.0,0.0,0.0,0.0,0.0,0.0,0.0,-2.9393,0.0,0.0,0.0,0.0,0.0,0.0,0.0,0.0,0.0,0.0,0.0,0.0,0.0,0.0,0.0,0.0,0.0,0.0,0.0,0.0,0.0,0.0,0.0,0.0,0.0,0.0,0.0,0.0,0.0,0.0,0.0,0.0,0.0,0.0,0.0,0.0,0.0,0.0,0.0,0.0,0.0,0.0,0.0,0.0,0.0,0.0,0.0,0.0,0.0,0.0,0.0,0.0,0.0,0.0,0.0,0.0,0.0,0.0,0.0,0.0,0.0,0.0,0.0,0.0,0.0,0.0,0.0,0.0,0.0,0.0,0.0,0.0,0.0,0.0,0.0,0.0,0.0,0.0,0.0,0.0,0.0,0.0,0.0,0.0,0.0,0.0,0.0,0.0,0.0,0.0,0.0,0.0,0.0,0.0,0.0,0.0,0.0,0.0,0.0,0.0,0.0,0.0,0.0,0.0,0.0,0.0,0.0,0.0,0.0,0.0,-2.9943,-3.0125,-2.9943,-2.9943,-3.0125,0.0,0.0,0.0,0.0,0.0,0.0,0.0,0.0,0.0,0.0,0.0,0.0,0.0,0.0,0.0,0.0,0.0,0.0,0.0,0.0,0.0,0.0,0.0,0.0,0.0,0.0,0.0,0.0,0.0,0.0,0.0,0.0,0.0,0.0,0.0,0.0,0.0,0.0,0.0,0.0,0.0,0.0,0.0,0.0,0.0,0.0,0.0,0.0,0.0,0.0,0.0,0.0,0.0,0.0,0.0,0.0,0.0,0.0,0.0,0.0,0.0,0.0,0.0,0.0,0.0,0.0,0.0,0.0,0.0,0.0,0.0,0.0,0.0,0.0,0.0,0.0,0.0,0.0,0.0,0.0,0.0,0.0,0.0,0.0,0.0,0.0,0.0,0.0,0.0,0.0,0.0,0.0,0.0,0.0,0.0,0.0,0.0,0.0,0.0,0.0,0.0,0.0,0.0,0.0,0.0,0.0,0.0,0.0,0.0,0.0,0.0,0.0,-3.0746,-3.0656,-3.0758,0.0,0.0,0.0,0.0,0.0,0.0,0.0,0.0,0.0,0.0,0.0,0.0,0.0,0.0,0.0,0.0,0.0,0.0,0.0,0.0,0.0,0.0,0.0,0.0,0.0,0.0,0.0,0.0,0.0,0.0,0.0,0.0,0.0,0.0,0.0,0.0,0.0,0.0,0.0,0.0,0.0,0.0,0.0,0.0,0.0,0.0,0.0,0.0,0.0,0.0,0.0,0.0,0.0,0.0,0.0,0.0,0.0,0.0,0.0,0.0,0.0,0.0,0.0,0.0,0.0,0.0,0.0,0.0,0.0,0.0,0.0,0.0,0.0,0.0,0.0,0.0,0.0,0.0,0.0,0.0,0.0,0.0,0.0,0.0,0.0,0.0,0.0,0.0,0.0,0.0,0.0,0.0,0.0,0.0,0.0,0.0,0.0,0.0,0.0,0.0,0.0,0.0,0.0,0.0,0.0,0.0,0.0,0.0,0.0,0.0,-3.1625,-3.1901,-3.1813,0.0,-3.1306,0.0,0.0,0.0,0.0,0.0,0.0,0.0,0.0,0.0,0.0,0.0,0.0,0.0,0.0,0.0,0.0,0.0,0.0,0.0,0.0,0.0,0.0,0.0,0.0,0.0,0.0,0.0,0.0,0.0,0.0,0.0,0.0,0.0,0.0,0.0,0.0,0.0,0.0,0.0,0.0,0.0,0.0,0.0,0.0,0.0,0.0,0.0,0.0,0.0,0.0,0.0,0.0,0.0,0.0,0.0,0.0,0.0,0.0,0.0,0.0,0.0,0.0,0.0,0.0,0.0,0.0,0.0,0.0,0.0,0.0,0.0,0.0,0.0,0.0,0.0,0.0,0.0,0.0,0.0,0.0,0.0,0.0,0.0,0.0,0.0,0.0,0.0,0.0,0.0,0.0,0.0,0.0,0.0,0.0,0.0,0.0,0.0,0.0,0.0,0.0,0.0,0.0,0.0,0.0,0.0,0.0,0.0,0.0,0.0,0.0,-3.2513,-3.3031,-3.3018,-3.2772,0.0,0.0,0.0,0.0,0.0,0.0,0.0,0.0,0.0,0.0,0.0,0.0,0.0,0.0,0.0,0.0,0.0,0.0,0.0,0.0,0.0,0.0,0.0,0.0,0.0,0.0,0.0,0.0,0.0,0.0,0.0,0.0,0.0,0.0,0.0,0.0,0.0,0.0,0.0,0.0,0.0,0.0,0.0,0.0,0.0,0.0,0.0,0.0,0.0,0.0,0.0,0.0,0.0,0.0,0.0,0.0,0.0,0.0,0.0,0.0,0.0,0.0,0.0,0.0,0.0,0.0,0.0,0.0,0.0,0.0,0.0,0.0,0.0,0.0,0.0,0.0,0.0,0.0,0.0,0.0,0.0,0.0,0.0,0.0,0.0,0.0,0.0,0.0,0.0,0.0,0.0,0.0,0.0,0.0,0.0,0.0,0.0,0.0,0.0,0.0,0.0,0.0,0.0,0.0,0.0,0.0,0.0,0.0,0.0,0.0,-3.2797,-3.3398,-3.3966,-3.3966,-3.3725,-3.3215,0.0,0.0,0.0,0.0,0.0,0.0,0.0,0.0,0.0,0.0,0.0,0.0,0.0,0.0,0.0,0.0,0.0,0.0,0.0,0.0,0.0,0.0,0.0,0.0,0.0,0.0,0.0,0.0,0.0,0.0,0.0,0.0,0.0,0.0,0.0,0.0,0.0,0.0,0.0,0.0,0.0,0.0,0.0,0.0,0.0,0.0,0.0,0.0,0.0,0.0,0.0,0.0,0.0,0.0,0.0,0.0,0.0,0.0,0.0,0.0,0.0,0.0,0.0,0.0,0.0,0.0,0.0,0.0,0.0,0.0,0.0,0.0,0.0,0.0,0.0,0.0,0.0,0.0,0.0,0.0,0.0,0.0,0.0,0.0,0.0,0.0,0.0,0.0,0.0,0.0,0.0,0.0,0.0,0.0,0.0,0.0,0.0,0.0,0.0,0.0,0.0,0.0,0.0,0.0,0.0,0.0,0.0,0.0,-3.3068,-3.3666,-3.423,-3.462,-3.462,-3.4551,0.0,0.0,0.0,0.0,0.0,0.0,0.0,0.0,0.0,0.0,0.0,0.0,0.0,0.0,0.0,0.0,0.0,0.0,0.0,0.0,0.0,0.0,0.0,0.0,0.0,0.0,0.0,0.0,0.0,0.0,0.0,0.0,0.0,0.0,0.0,0.0,0.0,0.0,0.0,0.0,0.0,0.0,0.0,0.0,0.0,0.0,0.0,0.0,0.0,0.0,0.0,0.0,0.0,0.0,0.0,0.0,0.0,0.0,0.0,0.0,0.0,0.0,0.0,0.0,0.0,0.0,0.0,0.0,0.0,0.0,0.0,0.0,0.0,0.0,0.0,0.0,0.0,0.0,0.0,0.0,0.0,0.0,0.0,0.0,0.0,0.0,0.0,0.0,0.0,0.0,0.0,0.0,0.0,0.0,0.0,0.0,0.0,0.0,0.0,0.0,0.0,0.0,0.0,0.0,0.0,0.0,0.0,0.0,0.0,-3.3471,-3.4397,-3.4908,-3.499,-3.5059,-3.5059,0.0,0.0,0.0,0.0,0.0,0.0,0.0,0.0,0.0,0.0,0.0,0.0,0.0,0.0,0.0,0.0,0.0,0.0,0.0,0.0,0.0,0.0,0.0,0.0,0.0,0.0,0.0,0.0,0.0,0.0,0.0,0.0,0.0,0.0,0.0,0.0,0.0,0.0,0.0,0.0,0.0,0.0,0.0,0.0,0.0,0.0,0.0,0.0,0.0,0.0,0.0,0.0,0.0,0.0,0.0,0.0,0.0,0.0,0.0,0.0,0.0,0.0,0.0,0.0,0.0,0.0,0.0,0.0,0.0,0.0,0.0,0.0,0.0,0.0,0.0,0.0,0.0,0.0,0.0,0.0,0.0,0.0,0.0,0.0,0.0,0.0,0.0,0.0,0.0,0.0,0.0,0.0,0.0,0.0,0.0,0.0,0.0,0.0,0.0,0.0,0.0,0.0,0.0,0.0,0.0,0.0,0.0,0.0,0.0,-3.4134,0.0,-3.5399,-3.5318,-3.5399,-3.5399,0.0,0.0,0.0,0.0,0.0,0.0,0.0,0.0,0.0,0.0,0.0,0.0,0.0,0.0,0.0,0.0,0.0,0.0,0.0,0.0,0.0,0.0,0.0,0.0,0.0,0.0,0.0,0.0,0.0,0.0,0.0,0.0,0.0,0.0,0.0,0.0,0.0,0.0,0.0,0.0,0.0,0.0,0.0,0.0,0.0,0.0,0.0,0.0,0.0,0.0,0.0,0.0,0.0,0.0,0.0,0.0,0.0,0.0,0.0,0.0,0.0,0.0,0.0,0.0,0.0,0.0,0.0,0.0,0.0,0.0,0.0,0.0,0.0,0.0,0.0,0.0,0.0,0.0,0.0,0.0,0.0,0.0,0.0,0.0,0.0,0.0,0.0,0.0,0.0,0.0,0.0,0.0,0.0,0.0,0.0,0.0,0.0,0.0,0.0,0.0,0.0,0.0,0.0,0.0,0.0,0.0,0.0,0.0,-3.3992,-3.5072,-3.5318,-3.548,-3.5723,-3.571,-3.5723,0.0,0.0,0.0,0.0,0.0,0.0,0.0,0.0,0.0,0.0,0.0,0.0,0.0,0.0,0.0,0.0,0.0,0.0,0.0,0.0,0.0,0.0,0.0,0.0,0.0,0.0,0.0,0.0,0.0,0.0,0.0,0.0,0.0,0.0,0.0,0.0,0.0,0.0,0.0,0.0,0.0,0.0,0.0,0.0,0.0,0.0,0.0,0.0,0.0,0.0,0.0,0.0,0.0,0.0,0.0,0.0,0.0,0.0,0.0,0.0,0.0,0.0,0.0,0.0,0.0,0.0,0.0,0.0,0.0,0.0,0.0,0.0,0.0,0.0,0.0,0.0,0.0,0.0,0.0,0.0,0.0,0.0,0.0,0.0,0.0,0.0,0.0,0.0,0.0,0.0,0.0,0.0,0.0,0.0,0.0,0.0,0.0,0.0,0.0,0.0,0.0,0.0,0.0,0.0,0.0,0.0,0.0,0.0,0.0,-3.5318,-3.548,-3.5629,-3.571,-3.571,-3.571,0.0,0.0,0.0,0.0,0.0,0.0,0.0,0.0,0.0,0.0,0.0,0.0,0.0,0.0,0.0,0.0,0.0,0.0,0.0,0.0,0.0,0.0,0.0,0.0,0.0,0.0,0.0,0.0,0.0,0.0,0.0,0.0,0.0,0.0,0.0,0.0,0.0,0.0,0.0,0.0,0.0,0.0,0.0,0.0,0.0,0.0,0.0,0.0,0.0,0.0,0.0,0.0,0.0,0.0,0.0,0.0,0.0,0.0,0.0,0.0,0.0,0.0,0.0,0.0,0.0,0.0,0.0,0.0,0.0,0.0,0.0,0.0,0.0,0.0,0.0,0.0,0.0,0.0,0.0,0.0,0.0,0.0,0.0,0.0,0.0,0.0,0.0,0.0,0.0,0.0,0.0,0.0,0.0,0.0,0.0,0.0,0.0,0.0,0.0,0.0,0.0,0.0,0.0,0.0,0.0,0.0,0.0,0.0,0.0,-3.548,-3.5629,-3.571,-3.571,-3.571,-3.571,-3.571,0.0,0.0,0.0,0.0,0.0,0.0,0.0,0.0,0.0,0.0,0.0,0.0,0.0,0.0,0.0,0.0,0.0,0.0,0.0,0.0,0.0,0.0,0.0,0.0,0.0,0.0,0.0,0.0,0.0,0.0,0.0,0.0,0.0,0.0,0.0,0.0,0.0,0.0,0.0,0.0,0.0,0.0,0.0,0.0,0.0,0.0,0.0,0.0,0.0,0.0,0.0,0.0,0.0,0.0,0.0,0.0,0.0,0.0,0.0,0.0,0.0,0.0,0.0,0.0,0.0,0.0,0.0,0.0,0.0,0.0,0.0,0.0,0.0,0.0,0.0,0.0,0.0,0.0,0.0,0.0,0.0,0.0,0.0,0.0,0.0,0.0,0.0,0.0,0.0,0.0,0.0,0.0,0.0,0.0,0.0,0.0,0.0,0.0,0.0,0.0,0.0,0.0,0.0,0.0,0.0,0.0,0.0,0.0,-3.571,-3.571,-3.571,-3.571,-3.571,-3.571,0.0,0.0,0.0,0.0,0.0,0.0,0.0,0.0,0.0,0.0,0.0,0.0,0.0,0.0,0.0,0.0,0.0,0.0,0.0,0.0,0.0,0.0,0.0,0.0,0.0,0.0,0.0,0.0,0.0,0.0,0.0,0.0,0.0,0.0,0.0,0.0,0.0,0.0,0.0,0.0,0.0,0.0,0.0,0.0,0.0,0.0,0.0,0.0,0.0,0.0,0.0,0.0,0.0,0.0,0.0,0.0,0.0,0.0,0.0,0.0,0.0,0.0,0.0,0.0,0.0,0.0,0.0,0.0,0.0,0.0,0.0,0.0,0.0,0.0,0.0,0.0,0.0,0.0,0.0,0.0,0.0,0.0,0.0,0.0,0.0,0.0,0.0,0.0,0.0,0.0,0.0,0.0,0.0,0.0,0.0,0.0,0.0,0.0,0.0,0.0,0.0,0.0,0.0,0.0,0.0,0.0,0.0,0.0,0.0,-3.5723,-3.571,-3.571,-3.571,-3.571,-3.571,0.0,0.0,0.0,0.0,0.0,0.0,0.0,0.0,0.0,0.0,0.0,0.0,0.0,0.0,0.0,0.0,0.0,0.0,0.0,0.0,0.0,0.0,0.0,0.0,0.0,0.0,0.0,0.0,0.0,0.0,0.0,0.0,0.0,0.0,0.0,0.0,0.0,0.0,0.0,0.0,0.0,0.0,0.0,0.0,0.0,0.0,0.0,0.0,0.0,0.0,0.0,0.0,0.0,0.0,0.0,0.0,0.0,0.0,0.0,0.0,0.0,0.0,0.0,0.0,0.0,0.0,0.0,0.0,0.0,0.0,0.0,0.0,0.0,0.0,0.0,0.0,0.0,0.0,0.0,0.0,0.0,0.0,0.0,0.0,0.0,0.0,0.0,0.0,0.0,0.0,0.0,0.0,0.0,0.0,0.0,0.0,0.0,0.0,0.0,0.0,0.0,0.0,0.0,0.0,0.0,0.0,0.0,0.0,-3.548,-3.571,-3.571,-3.571,-3.571,-3.571,-3.571,0.0,0.0,0.0,0.0,0.0,0.0,0.0,0.0,0.0,0.0,0.0,0.0,0.0,0.0,0.0,0.0,0.0,0.0,0.0,0.0,0.0,0.0,0.0,0.0,0.0,0.0,0.0,0.0,0.0,0.0,0.0,0.0,0.0,0.0,0.0,0.0,0.0,0.0,0.0,0.0,0.0,0.0,0.0,0.0,0.0,0.0,0.0,0.0,0.0,0.0,0.0,0.0,0.0,0.0,0.0,0.0,0.0,0.0,0.0,0.0,0.0,0.0,0.0,0.0,0.0,0.0,0.0,0.0,0.0,0.0,0.0,0.0,0.0,0.0,0.0,0.0,0.0,0.0,0.0,0.0,0.0,0.0,0.0,0.0,0.0,0.0,0.0,0.0,0.0,0.0,0.0,0.0,0.0,0.0,0.0,0.0,0.0,0.0,0.0,0.0,0.0,0.0,0.0,0.0,0.0,0.0,0.0,0.0,-3.5562,-3.5723,-3.571,-3.571,-3.571,-3.571,-3.571,0.0,0.0,0.0,0.0,0.0,0.0,0.0,0.0,0.0,0.0,0.0,0.0,0.0,0.0,0.0,0.0,0.0,0.0,0.0,0.0,0.0,0.0,0.0,0.0,0.0,0.0,0.0,0.0,0.0,0.0,0.0,0.0,0.0,0.0,0.0,0.0,0.0,0.0,0.0,0.0,0.0,0.0,0.0,0.0,0.0,0.0,0.0,0.0,0.0,0.0,0.0,0.0,0.0,0.0,0.0,0.0,0.0,0.0,0.0,0.0,0.0,0.0,0.0,0.0,0.0,0.0,0.0,0.0,0.0,0.0,0.0,0.0,0.0,0.0,0.0,0.0,0.0,0.0,0.0,0.0,0.0,0.0,0.0,0.0,0.0,0.0,0.0,0.0,0.0,0.0,0.0,0.0,0.0,0.0,0.0,0.0,0.0,0.0,0.0,0.0,0.0,0.0,0.0,0.0,0.0,0.0,0.0,0.0,-3.5642,-3.5723,-3.571,-3.571,-3.571,-3.571,-3.571,0.0,0.0,0.0,0.0,0.0,0.0,0.0,0.0,0.0,0.0,0.0,0.0,0.0,0.0,0.0,0.0,0.0,0.0,0.0,0.0,0.0,0.0,0.0,0.0,0.0,0.0,0.0,0.0,0.0,0.0,0.0,0.0,0.0,0.0,0.0,0.0,0.0,0.0,0.0,0.0,0.0,0.0,0.0,0.0,0.0,0.0,0.0,0.0,-3.2376,0.0,0.0,0.0,0.0,0.0,0.0,0.0,0.0,0.0,0.0,0.0,0.0,0.0,0.0,0.0,0.0,0.0,0.0,0.0,0.0,0.0,0.0,0.0,0.0,0.0,0.0,0.0,0.0,0.0,0.0,0.0,0.0,0.0,0.0,0.0,0.0,0.0,0.0,0.0,0.0,0.0,0.0,0.0,0.0,0.0,0.0,0.0,0.0,0.0,0.0,0.0,0.0,0.0,0.0,0.0,0.0,0.0,0.0,0.0,-3.571,-3.571,-3.571,-3.571,-3.571,-3.571,-3.5845,0.0,0.0,0.0,0.0,0.0,0.0,0.0,0.0,0.0,0.0,0.0,0.0,0.0,0.0,0.0,0.0,0.0,0.0,0.0,0.0,0.0,0.0,0.0,0.0,0.0,0.0,0.0,0.0,0.0,0.0,0.0,0.0,0.0,0.0,0.0,0.0,0.0,0.0,0.0,0.0,0.0,0.0,0.0,0.0,0.0,0.0,0.0,0.0,0.0,0.0,0.0,0.0,0.0,0.0,0.0,0.0,0.0,0.0,0.0,0.0,0.0,0.0,0.0,0.0,0.0,0.0,0.0,0.0,0.0,0.0,0.0,0.0,0.0,0.0,0.0,0.0,0.0,0.0,0.0,0.0,0.0,0.0,0.0,0.0,0.0,0.0,0.0,0.0,0.0,0.0,0.0,0.0,0.0,0.0,0.0,0.0,0.0,0.0,0.0,0.0,0.0,0.0,0.0,0.0,0.0,0.0,0.0,-3.571,-3.571,-3.571,-3.571,-3.571,-3.571,-3.5805,-3.613,-3.6631,0.0,0.0,0.0,0.0,0.0,0.0,0.0,0.0,0.0,0.0,0.0,0.0,0.0,0.0,0.0,0.0,0.0,0.0,0.0,0.0,0.0,0.0,0.0,0.0,0.0,0.0,0.0,0.0,0.0,0.0,0.0,0.0,0.0,0.0,0.0,0.0,0.0,0.0,-3.0589,-3.0871,0.0,0.0,0.0,0.0,0.0,0.0,0.0,0.0,-3.3205,0.0,0.0,0.0,0.0,0.0,0.0,0.0,0.0,0.0,0.0,0.0,0.0,0.0,0.0,0.0,0.0,0.0,0.0,0.0,0.0,0.0,0.0,0.0,0.0,0.0,0.0,0.0,0.0,0.0,0.0,0.0,0.0,0.0,0.0,0.0,0.0,0.0,0.0,0.0,0.0,0.0,0.0,0.0,0.0,0.0,0.0,0.0,0.0,0.0,0.0,0.0,0.0,0.0,0.0,0.0,0.0,-3.571,-3.571,-3.571,-3.571,-3.571,-3.571,-3.5723,-3.6198,-3.6658,-3.7084,0.0,0.0,0.0,0.0,0.0,0.0,0.0,0.0,0.0,0.0,0.0,0.0,0.0,0.0,0.0,0.0,0.0,0.0,0.0,0.0,0.0,0.0,0.0,0.0,0.0,0.0,0.0,0.0,0.0,0.0,0.0,0.0,0.0,0.0,0.0,0.0,0.0,0.0,0.0,-3.1139,-3.1229,0.0,0.0,0.0,0.0,0.0,0.0,0.0,0.0,-3.4183,0.0,0.0,0.0,0.0,0.0,0.0,0.0,0.0,0.0,0.0,0.0,0.0,0.0,0.0,0.0,0.0,0.0,0.0,0.0,0.0,0.0,0.0,0.0,0.0,0.0,0.0,0.0,0.0,0.0,0.0,0.0,0.0,0.0,0.0,0.0,0.0,0.0,0.0,0.0,0.0,0.0,0.0,0.0,0.0,0.0,0.0,0.0,0.0,0.0,0.0,0.0,0.0,0.0,0.0,0.0,-3.5562,-3.5642,-3.571,-3.5723,-3.6022,-3.6171,-3.6198,-3.6685,-3.7111,0.0,0.0,0.0,0.0,0.0,0.0,0.0,0.0,0.0,0.0,0.0,0.0,0.0,0.0,0.0,0.0,0.0,0.0,0.0,0.0,0.0,0.0,0.0,0.0,0.0,0.0,0.0,0.0,0.0,0.0,0.0,0.0,0.0,0.0,0.0,0.0,0.0,0.0,0.0,0.0,-3.1318,-3.1484,-3.1484,0.0,0.0,0.0,0.0,0.0,0.0,-3.3607,-3.4237,0.0,0.0,0.0,0.0,0.0,0.0,0.0,0.0,0.0,0.0,0.0,0.0,0.0,0.0,0.0,0.0,0.0,0.0,0.0,0.0,0.0,0.0,0.0,0.0,0.0,0.0,0.0,0.0,0.0,0.0,0.0,0.0,0.0,0.0,0.0,0.0,0.0,0.0,0.0,0.0,0.0,0.0,0.0,0.0,0.0,0.0,0.0,0.0,0.0,0.0,0.0,0.0,0.0,0.0,0.0,-3.5331,-3.5588,-3.5737,-3.5751,-3.6304,-3.6615,-3.6628,-3.7053,-3.7317,0.0,0.0,0.0,0.0,0.0,0.0,0.0,0.0,0.0,0.0,0.0,0.0,0.0,0.0,0.0,0.0,0.0,0.0,0.0,0.0,0.0,0.0,0.0,0.0,0.0,0.0,0.0,0.0,0.0,0.0,0.0,0.0,0.0,0.0,0.0,0.0,0.0,0.0,0.0,0.0,0.0,-3.1661,-3.1661,-3.1661,0.0,0.0,0.0,0.0,-3.2785,-3.3596,0.0,0.0,0.0,0.0,0.0,0.0,0.0,0.0,0.0,0.0,0.0,0.0,0.0,0.0,0.0,0.0,0.0,0.0,0.0,0.0,0.0,0.0,0.0,0.0,0.0,0.0,0.0,0.0,0.0,0.0,0.0,0.0,0.0,0.0,0.0,0.0,0.0,0.0,0.0,0.0,0.0,0.0,0.0,0.0,0.0,0.0,0.0,0.0,0.0,0.0,0.0,0.0,0.0,0.0,0.0,0.0,-3.5099,-3.5592,-3.5845,-3.5871,-3.6503,-3.6796,-3.681,-3.7122,-3.7098,0.0,0.0,0.0,0.0,0.0,0.0,0.0,0.0,0.0,0.0,0.0,0.0,0.0,0.0,0.0,0.0,0.0,0.0,0.0,0.0,0.0,0.0,0.0,0.0,0.0,0.0,0.0,0.0,0.0,0.0,0.0,0.0,0.0,0.0,0.0,0.0,0.0,0.0,0.0,0.0,0.0,-3.1661,-3.1661,-3.1661,-3.1749,0.0,0.0,-3.2296,-3.3027,-3.3646,0.0,0.0,0.0,0.0,0.0,0.0,0.0,0.0,0.0,0.0,0.0,0.0,0.0,0.0,0.0,0.0,0.0,0.0,0.0,0.0,0.0,0.0,0.0,0.0,0.0,0.0,0.0,0.0,0.0,0.0,0.0,0.0,0.0,0.0,0.0,0.0,0.0,0.0,0.0,0.0,0.0,0.0,0.0,0.0,0.0,0.0,0.0,0.0,0.0,0.0,0.0,0.0,0.0,0.0,0.0,-3.502,-3.5206,-3.5725,-3.6029,-3.6042,-3.6582,-3.6783,-3.6695,-3.6988,-3.6908,0.0,0.0,0.0,0.0,0.0,0.0,0.0,0.0,0.0,0.0,0.0,0.0,0.0,0.0,0.0,0.0,0.0,0.0,0.0,0.0,0.0,0.0,0.0,0.0,0.0,0.0,0.0,0.0,0.0,0.0,0.0,0.0,0.0,0.0,0.0,0.0,0.0,0.0,0.0,0.0,0.0,0.0,-3.1661,-3.1661,0.0,0.0,0.0,-3.265,-3.3162,0.0,0.0,0.0,0.0,0.0,0.0,0.0,0.0,0.0,0.0,0.0,0.0,0.0,0.0,0.0,0.0,0.0,0.0,0.0,0.0,0.0,0.0,0.0,0.0,0.0,0.0,0.0,0.0,0.0,0.0,0.0,0.0,0.0,0.0,0.0,0.0,0.0,0.0,0.0,0.0,0.0,0.0,0.0,0.0,0.0,0.0,0.0,0.0,0.0,0.0,0.0,0.0,0.0,0.0,0.0,0.0,0.0,-3.5137,-3.5647,-3.5915,-3.5941,-3.6444,-3.6625,-3.6468,-3.6599,0.0,0.0,0.0,0.0,0.0,0.0,0.0,0.0,0.0,0.0,0.0,0.0,0.0,0.0,0.0,0.0,0.0,0.0,0.0,0.0,0.0,0.0,0.0,0.0,0.0,0.0,0.0,-2.5691,0.0,0.0,0.0,0.0,0.0,0.0,0.0,0.0,0.0,0.0,0.0,0.0,0.0,0.0,-3.1661,-3.1661,-3.1781,-3.1966,0.0,0.0,-3.3083,-3.3399,-3.4083,-3.4564,0.0,0.0,0.0,0.0,0.0,0.0,0.0,0.0,0.0,0.0,0.0,0.0,0.0,0.0,0.0,0.0,0.0,0.0,0.0,0.0,0.0,0.0,0.0,0.0,0.0,0.0,0.0,0.0,0.0,0.0,0.0,0.0,0.0,0.0,0.0,0.0,0.0,0.0,0.0,0.0,0.0,0.0,0.0,0.0,0.0,0.0,0.0,0.0,0.0,0.0,0.0,0.0,0.0,0.0,-3.4247,-3.461,-3.5215,-3.5491,-3.5596,-3.6125,-3.6295,-3.5998,-3.5846,-3.5488,0.0,0.0,0.0,0.0,0.0,0.0,0.0,0.0,0.0,0.0,0.0,0.0,0.0,0.0,0.0,0.0,0.0,0.0,0.0,0.0,0.0,0.0,0.0,0.0,0.0,0.0,0.0,0.0,0.0,0.0,0.0,0.0,0.0,0.0,0.0,0.0,0.0,0.0,0.0,0.0,0.0,-3.1673,-3.1661,-3.2106,-3.2442,0.0,-3.2899,-3.3404,-3.3861,-3.3982,-3.421,-3.4703,0.0,0.0,0.0,0.0,0.0,0.0,0.0,0.0,0.0,0.0,0.0,0.0,0.0,0.0,0.0,0.0,0.0,0.0,0.0,0.0,0.0,0.0,0.0,0.0,0.0,0.0,0.0,0.0,0.0,0.0,0.0,0.0,0.0,0.0,0.0,0.0,0.0,0.0,0.0,0.0,0.0,0.0,0.0,0.0,0.0,0.0,0.0,0.0,0.0,0.0,0.0,0.0,0.0,-3.4305,-3.4496,-3.4893,-3.5098,-3.5098,-3.5294,-3.5295,-3.5005,-3.492,-3.4726,0.0,0.0,0.0,0.0,0.0,0.0,0.0,0.0,0.0,0.0,0.0,0.0,0.0,0.0,0.0,0.0,0.0,0.0,0.0,0.0,0.0,0.0,0.0,0.0,0.0,0.0,0.0,0.0,-2.6356,-2.7251,-2.8664,0.0,0.0,0.0,0.0,0.0,0.0,0.0,0.0,0.0,0.0,-3.219,-3.2178,-3.2647,0.0,0.0,-3.3416,-3.3813,-3.4006,-3.4318,-3.4595,-3.4799,-3.4823,0.0,0.0,0.0,0.0,0.0,0.0,0.0,0.0,0.0,0.0,0.0,0.0,0.0,0.0,0.0,0.0,0.0,0.0,0.0,0.0,0.0,0.0,0.0,0.0,0.0,0.0,0.0,0.0,0.0,0.0,0.0,0.0,0.0,0.0,0.0,0.0,0.0,0.0,0.0,0.0,0.0,0.0,0.0,0.0,0.0,0.0,0.0,0.0,0.0,0.0,0.0,0.0,-3.4249,-3.4347,-3.4445,-3.464,-3.4543,-3.464,-3.4445,-3.4249,-3.415,-3.4052,0.0,0.0,0.0,0.0,0.0,0.0,0.0,0.0,0.0,0.0,0.0,0.0,0.0,0.0,0.0,0.0,0.0,0.0,0.0,0.0,0.0,0.0,0.0,0.0,0.0,0.0,0.0,0.0,-2.6456,-2.7347,-2.8757,0.0,0.0,0.0,0.0,0.0,0.0,0.0,0.0,0.0,0.0,-3.2731,-3.2731,-3.3188,-3.3525,-3.3513,-3.3945,-3.4282,-3.4282,-3.4595,-3.4823,-3.4823,0.0,0.0,0.0,0.0,0.0,0.0,0.0,0.0,0.0,0.0,0.0,0.0,0.0,0.0,0.0,0.0,0.0,0.0,0.0,0.0,0.0,0.0,0.0,0.0,0.0,0.0,0.0,0.0,0.0,0.0,-3.2015,0.0,0.0,0.0,0.0,0.0,0.0,0.0,0.0,0.0,0.0,0.0,0.0,0.0,0.0,0.0,0.0,0.0,0.0,0.0,0.0,0.0,0.0,-3.3878,-3.4075,-3.4075,-3.4075,-3.4064,-3.4075,-3.3977,-3.3779,-3.3679,-3.3481,-3.2992,0.0,0.0,0.0,0.0,0.0,0.0,0.0,0.0,0.0,0.0,0.0,0.0,0.0,0.0,0.0,0.0,0.0,0.0,0.0,0.0,0.0,0.0,0.0,0.0,0.0,0.0,-2.5877,-2.6942,-2.7736,0.0,0.0,0.0,0.0,0.0,0.0,0.0,0.0,0.0,0.0,-3.2947,-3.3284,-3.3272,-3.3705,-3.403,-3.403,-3.4463,-3.4799,-3.4799,-3.4823,-3.4823,0.0,0.0,0.0,0.0,0.0,0.0,0.0,0.0,0.0,0.0,0.0,0.0,0.0,0.0,0.0,0.0,0.0,0.0,0.0,0.0,0.0,0.0,0.0,0.0,0.0,0.0,0.0,-3.2342,-3.2229,0.0,0.0,0.0,0.0,0.0,0.0,0.0,0.0,0.0,0.0,0.0,-3.1618,-3.1618,0.0,0.0,0.0,0.0,0.0,0.0,0.0,0.0,0.0,0.0,0.0,0.0,-3.3481,-3.358,-3.358,-3.358,-3.358,-3.3381,-3.3292,-3.3192,-3.2969,-3.2757,-3.2342,0.0,0.0,0.0,0.0,0.0,0.0,0.0,0.0,0.0,0.0,0.0,0.0,0.0,0.0,0.0,0.0,0.0,0.0,0.0,0.0,0.0,0.0,0.0,0.0,0.0,-2.5507,0.0,0.0,0.0,0.0,0.0,0.0,0.0,0.0,0.0,0.0,0.0,-3.2742,-3.2754,-3.3371,-3.3789,-3.3789,-3.4234,-3.4571,0.0,0.0,0.0,0.0,0.0,0.0,0.0,0.0,0.0,0.0,0.0,0.0,0.0,0.0,-3.1516,-3.171,-3.1403,-3.0991,-3.1002,0.0,0.0,0.0,0.0,0.0,0.0,0.0,0.0,0.0,0.0,0.0,0.0,0.0,0.0,-3.1913,0.0,-3.1721,0.0,0.0,0.0,0.0,0.0,0.0,0.0,0.0,-3.1618,-3.1527,-3.1424,-3.1424,-3.1424,0.0,-3.1424,-3.1527,0.0,0.0,0.0,0.0,0.0,0.0,0.0,0.0,-3.3181,-3.3192,-3.3192,-3.3081,-3.2969,-3.2768,-3.2566,-3.2566,-3.2139,-3.1721,-3.1289,-3.0867,-3.0463,0.0,0.0,0.0,0.0,0.0,0.0,0.0,0.0,0.0,0.0,0.0,0.0,0.0,0.0,0.0,0.0,0.0,0.0,0.0,0.0,0.0,0.0,0.0,-2.5507,0.0,0.0,0.0,0.0,0.0,0.0,0.0,0.0,0.0,-3.167,-3.2359,-3.2889,-3.2889,-3.3517,-3.403,-3.403,0.0,0.0,0.0,0.0,0.0,0.0,0.0,-3.404,-3.3866,-3.3656,-3.3446,-3.2823,-3.2207,-3.1494,-3.037,0.0,0.0,-3.0453,-3.0162,-2.9858,-2.9858,-2.9554,-2.9132,-2.8814,-2.8601,-2.8388,0.0,0.0,0.0,0.0,0.0,0.0,0.0,0.0,-3.2015,-3.1823,0.0,-3.1629,0.0,0.0,0.0,0.0,0.0,-3.1527,0.0,0.0,-3.1516,-3.1414,-3.123,-3.1127,-3.1116,-3.1127,-3.1127,-3.1322,-3.1527,-3.1516,0.0,0.0,0.0,0.0,0.0,0.0,-3.2891,-3.288,-3.2891,-3.2779,-3.2443,-3.2128,-3.1913,-3.1913,-3.1197,-3.0463,-2.9922,-2.9628,-2.9217,-2.8688,-2.8688,0.0,0.0,0.0,0.0,0.0,0.0,0.0,0.0,0.0,0.0,0.0,0.0,0.0,0.0,0.0,0.0,0.0,0.0,0.0,0.0,-2.6069,0.0,0.0,0.0,0.0,0.0,0.0,0.0,0.0,0.0,0.0,-3.157,-3.2333,-3.2839,-3.2839,0.0,0.0,0.0,0.0,-3.4075,-3.4075,-3.4075,-3.3965,-3.3645,-3.3545,-3.3446,-3.3147,0.0,0.0,-3.1289,-3.0981,-3.037,-2.9227,-2.891,-2.8794,-2.9313,-2.9006,-2.8688,-2.8698,-2.8271,-2.796,-2.7843,-2.7638,-2.7431,-3.4064,0.0,0.0,0.0,0.0,-3.2432,-3.2026,-3.1721,-3.1721,-3.1721,-3.1618,-3.1618,0.0,0.0,0.0,0.0,0.0,0.0,-3.1034,-3.1034,-3.0806,-3.0703,-3.0599,-3.0401,-3.0308,-3.0297,-3.0308,-3.0505,-3.0703,-3.0703,-3.1013,-3.1618,0.0,0.0,0.0,0.0,-3.2454,-3.224,-3.224,-3.2139,-3.1834,-3.1414,-3.0877,-3.0255,-2.9848,-2.9438,-2.9102,-2.8591,-2.8271,-2.8165,-2.7736,0.0,0.0,0.0,0.0,0.0,0.0,0.0,0.0,0.0,0.0,0.0,0.0,0.0,0.0,0.0,0.0,0.0,0.0,0.0,-2.6169,-2.625,-2.6057,0.0,0.0,0.0,0.0,0.0,0.0,0.0,0.0,0.0,-3.0718,-3.1627,-3.223,0.0,0.0,-3.3135,-3.3112,-3.3335,-3.3457,-3.3457,-3.3335,0.0,-3.2823,-3.2622,-3.2319,-3.1801,-3.1403,-3.0888,-3.0141,-2.9743,-2.9333,-2.8388,-2.796,-2.7745,-2.7736,-2.7736,-2.7745,-2.7745,-2.7638,-2.7422,-2.7314,-2.7206,-2.6999,-3.246,-3.2673,-3.2864,-3.2723,-3.2218,-3.1924,-3.1732,-3.1618,-3.1618,-3.1618,-3.1618,-3.1618,-3.1527,-3.1424,-3.0909,0.0,0.0,0.0,-3.0172,-3.0172,-2.9963,-2.9848,-2.9754,-2.9554,-2.9448,-2.9448,-2.9459,-2.9649,-2.9848,-2.9848,-3.0162,-3.0795,0.0,0.0,-3.1618,-3.1834,-3.1721,-3.1505,-3.1414,-3.1197,-3.0785,-3.0266,-2.9638,-2.89,-2.8698,-2.8378,-2.8048,-2.7736,-2.753,-2.7431,-2.6999,-2.6791,0.0,0.0,0.0,0.0,0.0,0.0,0.0,0.0,0.0,0.0,0.0,-2.6591,-2.6591,0.0,0.0,0.0,-2.6591,-2.6481,-2.6233,-2.6273,0.0,0.0,0.0,0.0,0.0,0.0,0.0,-2.9217,-2.9363,-2.9448,-2.9754,-3.0423,-3.1102,-3.164,-3.2015,-3.2386,-3.2587,0.0,-3.2903,-3.3106,-3.3025,-3.2808,-3.2509,-3.2279,-3.1693,-3.0769,-3.0172,-2.9659,-2.9006,-2.8698,-2.8378,-2.7736,-2.7422,-2.7215,-2.689,-2.7008,-2.7116,-2.7116,-2.7116,-2.7008,-2.6899,-2.6791,-2.6791,-3.1004,-3.061,-3.1517,-3.1893,-3.1803,-3.16,-3.1509,-3.1509,-3.1498,-3.1531,-3.1564,-3.1575,-3.1392,-3.1013,-3.0266,0.0,-2.9418,-2.9102,-2.9092,-2.8986,-2.8986,-2.889,-2.8581,-2.8581,-2.8581,-2.8581,-2.8581,-2.8678,-2.8986,-2.8986,-2.9102,-2.9418,-3.0183,-3.0724,-3.1013,-3.0795,-3.0681,-3.0681,-3.038,-2.9963,-2.9418,-2.89,-2.8378,-2.7843,-2.7853,-2.752,-2.6999,-2.6989,-2.689,-2.6591,-2.6591,-2.6591,-2.6591,0.0,0.0,0.0,0.0,0.0,0.0,0.0,0.0,0.0,0.0,0.0,0.0,0.0,0.0,-2.6591,-2.6591,0.0,-2.6591,-2.6233,0.0,0.0,0.0,-2.6642,-2.7151,-2.7612,-2.7979,-2.8223,0.0,0.0,-2.869,-2.9065,-2.9823,-3.0872,-3.1327,-3.1696,-3.213,-3.2195,-3.2368,-3.2748,-3.2846,-3.2749,-3.2341,-3.2007,-3.1319,-3.0005,-2.9397,-2.8866,-2.8222,-2.7997,-2.7644,-2.7247,-2.7092,-2.7011,-2.6792,-2.6738,-2.6692,-2.6719,-2.6637,-2.6591,-2.6582,-2.6591,-2.6582,-3.0046,-2.9803,-3.0395,-3.0647,-3.0647,-3.0548,-3.0548,-3.0548,-3.0548,-3.0745,-3.1061,-3.0871,-3.0455,-2.9848,-2.9438,-2.9016,-2.8601,-2.8504,-2.8495,-2.8495,-2.8271,-2.8165,-2.8067,-2.7853,-2.7745,-2.7745,-2.7745,-2.7843,-2.8165,-2.8165,-2.8271,-2.8601,-2.8814,-2.9237,-2.9848,-2.9848,-2.9628,-2.9217,-2.9112,-2.8804,-2.8271,-2.8165,-2.7853,-2.7206,-2.7196,-2.7107,-2.6691,-2.6691,-2.6691,-2.6591,-2.6591,-2.6591,-2.6591,-2.6591,0.0,0.0,0.0,0.0,0.0,0.0,0.0,0.0,0.0,-2.6591,-2.6591,0.0,-2.6591,0.0,-2.6591,-2.6591,-2.6582,-2.6499,0.0,0.0,-2.6751,-2.6957,-2.7056,-2.7365,-2.7653,-2.8077,-2.8105,-2.8349,-2.8887,-2.9133,-2.9385,-2.9809,-3.0564,-3.105,-3.1164,-3.1391,-3.1542,-3.1657,-3.1589,-3.135,-3.1261,-3.055,-2.9967,-2.9322,-2.8993,-2.8611,-2.8155,-2.8155,-2.8043,-2.7697,-2.7593,-2.7584,-2.7462,-2.749,-2.7481,-2.7444,-2.7013,-2.6591,-2.6591,-2.66,-2.6591,-2.936,-2.9183,-2.9456,-2.9685,-2.9904,-3.0111,-3.022,-3.0209,-3.0101,-3.0274,-3.0708,-3.0204,-2.9715,-2.9102,-2.8591,-2.8174,-2.7755,-2.7539,-2.7549,-2.7549,-2.7431,-2.7323,-2.7323,-2.7116,-2.7008,-2.7008,-2.7008,-2.7116,-2.7323,-2.7323,-2.7422,-2.7745,-2.7745,-2.795,-2.8368,-2.8688,-2.8688,-2.8378,-2.8048,-2.7843,-2.752,-2.7422,-2.7215,-2.6899,-2.6781,-2.6791,-2.6591,-2.6591,-2.6591,-2.6591,-2.6591,-2.6591,-2.6591,-2.6591,-2.6591,0.0,0.0,0.0,0.0,0.0,0.0,0.0,0.0,0.0,0.0,0.0,-2.6591,-2.6591,-2.6591,-2.6591,-2.6591,-2.6591,-2.6591,-2.6591,-2.6957,-2.7049,-2.7049,-2.7427,-2.7623,-2.7847,-2.7875,-2.808,-2.8653,-2.8833,-2.906,-2.9401,-3.0019,-3.0522,-3.068,-3.0974,-3.1268,-3.1462,-3.1288,-3.094,-3.0704,-3.0074,-2.9505,-2.9041,-2.8682,-2.8342,-2.8115,-2.8002,-2.8002,-2.7879,-2.7756,-2.7756,-2.7756,-2.7756,-2.7719,-2.749,-2.716,-2.6949,-2.7077,-2.6967,-2.6848,-2.885,-2.885,-2.885,-2.8997,-2.9328,-2.9752,-3.0003,-3.0112,-2.9807,-2.9856,-3.0226,-2.9642,-2.8976,-2.8396,-2.7659,-2.7103,-2.6732,-2.6534,-2.6435,-2.6435,-2.6435,-2.6426,-2.6435,-2.6435,-2.6435,-2.6426,-2.6481,-2.6509,-2.6509,-2.6564,-2.6682,-2.6989,-2.6999,-2.6999,-2.6989,-2.7431,-2.7745,-2.7745,-2.7215,-2.689,-2.6999,-2.6682,-2.6591,-2.6591,-2.6591,-2.6591,-2.6591,-2.6591,-2.6591,-2.6591,-2.6591,-2.6591,-2.6591,-2.6591,-2.6591,0.0,-2.6591,0.0,0.0,0.0,0.0,0.0,0.0,0.0,0.0,-2.6591,-2.6591,-2.6591,-2.6591,-2.6609,-2.6655,-2.6674,-2.6692,-2.6747,-2.704,-2.7251,-2.727,-2.7554,-2.7783,-2.7838,-2.7847,-2.798,-2.8301,-2.8579,-2.8909,-2.9179,-2.9647,-2.9947,-3.0381,-3.075,-3.0993,-3.1506,-3.1325,-3.0752,-3.0393,-2.992,-2.946,-2.8922,-2.8449,-2.818,-2.7888,-2.7765,-2.7765,-2.7756,-2.7756,-2.7756,-2.7756,-2.7756,-2.7664,-2.737,-2.7279,-2.7306,-2.7416,-2.7251,-2.7123,-2.885,-2.885,-2.885,-2.8718,-2.8629,-2.8516,-2.8903,-2.9511,-2.9225,-2.8967,-2.8788,-2.8615,-2.798,-2.7122,-2.6814,-2.6222,-2.5706,-2.5601,-2.5601,-2.5601,-2.5601,-2.5601,-2.5601,-2.5601,-2.5601,-2.5619,-2.5922,-2.6078,-2.6087,-2.6426,-2.6582,-2.67,-2.6691,-2.6691,-2.6691,0.0,0.0,0.0,-2.6682,-2.6682,-2.6691,-2.6582,-2.6591,-2.6591,-2.6591,0.0,-2.6591,-2.6591,-2.6591,-2.6591,-2.6591,0.0,0.0,0.0,0.0,0.0,0.0,0.0,0.0,0.0,0.0,0.0,-2.6591,-2.6591,-2.6591,-2.6591,-2.6591,-2.6591,-2.6591,-2.6719,-2.7031,-2.7059,-2.7196,-2.7508,-2.7609,-2.7655,-2.7655,-2.7728,-2.7884,-2.8242,-2.8269,-2.8397,-2.879,-2.8937,-2.8974,-2.9083,-2.9403,-2.9648,-2.9681,-3.0014,-3.0179,-3.0265,-3.0274,-3.0039,-2.9677,-2.9592,-2.9259,-2.8704,-2.8459,-2.8247,-2.7838,-2.7756,-2.7756,-2.7756,-2.7756,-2.7756,-2.7756,-2.7756,-2.7737,-2.7655,-2.7636,-2.749,-2.694,-2.6756,-2.6701,-2.885,0.0,-2.885,-2.8805,0.0,-2.8158,-2.8161,-2.8566,-2.8043,-2.7511,-2.7235,-2.7253,-2.6903,-2.6285,-2.598,-2.5774,-2.5372,-2.5372,-2.5372,-2.5372,-2.5372,-2.5372,-2.5372,-2.5372,-2.5372,-2.5381,-2.5573,-2.5766,-2.5958,-2.6169,-2.638,-2.6582,-2.6591,-2.6591,-2.6591,-2.6591,-2.6591,-2.6591,-2.6591,-2.6591,-2.6591,-2.6591,-2.6591,-2.6591,0.0,0.0,0.0,0.0,0.0,0.0,0.0,0.0,0.0,0.0,0.0,-2.6591,-2.6591,-2.6591,-2.6591,-2.6591,-2.6591,-2.6591,-2.6591,-2.6591,-2.6591,-2.6765,-2.6875,-2.6885,-2.705,-2.7251,-2.7444,-2.7471,-2.7545,-2.7746,-2.7948,-2.8077,-2.8095,-2.8251,-2.8443,-2.8636,-2.8691,-2.8764,-2.8957,-2.8984,-2.8984,-2.8984,-2.9094,-2.9203,-2.934,-2.9686,-2.9804,-2.9686,-2.9686,-2.9558,-2.9313,-2.9028,-2.8871,-2.8416,-2.8223,-2.8012,-2.7801,-2.7756,-2.7756,-2.7756,-2.7756,-2.7756,-2.7756,-2.7756,-2.771,-2.7526,-2.7471,-2.7288,-2.661,-2.6628,-2.6875,-2.885,-2.8757,-2.8757,-2.8798,-2.8796,-2.8004,-2.7516,-2.7202,0.0,0.0,0.0,-2.603,-2.5938,-2.5581,-2.5365,-2.5225,-2.5161,-2.5161,-2.5161,-2.5161,-2.5161,-2.5152,-2.5161,-2.5161,-2.5152,-2.5152,-2.5234,-2.5436,-2.5748,-2.5885,-2.6133,-2.6454,-2.6545,-2.6591,-2.6591,-2.6591,-2.6591,-2.6591,-2.6591,-2.6591,-2.6591,-2.6591,-2.6591,-2.6591,-2.6591,-2.6591,-2.6591,-2.6591,-2.6591,-2.6591,-2.6591,-2.6591,-2.6591,-2.6591,-2.6591,-2.6591,-2.6591,-2.6591,-2.6591,-2.6591,-2.6591,-2.6591,-2.6591,-2.6591,-2.6591,-2.6894,-2.7105,-2.7169,-2.7471,-2.771,-2.7856,-2.7875,-2.7911,-2.7976,-2.8287,-2.8498,-2.8517,-2.8773,-2.8948,-2.8984,-2.8966,-2.8948,-2.8874,-2.8856,-2.8847,-2.8773,-2.8691,-2.8773,-2.8901,-2.9254,-2.939,-2.917,-2.9114,-2.9071,-2.8827,-2.8498,-2.8269,-2.8122,-2.7856,-2.7655,-2.7572,-2.7554,-2.7441,-2.7368,-2.7441,-2.7413,-2.7422,-2.7264,-2.7322,-2.7021,-2.6957,-2.6745,-2.6143,-2.6379,-2.6671,-2.885,-2.8746,-2.8581,-2.8239,-2.7725,-2.6972,-2.6025,-2.505,-2.5645,-2.5853,-2.5816,-2.5655,-2.5282,-2.4969,-2.4867,-2.4666,-2.4326,-2.4326,-2.4326,0.0,-2.4326,-2.4426,-2.4317,-2.4326,-2.4426,-2.4454,-2.4693,-2.4895,-2.5014,-2.5628,-2.5995,-2.6087,-2.6408,-2.6582,-2.6591,-2.6591,-2.6591,-2.6591,-2.6591,-2.6591,-2.6591,-2.6591,-2.6591,-2.6591,-2.6591,-2.6591,-2.6591,-2.6591,-2.6591,-2.6591,-2.6591,-2.6591,-2.6591,-2.6591,-2.6591,-2.6591,-2.6591,-2.6591,-2.6591,-2.6591,-2.6591,-2.6591,-2.6591,-2.6591,-2.6591,-2.6637,-2.6811,-2.7132,-2.7251,-2.7554,-2.8187,-2.8287,-2.8407,-2.8718,-2.8847,-2.8893,-2.8838,-2.8883,-2.8929,-2.892,-2.8984,-2.881,-2.8535,-2.848,-2.8342,-2.8058,-2.7952,-2.7976,-2.8031,-2.8367,-2.8413,-2.8146,-2.8054,-2.8054,-2.8003,-2.7911,-2.7746,-2.7398,-2.7325,-2.7048,-2.6433,-2.6388,-2.6277,-2.6104,-2.6038,-2.602,-2.6002,-2.5958,-2.5985,-2.5922,-2.5922,-2.5759,-2.534,-2.5401,-2.5445,-2.885,-2.8757,-2.8384,-2.7904,-2.7336,-2.6091,-2.5128,-2.4369,-2.4748,-2.4923,-2.4914,-2.4804,-2.4611,-2.4455,-2.4445,-2.4335,-2.4161,-2.4161,-2.4161,-2.4161,-2.4161,-2.4161,-2.4161,-2.4161,-2.4161,-2.427,-2.4345,-2.4556,-2.4803,-2.5161,-2.5427,-2.5656,-2.605,-2.6353,-2.6573,-2.6591,-2.6591,-2.6591,-2.6591,-2.6591,-2.6591,-2.6591,-2.6591,-2.6591,-2.6591,-2.6591,-2.6591,-2.6591,-2.6591,-2.6591,-2.6591,-2.6591,-2.6591,-2.6591,-2.6591,-2.6591,-2.6591,-2.6591,-2.6591,-2.6591,-2.6591,-2.6591,-2.6591,-2.6591,-2.6591,-2.6784,-2.6985,-2.7169,-2.7361,-2.7737,-2.8333,-2.8397,-2.8471,-2.8645,-2.8663,-2.8563,-2.837,-2.8217,-2.8091,-2.8101,-2.7975,-2.7786,-2.7624,-2.7597,-2.7552,-2.7335,-2.7308,-2.7236,-2.7019,-2.7032,-2.7185,-2.7422,-2.7422,-2.7326,-2.729,-2.711,-2.692,-2.6722,-2.6532,-2.6233,-2.5697,-2.556,-2.5459,-2.5238,-2.5119,-2.5,-2.5,-2.4778,-2.4778,-2.4667,-2.4778,-2.4548,-2.4326,-2.3999,-2.4008,-2.8757,-2.8664,-2.8092,-2.7421,-2.6658,-2.5411,-2.4548,-2.4251,-2.4161,-2.4161,-2.4161,-2.4161,-2.4161,-2.4161,-2.4161,-2.4161,-2.4161,-2.4161,-2.4161,-2.4161,-2.4161,-2.4161,-2.4161,-2.4161,-2.4161,-2.4161,-2.4161,-2.4326,-2.462,-2.473,-2.4986,-2.5372,-2.5766,-2.6123,-2.6435,-2.6545,-2.6591,-2.6591,-2.6591,-2.6591,-2.6591,-2.6591,-2.6591,-2.6591,-2.6591,-2.6591,-2.6591,-2.6591,-2.6591,-2.6591,-2.6591,-2.6591,-2.6591,-2.6591,-2.6591,-2.6591,-2.6591,-2.6591,-2.6591,-2.6591,-2.6591,-2.6582,-2.6473,-2.6473,-2.65,-2.6747,-2.6975,-2.7187,-2.7426,-2.7783,-2.815,-2.8126,-2.8144,-2.8144,-2.8135,-2.791,-2.7609,-2.7317,-2.7088,-2.7088,-2.6858,-2.6725,-2.6637,-2.6619,-2.6558,-2.646,-2.6478,-2.6223,-2.596,-2.5561,-2.5709,-2.6127,-2.6355,-2.6434,-2.646,-2.6222,-2.6019,-2.6001,-2.5661,-2.5282,-2.5,-2.4889,-2.4667,-2.4454,-2.4223,-2.3999,-2.3991,-2.3888,-2.3776,-2.3784,-2.3784,-2.3552,-2.3207,-2.2667,-2.2675,-2.8664,-2.8395,-2.7831,-2.6774,-2.5528,-2.4833,-2.444,-2.4251,-2.4161,-2.4161,-2.4161,-2.4161,-2.4161,-2.4161,-2.4161,-2.4161,-2.4161,-2.4161,-2.4161,-2.4161,-2.4161,-2.4161,-2.4161,-2.4161,-2.4161,-2.4161,-2.4161,-2.4189,-2.4262,-2.4601,-2.4968,-2.5372,-2.5766,-2.5968,-2.6068,-2.6399,-2.6582,-2.6591,-2.6591,-2.6591,-2.6591,-2.6591,-2.6591,-2.6591,-2.6591,-2.6591,-2.6591,-2.6591,-2.6591,-2.6591,-2.6591,-2.6591,-2.6591,-2.6591,-2.6591,-2.6591,-2.6591,-2.6591,-2.6591,-2.6591,-2.6582,-2.6591,-2.6245,-2.6127,-2.6127,-2.5943,-2.6233,-2.6846,-2.7205,-2.7398,-2.7765,-2.76,-2.738,-2.7371,-2.7141,-2.7009,-2.6937,-2.6743,-2.6504,-2.6495,-2.6062,-2.5921,-2.548,-2.542,-2.5396,-2.5044,-2.5035,-2.4897,-2.458,-2.4331,-2.4116,-2.4124,-2.4452,-2.4932,-2.4949,-2.4992,-2.4881,-2.4864,-2.459,-2.4326,-2.4111,-2.3768,-2.3432,-2.3344,-2.3127,-2.3119,-2.2998,-2.3127,-2.3006,-2.278,-2.278,-2.2893,-2.2335,-2.1774,-2.1767,-2.8664,-2.8301,-2.762,-2.6476,-2.5128,-2.4548,-2.4242,-2.4161,-2.4161,-2.4161,-2.4161,-2.4161,-2.4161,-2.4161,-2.4161,-2.4161,-2.4161,-2.4161,-2.4161,-2.4161,-2.4161,-2.4161,-2.4161,-2.4161,-2.4161,-2.4161,-2.4161,-2.4161,-2.4189,-2.4326,-2.462,-2.4996,-2.5188,-2.5491,-2.5922,-2.6133,-2.6334,-2.6582,-2.6591,-2.6591,-2.6591,-2.6591,-2.6591,-2.6591,-2.6591,-2.6591,-2.6591,-2.6591,-2.6591,-2.6591,-2.6591,-2.6591,-2.6591,-2.6591,-2.6591,-2.6591,-2.6591,-2.6473,-2.6354,-2.6245,-2.6245,-2.6026,-2.5789,-2.556,-2.5569,-2.534,-2.5418,-2.5763,-2.6149,-2.6523,-2.6771,-2.6617,-2.6399,-2.6399,-2.6048,-2.5629,-2.5371,-2.4901,-2.4666,-2.4666,-2.4456,-2.4203,-2.4055,-2.4022,-2.3957,-2.3809,-2.3784,-2.368,-2.356,-2.3336,-2.3119,-2.2998,-2.3111,-2.3336,-2.3672,-2.3784,-2.3792,-2.3672,-2.3672,-2.3456,-2.3119,-2.3006,-2.278,-2.2222,-2.2108,-2.1881,-2.1631,-2.1531,-2.1417,-2.1531,-2.1417,-2.1303,-2.1074,-2.0852,-2.0967,-2.8571,-2.8196,-2.7231,-2.6081,-2.4833,-2.4449,-2.4161,-2.4161,-2.4161,-2.4161,-2.4161,-2.4161,-2.4161,-2.4161,-2.4161,-2.4161,-2.4161,-2.4161,-2.4161,-2.4161,-2.4161,-2.4161,-2.4161,-2.4161,-2.4161,-2.4161,-2.4161,-2.4161,-2.4161,-2.4161,-2.4317,-2.4583,-2.4721,-2.5069,-2.5592,-2.572,-2.6004,-2.638,-2.6417,-2.6463,-2.6564,-2.6591,-2.6591,-2.6591,-2.6591,-2.6591,-2.6591,-2.6591,-2.6591,-2.6591,-2.6591,-2.6591,-2.6591,-2.6591,-2.6582,-2.6473,-2.6473,-2.6254,-2.5898,-2.5907,-2.5679,-2.534,-2.5,-2.477,-2.4667,-2.4445,-2.4342,-2.4351,-2.4676,-2.5155,-2.5801,-2.5535,-2.5319,-2.5206,-2.4746,-2.4281,-2.3937,-2.3432,-2.3239,-2.3215,-2.307,-2.2788,-2.2796,-2.2804,-2.2804,-2.2788,-2.2675,-2.2562,-2.2449,-2.2222,-2.2101,-2.1995,-2.1767,-2.1995,-2.2554,-2.2788,-2.2788,-2.2562,-2.2562,-2.2335,-2.2108,-2.1995,-2.1881,-2.131,-2.1089,-2.0974,-2.096,-2.0615,-2.0392,-2.027,-2.027,-2.027,-2.027,-2.0162,-2.0162,-2.8456,-2.7799,-2.637,-2.5509,-2.4833,-2.4341,-2.4161,-2.4161,-2.4161,-2.4161,-2.4161,-2.4161,-2.4161,-2.4161,-2.4161,-2.4161,-2.4161,-2.4161,-2.4161,-2.4161,-2.4161,-2.4161,-2.4161,-2.4161,-2.4161,-2.4161,-2.4161,-2.4161,-2.4161,-2.4161,-2.4161,-2.4216,-2.4556,-2.4794,-2.4941,-2.5234,-2.5592,-2.594,-2.6013,-2.6188,-2.6527,-2.6573,-2.6591,-2.6591,-2.6591,-2.6591,-2.6591,-2.6591,-2.6591,-2.6591,-2.6591,-2.6591,-2.6591,-2.6591,-2.6473,-2.6136,-2.6136,-2.5789,-2.534,-2.5221,-2.5,-2.4437,-2.4103,-2.388,-2.3544,-2.3336,-2.3119,-2.3119,-2.3231,-2.3697,-2.4504,-2.4315,-2.4066,-2.3954,-2.3497,-2.3151,-2.3022,-2.2675,-2.2683,-2.2562,-2.2222,-2.1995,-2.2108,-2.2116,-2.2108,-2.1995,-2.1881,-2.1653,-2.1425,-2.1074,-2.0845,-2.0615,-2.0615,-2.0845,-2.1881,-2.1995,-2.1888,-2.1767,-2.1531,-2.131,-2.0845,-2.0608,-2.05,-2.0392,-2.0392,-2.0392,-2.0392,-2.0277,-2.0277,-2.0162,-2.0155,-2.0046,-1.9931,-1.9815,-1.9815,-2.8279,-2.7421,-2.6167,-2.5411,-2.4833,-2.4449,-2.4161,-2.4161,-2.4161,-2.4161,-2.4161,-2.4161,-2.4161,-2.4161,-2.4161,-2.4161,-2.4161,-2.4161,-2.4161,-2.4161,-2.4161,-2.4161,-2.4161,-2.4161,-2.4161,-2.4161,-2.4161,-2.4161,-2.4161,-2.4161,-2.4161,-2.417,-2.4299,-2.451,-2.4757,-2.4913,-2.5188,-2.5564,-2.5812,-2.6032,-2.6197,-2.6444,-2.6591,-2.6591,-2.6591,-2.6591,-2.6591,-2.6591,-2.6591,-2.6591,-2.6591,-2.6591,-2.6591,-2.6354,-2.6017,-2.5569,-2.5348,-2.5008,-2.4437,-2.4206,-2.388,-2.3568,-2.3223,-2.3006,-2.2893,-2.2562,-2.2456,-2.2449,-2.2449,-2.2667,-2.2659,-2.2893,-2.3119,-2.3006,-2.2335,-2.1888,-2.1774,-2.1425,-2.1081,-2.1081,-2.0967,-2.096,-2.1074,-2.096,-2.096,-2.0967,-2.0845,-2.073,-2.0622,-2.05,-2.0385,-2.0385,-2.027,-2.0392,-2.0845,-2.0967,-2.0852,-2.0852,-2.0615,-2.0622,-2.0385,-2.0385,-2.027,-2.0046,-2.0046,-1.9931,-1.9931,-1.9822,-1.9822,-1.9822,-1.9822,-1.9822,-1.9597,-1.9591,-1.9597,-2.7987,-2.7136,-2.6081,-2.5411,-2.4843,-2.4449,-2.4161,-2.4161,-2.4161,-2.4161,-2.4161,-2.4161,-2.4161,-2.4161,-2.4161,-2.4161,-2.4161,-2.4161,-2.4161,-2.4161,-2.4161,-2.4161,-2.4161,-2.4161,-2.4161,-2.4161,-2.4161,-2.4161,-2.4161,-2.4161,-2.4161,-2.4161,-2.4161,-2.429,-2.4537,-2.4574,-2.4776,-2.5161,-2.5445,-2.5619,-2.5793,-2.6169,-2.6389,-2.6408,-2.6518,-2.6591,-2.6591,-2.6591,-2.6591,-2.6591,-2.6473,-2.6364,-2.6136,-2.5898,-2.545,-2.4889,-2.4548,-2.4223,-2.3552,-2.3215,-2.2772,-2.2449,-2.2101,-2.1995,-2.1873,-2.1653,-2.1531,-2.1531,-2.1531,-2.1417,-2.131,-2.1539,-2.1881,-2.1881,-2.131,-2.0974,-2.0859,-2.0507,-2.0385,-2.0385,-2.0385,-2.0385,-2.027,-2.027,-2.0385,-2.027,-2.027,-2.0155,-2.0155,-2.0046,-2.0053,-2.0046,-1.9931,-1.9938,-2.0053,-2.0169,-2.0277,-2.0155,-2.027,-2.0162,-2.0046,-2.0046,-2.0046,-1.9815,-1.9584,-1.9591,-1.9482,-1.9482,-1.9366,-1.9366,-1.9482,-1.9597,-1.9482,-1.9482,-1.9312,-2.7715,-2.7136,-2.6081,-2.5401,-2.4833,-2.4449,-2.4161,-2.4161,-2.4161,-2.4161,-2.4161,-2.4161,-2.4161,-2.4161,-2.4161,-2.4161,-2.4161,-2.4161,-2.4161,-2.4161,-2.4161,-2.4161,-2.4161,-2.4161,-2.4161,-2.4161,-2.4161,-2.4161,-2.4161,-2.4161,-2.4161,-2.4161,-2.4161,-2.418,-2.4279,-2.4235,-2.439,-2.4711,-2.4858,-2.5032,-2.5362,-2.5757,-2.5958,-2.6004,-2.6307,-2.6481,-2.6518,-2.6564,-2.6591,-2.6473,-2.6236,-2.5789,-2.5331,-2.511,-2.4778,-2.3991,-2.388,-2.3448,-2.2683,-2.223,-2.1767,-2.1432,-2.096,-2.0723,-2.0615,-2.05,-2.05,-2.05,-2.05,-2.0385,-2.0385,-2.0392,-2.0615,-2.0601,-2.0493,-2.0392,-2.0277,-2.0277,-2.027,-2.027,-2.0162,-2.027,-2.027,-2.0162,-2.0162,-2.0162,-1.9924,-1.9809,-1.9815,-1.9707,-1.9482,-1.9482,-1.9591,-1.9597,-1.9482,-1.9482,-1.9591,-1.97,-1.9815,-1.9815,-1.9707,-1.9707,-1.9707,-1.9475,-1.9475,-1.9482,-1.9482,-1.9366,-1.9366,-1.9366,-1.9366,-1.9359,-1.9359,-1.9325,-1.9172,-2.7704,-2.7136,-2.6071,-2.5401,-2.4833,-2.435,-2.4161,-2.4161,-2.4161,-2.4161,-2.4161,-2.4161,-2.4161,-2.4161,-2.4161,-2.4161,-2.4161,-2.4161,-2.4161,-2.4161,-2.4161,-2.4161,-2.4161,-2.4161,-2.4161,-2.4161,-2.4161,-2.4161,-2.4161,-2.4161,-2.4161,-2.4161,-2.4161,-2.4161,-2.4161,-2.4161,-2.4244,-2.4363,-2.4638,-2.4849,-2.4996,-2.5344,-2.5555,-2.5573,-2.5683,-2.5748,-2.5775,-2.6289,-2.6455,-2.6218,-2.6017,-2.534,-2.4556,-2.4094,-2.3664,-2.3006,-2.2539,-2.2199,-2.1653,-2.1196,-2.0852,-2.0622,-2.0493,-2.0378,-2.027,-2.0263,-2.0256,-2.0263,-2.027,-2.027,-2.0046,-1.9931,-2.0155,-2.0378,-2.0155,-1.9931,-1.9924,-1.9815,-1.9713,-1.9707,-1.9707,-1.9707,-1.9707,-1.9707,-1.9707,-1.9713,-1.9591,-1.9591,-1.9482,-1.9482,-1.9366,-1.9366,-1.9366,-1.9366,-1.9366,-1.9366,-1.9475,-1.9591,-1.9591,-1.9584,-1.9482,-1.9366,-1.9366,-1.9366,-1.9366,-1.9366,-1.9366,-1.9366,-1.9366,-1.9352,-1.9345,-1.9345,-1.9345,-1.9212,-1.9005,-2.7704,-2.7136,-2.6081,-2.5411,-2.4843,-2.444,-2.4161,-2.4161,-2.4161,-2.4161,-2.4161,-2.4161,-2.4161,-2.4161,-2.4161,-2.4161,-2.4161,-2.4161,-2.4161,-2.4161,-2.4161,-2.4161,-2.4161,-2.4161,-2.4161,-2.4161,-2.4161,-2.4161,-2.4161,-2.4161,-2.4161,-2.4161,-2.4161,-2.4161,-2.4161,-2.4161,-2.4161,-2.4198,-2.4409,-2.4546,-2.4629,-2.4941,-2.5152,-2.517,-2.5298,-2.5362,-2.5408,-2.5779,-2.5918,-2.5613,-2.5277,-2.4531,-2.3648,-2.3103,-2.2659,-2.2108,-2.1638,-2.1174,-2.0852,-2.0392,-2.0162,-2.0148,-1.9943,-1.9759,-1.9759,-1.9766,-1.9759,-1.9766,-1.9862,-1.9931,-1.9707,-1.97,-1.9815,-1.9938,-1.9822,-1.9707,-1.9591,-1.9482,-1.9482,-1.9482,-1.9482,-1.9366,-1.9366,-1.9366,-1.9366,-1.9366,-1.9366,-1.9366,-1.9366,-1.9366,-1.9366,-1.9366,-1.9366,-1.9366,-1.9366,-1.9366,-1.9366,-1.9482,-1.9482,-1.9482,-1.9366,-1.9366,-1.9366,-1.9366,-1.9366,-1.9366,-1.9366,-1.9366,-1.9366,-1.9345,-1.9285,-1.9185,-1.9098,-1.8911,-1.8711,-2.7715,-2.7136,-2.6081,-2.5401,-2.4843,-2.444,-2.4161,-2.4161,-2.4161,-2.4161,-2.4161,-2.4161,-2.4161,-2.4161,-2.4161,-2.4161,-2.426,-2.4251,-2.4251,-2.4251,-2.4251,-2.4251,-2.4251,-2.4161,-2.4161,-2.4161,-2.4161,-2.4161,-2.4161,-2.4161,-2.4161,-2.4161,-2.4161,-2.4161,-2.4161,-2.4161,-2.4161,-2.4161,-2.418,-2.4207,-2.4216,-2.4537,-2.4748,-2.4748,-2.5032,-2.5197,-2.5094,-2.495,-2.4814,-2.4781,-2.405,-2.3357,-2.2863,-2.2274,-2.1639,-2.1064,-2.0773,-2.0494,-2.0186,-1.978,-1.9685,-1.9651,-1.9246,-1.8898,-1.9018,-1.9011,-1.9011,-1.9025,-1.9219,-1.9374,-1.9367,-1.9408,-1.9421,-1.9366,-1.9482,-1.9482,-1.9366,-1.9366,-1.9366,-1.9366,-1.9366,-1.9366,-1.9366,-1.9366,-1.9366,-1.9366,-1.9366,-1.9366,-1.9366,-1.9366,-1.9366,-1.9366,-1.9366,-1.9366,-1.9366,-1.9366,-1.9366,-1.9366,-1.9366,-1.9366,-1.9366,-1.9366,-1.9366,-1.9366,-1.9345,-1.9352,-1.9339,-1.9312,-1.9279,-1.9225,-1.9118,-1.8971,-1.8804,-1.8631,-1.8457,-2.7904,-2.7136,-2.6081,-2.5411,-2.4833,-2.444,-2.4152,-2.4161,-2.4161,-2.4161,-2.4161,-2.4161,-2.4161,-2.4161,-2.4161,-2.4161,-2.4251,-2.4341,-2.443,-2.444,-2.4646,-2.4449,-2.4251,-2.4152,-2.4251,-2.4251,-2.4251,-2.4161,-2.4161,-2.4161,-2.4161,-2.4161,-2.4161,-2.4161,-2.4161,-2.4161,-2.4161,-2.4161,-2.4161,-2.4161,-2.417,-2.4253,-2.4317,-2.4326,-2.4336,-2.4198,-2.418,-2.3547,-2.3229,-2.3419,-2.2782,-2.2024,-2.1178,-2.0744,-2.0315,-1.9982,-1.9626,-1.9382,-1.9284,-1.9074,-1.885,-1.883,-1.8783,-1.8611,-1.8604,-1.8604,-1.8604,-1.8617,-1.8698,-1.8744,-1.8771,-1.8918,-1.9105,-1.9325,-1.9312,-1.9325,-1.9366,-1.9366,-1.9366,-1.9366,-1.9366,-1.9366,-1.9366,-1.9366,-1.9366,-1.9366,-1.9366,-1.9366,-1.9366,-1.9366,-1.9366,-1.9366,-1.9366,-1.9366,-1.9366,-1.9366,-1.9366,-1.9366,-1.9366,-1.9366,-1.9366,-1.9366,-1.9366,-1.9366,-1.9285,-1.9272,-1.9225,-1.9192,-1.9145,-1.9038,-1.8824,-1.8624,-1.8531,-1.8384,-1.8223,-2.7904,-2.7136,-2.6274,-2.5509,-2.4932,-2.444,-2.4242,-2.4251,-2.4161,-2.4161,-2.4161,-2.4161,-2.4161,-2.4161,-2.4161,-2.4251,-2.4341,-2.443,-2.4538,-2.4627,-2.4833,-2.4745,-2.4548,-2.4538,-2.444,-2.4341,-2.435,-2.4251,-2.426,-2.4161,-2.4161,-2.4161,-2.4161,-2.4161,-2.4161,-2.4161,-2.4161,-2.4161,-2.4161,-2.4161,-2.4161,-2.4161,-2.4161,-2.4053,-2.3746,-2.3438,-2.2937,-2.2434,-2.2212,-2.2241,-2.1841,-2.1156,-2.0339,-1.9909,-1.9463,-1.9243,-1.8919,-1.8705,-1.8698,-1.8601,-1.849,-1.847,-1.8404,-1.831,-1.8303,-1.8303,-1.8303,-1.831,-1.841,-1.8484,-1.8517,-1.8651,-1.8811,-1.8938,-1.9005,-1.9098,-1.9319,-1.9366,-1.9366,-1.9366,-1.9366,-1.9366,-1.9366,-1.9366,-1.9366,-1.9366,-1.9366,-1.9366,-1.9366,-1.9366,-1.9366,-1.9366,-1.9366,-1.9366,-1.9366,-1.9366,-1.9366,-1.9366,-1.9305,-1.9319,-1.9319,-1.9312,-1.9272,-1.9245,-1.9212,-1.9138,-1.9032,-1.8925,-1.8818,-1.8671,-1.8457,-1.8323,-1.8237,-1.8136,-1.7976,-2.7998,-2.7231,-2.6476,-2.5713,-2.4932,-2.4627,-2.4341,-2.4251,-2.4161,-2.4161,-2.4161,-2.4161,-2.4251,-2.4251,-2.4251,-2.435,-2.4529,-2.4627,-2.4824,-2.4932,-2.5039,-2.5039,-2.5039,-2.4843,-2.4735,-2.4529,-2.4529,-2.4341,-2.4251,-2.4161,-2.4161,-2.4161,-2.4161,-2.4161,-2.4161,-2.4161,-2.4161,-2.4161,-2.4161,-2.4161,-2.4152,-2.4152,-2.3954,-2.3646,-2.3238,-2.2526,-2.1928,-2.1538,-2.1583,-2.1474,-2.1063,-2.0567,-2.0077,-1.946,-1.9118,-1.8755,-1.8509,-1.8426,-1.8364,-1.831,-1.8357,-1.829,-1.8103,-1.8003,-1.7996,-1.7996,-1.7996,-1.7996,-1.825,-1.8323,-1.8404,-1.8437,-1.8497,-1.8577,-1.8551,-1.8771,-1.9125,-1.9305,-1.9332,-1.9366,-1.9366,-1.9366,-1.9366,-1.9366,-1.9366,-1.9366,-1.9366,-1.9366,-1.9366,-1.9366,-1.9366,-1.9366,-1.9366,-1.9366,-1.9366,-1.9366,-1.9366,-1.9359,-1.9252,-1.9212,-1.9212,-1.9192,-1.9125,-1.9072,-1.8985,-1.8838,-1.8671,-1.8564,-1.847,-1.8357,-1.8183,-1.8076,-1.7976,-1.7862,-1.7716,-2.8456,-2.7799,-2.6774,-2.5917,-2.5235,-2.4735,-2.444,-2.4251,-2.426,-2.4251,-2.426,-2.426,-2.4341,-2.444,-2.444,-2.4538,-2.4824,-2.503,-2.5235,-2.5528,-2.5538,-2.5538,-2.544,-2.5147,-2.4735,-2.4538,-2.4529,-2.444,-2.4251,-2.4161,-2.4161,-2.4161,-2.4161,-2.4161,-2.4161,-2.4161,-2.4161,-2.4161,-2.4161,-2.4152,-2.4161,-2.3954,-2.3746,-2.3338,-2.2526,-2.1623,-2.0917,-2.0719,-2.0442,-1.9978,-1.9911,-1.9665,-1.8999,-1.8582,-1.827,-1.8056,-1.7929,-1.7809,-1.7796,-1.7836,-1.7796,-1.7829,-1.7796,-1.7682,-1.7682,-1.7702,-1.7695,-1.7689,-1.7749,-1.7929,-1.8103,-1.8136,-1.8223,-1.8357,-1.843,-1.8497,-1.8684,-1.8885,-1.9092,-1.9265,-1.9319,-1.9359,-1.9352,-1.9332,-1.9339,-1.9359,-1.9366,-1.9366,-1.9366,-1.9366,-1.9366,-1.9366,-1.9366,-1.9366,-1.9345,-1.9299,-1.9205,-1.9158,-1.9065,-1.9018,-1.9018,-1.8945,-1.8838,-1.8771,-1.8731,-1.8557,-1.8337,-1.823,-1.8136,-1.8023,-1.7929,-1.7842,-1.7742,-1.7615,-1.7589,-2.8499,-2.7772,-2.7253,-2.6496,-2.5713,-2.5216,-2.4824,-2.4538,-2.4548,-2.4538,-2.4538,-2.4548,-2.4538,-2.4627,-2.4726,-2.4824,-2.5128,-2.5342,-2.5538,-2.5635,-2.5732,-2.5732,-2.5635,-2.5333,-2.4932,-2.4735,-2.4735,-2.4548,-2.4251,-2.4161,-2.4161,-2.4161,-2.4161,-2.4161,-2.4161,-2.4161,-2.4161,-2.4161,-2.4161,-2.4152,-2.3954,-2.3854,-2.3247,-2.2627,-2.1717,-2.0917,-1.9998,-1.9894,-1.9583,-1.9056,-1.8848,-1.8743,-1.8325,-1.8122,-1.7911,-1.7694,-1.7589,-1.7589,-1.7589,-1.7589,-1.7602,-1.7589,-1.7589,-1.7589,-1.7589,-1.7589,-1.7589,-1.7589,-1.7609,-1.7675,-1.7809,-1.7829,-1.7943,-1.8003,-1.807,-1.8123,-1.829,-1.8537,-1.8758,-1.8918,-1.8918,-1.9018,-1.9085,-1.9145,-1.9265,-1.9265,-1.9325,-1.9332,-1.9366,-1.9366,-1.9366,-1.9366,-1.9366,-1.9352,-1.9325,-1.9212,-1.9005,-1.8898,-1.8758,-1.8731,-1.8724,-1.8611,-1.8484,-1.845,-1.841,-1.8203,-1.8003,-1.7903,-1.7849,-1.7789,-1.7716,-1.7622,-1.7589,-1.7589,-1.7589,-2.8355,-2.7666,-2.7607,-2.7043,-2.6098,-2.5761,-2.5314,-2.4941,-2.4941,-2.4843,-2.4941,-2.4941,-2.4833,-2.4941,-2.4932,-2.5128,-2.5333,-2.5538,-2.5732,-2.5732,-2.5732,-2.5635,-2.5538,-2.5333,-2.503,-2.4833,-2.4735,-2.4548,-2.4251,-2.4161,-2.4161,-2.4161,-2.4161,-2.4161,-2.4161,-2.4161,-2.4161,-2.4161,-2.4161,-2.4053,-2.3854,-2.3646,-2.2937,-2.1725,-2.0909,-2.0197,-1.948,-1.9175,-1.8952,-1.8429,-1.8115,-1.8016,-1.7911,-1.7911,-1.7905,-1.7582,-1.7589,-1.7589,-1.7589,-1.7589,-1.7589,-1.7589,-1.7589,-1.7589,-1.7589,-1.7589,-1.7589,-1.7589,-1.7595,-1.7595,-1.7589,-1.7629,-1.7622,-1.7629,-1.7609,-1.7716,-1.7943,-1.8217,-1.8337,-1.8544,-1.8644,-1.8744,-1.8811,-1.8871,-1.9032,-1.9172,-1.9225,-1.9259,-1.9265,-1.9239,-1.9165,-1.9098,-1.9038,-1.9018,-1.8991,-1.8978,-1.8791,-1.8651,-1.8484,-1.843,-1.8397,-1.823,-1.811,-1.8116,-1.8036,-1.7876,-1.7776,-1.7729,-1.7669,-1.7589,-1.7589,-1.7589,-1.7589,-1.7589,-1.7589,-2.8653,-2.8163,-2.7757,-2.7033,-2.6172,-2.5816,-2.5373,-2.4932,-2.4903,-2.4932,-2.4941,-2.4941,-2.503,-2.5226,-2.5235,-2.544,-2.5538,-2.5635,-2.5732,-2.5732,-2.5732,-2.5635,-2.544,-2.5342,-2.5039,-2.4637,-2.4538,-2.444,-2.4251,-2.4161,-2.4161,-2.4161,-2.4161,-2.4161,-2.4161,-2.4161,-2.4161,-2.4152,-2.4152,-2.4053,-2.3646,-2.3138,-2.2232,-2.0917,-2.0094,-1.948,-1.9071,-1.875,-1.8429,-1.8122,-1.8016,-1.7911,-1.7701,-1.7694,-1.7687,-1.7582,-1.7589,-1.7589,-1.7589,-1.7589,-1.7589,-1.7589,-1.7589,-1.7589,-1.7589,-1.7589,-1.7589,-1.7589,-1.7589,-1.7589,-1.7589,-1.7589,-1.7589,-1.7589,-1.7595,-1.7615,-1.7689,-1.7789,-1.7996,-1.8283,-1.8404,-1.847,-1.8524,-1.8577,-1.8691,-1.8791,-1.8844,-1.8844,-1.8838,-1.8791,-1.8718,-1.8657,-1.8604,-1.8597,-1.8584,-1.8591,-1.8517,-1.8397,-1.8257,-1.813,-1.8036,-1.7829,-1.7742,-1.7849,-1.7829,-1.7709,-1.7622,-1.7589,-1.7589,-1.7589,-1.7589,-1.7589,-1.7589,-1.7589,-1.7589,-2.8491,-2.81,-2.7888,-2.7284,-2.6349,-2.5991,-2.5565,-2.5169,-2.5189,-2.5218,-2.5285,-2.5333,-2.5342,-2.544,-2.5538,-2.5635,-2.5635,-2.5732,-2.5732,-2.5732,-2.5732,-2.5538,-2.5235,-2.5137,-2.4833,-2.4538,-2.444,-2.4341,-2.4242,-2.4161,-2.4161,-2.4161,-2.4161,-2.4161,-2.4161,-2.4161,-2.4161,-2.4152,-2.4053,-2.3755,-2.3238,-2.2426,-2.1318,-2.0395,-1.9687,-1.9063,-1.8646,-1.8331,-1.8115,-1.7793,-1.7799,-1.7694,-1.7694,-1.7589,-1.7589,-1.7589,-1.7589,-1.7589,-1.7589,-1.7589,-1.7589,-1.7589,-1.7589,-1.7589,-1.7589,-1.7589,-1.7589,-1.7589,-1.7589,-1.7589,-1.7589,-1.7589,-1.7589,-1.7589,-1.7589,-1.7589,-1.7589,-1.7589,-1.7789,-1.8036,-1.7996,-1.8063,-1.8237,-1.8297,-1.835,-1.841,-1.8457,-1.845,-1.8424,-1.8404,-1.8364,-1.8384,-1.8364,-1.831,-1.829,-1.8257,-1.823,-1.8116,-1.8036,-1.7909,-1.7822,-1.7675,-1.7655,-1.7716,-1.7642,-1.7589,-1.7589,-1.7589,-1.7589,-1.7589,-1.7589,-1.7589,-1.7589,-1.7589,-1.7589,-2.8303,-2.7934,-2.7906,-2.7338,-2.6487,-2.6066,-2.5666,-2.5361,-2.5214,-2.5297,-2.5439,-2.5459,-2.5382,-2.5605,-2.5693,-2.5732,-2.5732,-2.5732,-2.5732,-2.5732,-2.5732,-2.5538,-2.5245,-2.5039,-2.4735,-2.444,-2.4341,-2.4161,-2.4152,-2.4161,-2.4161,-2.4161,-2.4161,-2.4161,-2.4161,-2.4161,-2.4161,-2.4152,-2.3954,-2.3447,-2.2535,-2.1522,-2.0506,-1.9975,-1.9368,-1.8848,-1.8325,-1.8115,-1.7799,-1.7694,-1.7589,-1.7589,-1.7589,-1.7589,-1.7589,-1.7589,-1.7589,-1.7589,-1.7589,-1.7589,-1.7589,-1.7589,-1.7589,-1.7589,-1.7589,-1.7589,-1.7589,-1.7589,-1.7589,-1.7589,-1.7589,-1.7589,-1.7589,-1.7589,-1.7589,-1.7589,-1.7589,-1.7589,-1.7589,-1.7675,-1.7589,-1.7702,-1.7929,-1.7956,-1.8003,-1.8029,-1.8083,-1.8103,-1.8083,-1.813,-1.813,-1.8183,-1.817,-1.8083,-1.8023,-1.7956,-1.7903,-1.7809,-1.7776,-1.7716,-1.7669,-1.7602,-1.7622,-1.7649,-1.7622,-1.7589,-1.7589,-1.7589,-1.7589,-1.7589,-1.7589,-1.7589,-1.7589,-1.7589,-1.7589,-2.8286,-2.7848,-2.7638,-2.7078,-2.6302,-2.5968,-2.5452,-2.4963,-2.4881,-2.4707,-2.4687,-2.4639,-2.4844,-2.5156,-2.5566,-2.5693,-2.5713,-2.5732,-2.5732,-2.5732,-2.5635,-2.544,-2.5039,-2.4941,-2.4637,-2.4341,-2.4242,-2.4152,-2.4161,-2.4161,-2.4161,-2.4161,-2.4161,-2.4161,-2.4161,-2.4161,-2.4161,-2.4161,-2.3854,-2.3138,-2.1928,-2.0917,-2.0205,-1.948,-1.8848,-1.8429,-1.8122,-1.7911,-1.7694,-1.7589,-1.7589,-1.7589,-1.7589,-1.7589,-1.7589,-1.7589,-1.7589,-1.7589,-1.7589,-1.7589,-1.7589,-1.7589,-1.7589,-1.7589,-1.7589,-1.7589,-1.7589,-1.7589,-1.7589,-1.7589,-1.7589,-1.7589,-1.7589,-1.7589,-1.7589,-1.7589,-1.7589,-1.7589,-1.7589,-1.7589,-1.7589,-1.7589,-1.7695,-1.7669,-1.7649,-1.7675,-1.7702,-1.7742,-1.7782,-1.7856,-1.7876,-1.7923,-1.7943,-1.7869,-1.7849,-1.7769,-1.7716,-1.7589,-1.7589,-1.7589,-1.7589,-1.7589,-1.7589,-1.7602,-1.7589,-1.7589,-1.7589,-1.7589,-1.7589,-1.7589,-1.7589,-1.7589,-1.7589,-1.7589,-1.7589,-2.8351,-2.8042,-2.7673,-2.7092,-2.6381,-2.5915,-2.5363,-2.4846,-2.4706,-2.4574,-2.4385,-2.4424,-2.4531,-2.4775,-2.5166,-2.5342,-2.541,-2.5605,-2.5732,-2.5732,-2.5635,-2.5538,-2.5137,-2.4932,-2.4637,-2.444,-2.4251,-2.4152,-2.4161,-2.4161,-2.4161,-2.4161,-2.4161,-2.4161,-2.4152,-2.4161,-2.4053,-2.3755,-2.3046,-2.2131,-2.1121,-2.0308,-1.9591,-1.9078,-1.8541,-1.8122,-1.8016,-1.7799,-1.7589,-1.7589,-1.7589,-1.7589,-1.7589,-1.7589,-1.7589,-1.7589,-1.7589,-1.7589,-1.7589,-1.7589,-1.7589,-1.7589,-1.7589,-1.7589,-1.7589,-1.7589,-1.7589,-1.7589,-1.7589,-1.7589,-1.7589,-1.7589,-1.7589,-1.7589,-1.7589,-1.7589,-1.7589,-1.7589,-1.7589,-1.7589,-1.7589,-1.7589,-1.7589,-1.7595,-1.7602,-1.7622,-1.7642,-1.7655,-1.7662,-1.7675,-1.7675,-1.7662,-1.7669,-1.7649,-1.7662,-1.7642,-1.7662,-1.7589,-1.7589,-1.7589,-1.7589,-1.7589,-1.7589,-1.7589,-1.7589,-1.7589,-1.7589,-1.7589,-1.7589,-1.7589,-1.7589,-1.7589,-1.7589,-1.7589,-1.7589,-2.8431,-2.8259,-2.7696,-2.7103,-2.6434,-2.5779,-2.5231,-2.4753,-2.4432,-2.4257,-2.4254,-2.418,-2.4248,-2.4365,-2.4697,-2.498,-2.5107,-2.542,-2.5625,-2.5693,-2.5635,-2.5528,-2.5333,-2.503,-2.4833,-2.4529,-2.4341,-2.4251,-2.4251,-2.4161,-2.4161,-2.4161,-2.4161,-2.4161,-2.4152,-2.4053,-2.3845,-2.3338,-2.2325,-2.142,-2.0617,-1.9791,-1.9272,-1.8757,-1.8338,-1.8023,-1.7911,-1.7694,-1.7589,-1.7589,-1.7589,-1.7589,-1.7589,-1.7589,-1.7589,-1.7589,-1.7589,-1.7589,-1.7589,-1.7589,-1.7589,-1.7589,-1.7589,-1.7589,-1.7589,-1.7589,-1.7589,-1.7589,-1.7589,-1.7589,-1.7589,-1.7589,-1.7589,-1.7589,-1.7589,-1.7589,-1.7589,-1.7589,-1.7589,-1.7589,-1.7589,-1.7589,-1.7589,-1.7589,-1.7589,-1.7589,-1.7589,-1.7589,-1.7589,-1.7589,-1.7589,-1.7589,-1.7589,-1.7589,-1.7589,-1.7589,-1.7589,-1.7589,-1.7589,-1.7589,-1.7589,-1.7589,-1.7589,-1.7589,-1.7589,-1.7589,-1.7589,-1.7589,-1.7589,-1.7589,-1.7589,-1.7589,-1.7589,-1.7589,-1.7589,-2.851,-2.8431,-2.7765,-2.7115,-2.6528,-2.5779,-2.5147,-2.4557,-2.4095,-2.3787,-2.3673,-2.3722,-2.3838,-2.3945,-2.4268,-2.4658,-2.501,-2.5088,-2.5352,-2.5596,-2.5635,-2.5538,-2.5333,-2.5235,-2.503,-2.4627,-2.443,-2.4341,-2.4251,-2.4161,-2.4161,-2.4161,-2.4161,-2.4161,-2.4053,-2.3845,-2.3238,-2.2636,-2.1827,-2.1216,-2.0411,-1.9687,-1.8959,-1.8534,-1.8115,-1.7911,-1.7687,-1.7582,-1.7589,-1.7589,-1.7589,-1.7589,-1.7589,-1.7589,-1.7589,-1.7589,-1.7589,-1.7589,-1.7589,-1.7589,-1.7589,-1.7589,-1.7589,-1.7589,-1.7589,-1.7589,-1.7589,-1.7589,-1.7589,-1.7589,-1.7589,-1.7589,-1.7589,-1.7589,-1.7589,-1.7589,-1.7589,-1.7589,-1.7589,-1.7589,-1.7589,-1.7589,-1.7589,-1.7589,-1.7589,-1.7589,-1.7589,-1.7589,-1.7589,-1.7589,-1.7589,-1.7589,-1.7589,-1.7589,-1.7589,-1.7589,-1.7589,-1.7589,-1.7589,-1.7589,-1.7589,-1.7589,-1.7589,-1.7589,-1.7589,-1.7589,-1.7589,-1.7589,-1.7589,-1.7589,-1.7589,-1.7589,-1.7589,-1.7589,-1.7589,-2.851,-2.8431,-2.795,-2.7534,-2.701,-2.6268,-2.5538,-2.4861,-2.409,-2.357,-2.3242,-2.332,-2.3389,-2.3516,-2.3818,-2.4111,-2.4355,-2.4893,-2.5127,-2.5371,-2.5557,-2.5606,-2.5528,-2.5333,-2.5128,-2.4735,-2.4627,-2.443,-2.4242,-2.4152,-2.4161,-2.4161,-2.4161,-2.4053,-2.3854,-2.3347,-2.2526,-2.1827,-2.1224,-2.0617,-1.9983,-1.9264,-1.8639,-1.8422,-1.7898,-1.7694,-1.7589,-1.7589,-1.7589,-1.7589,-1.7589,-1.7589,-1.7589,-1.7589,-1.7589,-1.7589,-1.7589,-1.7589,-1.7589,-1.7589,-1.7589,-1.7589,-1.7589,-1.7589,-1.7589,-1.7589,-1.7589,-1.7589,-1.7589,-1.7589,-1.7589,-1.7589,-1.7589,-1.7589,-1.7589,-1.7589,-1.7589,-1.7589,-1.7589,-1.7589,-1.7589,-1.7589,-1.7589,-1.7589,-1.7589,-1.7589,-1.7589,-1.7589,-1.7589,-1.7589,-1.7589,-1.7589,-1.7589,-1.7589,-1.7589,-1.7589,-1.7589,-1.7589,-1.7589,-1.7589,-1.7589,-1.7589,-1.7589,-1.7589,-1.7589,-1.7589,-1.7589,-1.7589,-1.7589,-1.7589,-1.7589,-1.7589,-1.7589,-1.7589,-1.7589,-2.8431,-2.8339,-2.8111,-2.7788,-2.7429,-2.6528,-2.5779,-2.52,-2.4272,-2.358,-2.3135,-2.3144,-2.3144,-2.3242,-2.3428,-2.3721,-2.4004,-2.4502,-2.4873,-2.5205,-2.5508,-2.5693,-2.5635,-2.544,-2.5137,-2.4932,-2.4637,-2.444,-2.4251,-2.4152,-2.4161,-2.4161,-2.4053,-2.3954,-2.3447,-2.2736,-2.1818,-2.1121,-2.0609,-2.0101,-1.9576,-1.884,-1.8325,-1.822,-1.7793,-1.7687,-1.7589,-1.7589,-1.7589,-1.7589,-1.7589,-1.7589,-1.7589,-1.7589,-1.7589,-1.7589,-1.7589,-1.7589,-1.7589,-1.7589,-1.7589,-1.7589,-1.7589,-1.7589,-1.7589,-1.7589,-1.7589,-1.7589,-1.7589,-1.7589,-1.7589,-1.7589,-1.7589,-1.7589,-1.7589,-1.7589,-1.7589,-1.7589,-1.7589,-1.7589,-1.7589,-1.7589,-1.7589,-1.7589,-1.7589,-1.7589,-1.7589,-1.7589,-1.7589,-1.7589,-1.7589,-1.7589,-1.7589,-1.7589,-1.7589,-1.7589,-1.7589,-1.7589,-1.7589,-1.7589,-1.7589,-1.7589,-1.7589,-1.7589,-1.7589,-1.7589,-1.7589,-1.7589,-1.7589,-1.7589,-1.7589,-1.7589,-1.7589,-1.7589,-1.7589,-2.8351,-2.8179,-2.8179,-2.7938,-2.736,-2.6396,-2.5717,-2.5285,-2.4262,-2.358,-2.3135,-2.3144,-2.3144,-2.3154,-2.3242,-2.3408,-2.374,-2.4199,-2.4609,-2.5,-2.5391,-2.5635,-2.5635,-2.543,-2.5137,-2.4932,-2.4637,-2.444,-2.4161,-2.4161,-2.4161,-2.4053,-2.3854,-2.3447,-2.3229,-2.2224,-2.1318,-2.0617,-2.0197,-1.9783,-1.9264,-1.8632,-1.8325,-1.801,-1.7793,-1.7589,-1.7589,-1.7589,-1.7589,-1.7589,-1.7589,-1.7589,-1.7589,-1.7589,-1.7589,-1.7589,-1.7589,-1.7589,-1.7589,-1.7589,-1.7589,-1.7589,-1.7589,-1.7589,-1.7589,-1.7589,-1.7589,-1.7589,-1.7589,-1.7589,-1.7589,-1.7589,-1.7589,-1.7589,-1.7589,-1.7589,-1.7589,-1.7589,-1.7589,-1.7589,-1.7589,-1.7589,-1.7589,-1.7589,-1.7589,-1.7589,-1.7589,-1.7589,-1.7589,-1.7589,-1.7589,-1.7589,-1.7589,-1.7589,-1.7589,-1.7589,-1.7589,-1.7589,-1.7589,-1.7589,-1.7589,-1.7589,-1.7589,-1.7589,-1.7589,-1.7589,-1.7589,-1.7589,-1.7589,-1.7589,-1.7589,-1.7589,-1.7589,-1.7589,-1.7589,-2.8339,-2.8179,-2.7846,-2.7534,-2.7044,-2.6373,-2.5874,-2.5369,-2.4337,-2.357,-2.3135,-2.3144,-2.3144,-2.3144,-2.3144,-2.3242,-2.3418,-2.3809,-2.4228,-2.4668,-2.5127,-2.5469,-2.5538,-2.543,-2.5128,-2.4932,-2.4637,-2.4341,-2.4161,-2.4161,-2.4161,-2.4053,-2.3447,-2.2736,-2.2232,-2.142,-2.0719,-1.9894,-1.9583,-1.9272,-1.8743,-1.8325,-1.8122,-1.801,-1.7694,-1.7589,-1.7589,-1.7589,-1.7589,-1.7589,-1.7589,-1.7589,-1.7589,-1.7589,-1.7589,-1.7589,-1.7589,-1.7589,-1.7589,-1.7589,-1.7589,-1.7589,-1.7589,-1.7589,-1.7589,-1.7589,-1.7589,-1.7589,-1.7589,-1.7589,-1.7589,-1.7589,-1.7589,-1.7589,-1.7589,-1.7589,-1.7589,-1.7589,-1.7589,-1.7589,-1.7589,-1.7589,-1.7589,-1.7589,-1.7589,-1.7589,-1.7589,-1.7589,-1.7589,-1.7589,-1.7589,-1.7589,-1.7589,-1.7589,-1.7589,-1.7589,-1.7589,-1.7589,-1.7589,-1.7589,-1.7589,-1.7589,-1.7589,-1.7589,-1.7589,-1.7589,-1.7589,-1.7589,-1.7589,-1.7589,-1.7589,-1.7589,-1.7589,-1.7589,-1.7589,-2.8351,-2.803,-2.7684,-2.7196,-2.6633,-2.6113,-2.5611,-2.485,-2.41,-2.358,-2.3144,-2.3144,-2.3144,-2.3144,-2.3144,-2.3144,-2.3193,-2.3594,-2.4023,-2.4434,-2.4873,-2.5226,-2.5421,-2.5342,-2.503,-2.4726,-2.4538,-2.4251,-2.4161,-2.4161,-2.4053,-2.3746,-2.3038,-2.2333,-2.1623,-2.0814,-2.0205,-1.948,-1.9175,-1.8855,-1.8429,-1.8115,-1.8016,-1.7799,-1.7694,-1.7589,-1.7589,-1.7589,-1.7589,-1.7589,-1.7589,-1.7589,-1.7589,-1.7589,-1.7589,-1.7589,-1.7589,-1.7589,-1.7589,-1.7589,-1.7589,-1.7589,-1.7589,-1.7589,-1.7589,-1.7589,-1.7589,-1.7589,-1.7589,-1.7589,-1.7589,-1.7589,-1.7589,-1.7589,-1.7589,-1.7589,-1.7589,-1.7589,-1.7589,-1.7589,-1.7589,-1.7589,-1.7589,-1.7589,-1.7589,-1.7589,-1.7589,-1.7589,-1.7589,-1.7589,-1.7589,-1.7589,-1.7589,-1.7589,-1.7589,-1.7589,-1.7589,-1.7589,-1.7589,-1.7589,-1.7589,-1.7589,-1.7589,-1.7589,-1.7589,-1.7589,-1.7589,-1.7589,-1.7589,-1.7589,-1.7589,-1.7589,-1.7589,-1.7589,-1.7589,-2.8283,-2.7881,-2.7603,-2.7021,-2.6185,-2.5695,-2.485,-2.3841,-2.3831,-2.358,-2.3144,-2.3144,-2.3144,-2.3144,-2.3144,-2.3184,-2.3271,-2.3643,-2.4072,-2.4473,-2.4912,-2.5131,-2.5208,-2.5039,-2.4833,-2.4538,-2.435,-2.4251,-2.4161,-2.4161,-2.3954,-2.3546,-2.3138,-2.2224,-2.1318,-2.0609,-1.9791,-1.9175,-1.8862,-1.8541,-1.8122,-1.7911,-1.7806,-1.7694,-1.7589,-1.7589,-1.7589,-1.7589,-1.7589,-1.7589,-1.7589,-1.7589,-1.7589,-1.7589,-1.7589,-1.7589,-1.7589,-1.7589,-1.7589,-1.7589,-1.7589,-1.7589,-1.7589,-1.7589,-1.7589,-1.7589,-1.7589,-1.7589,-1.7589,-1.7589,-1.7589,-1.7589,-1.7589,-1.7589,-1.7589,-1.7589,-1.7589,-1.7589,-1.7589,-1.7589,-1.7589,-1.7589,-1.7589,-1.7589,-1.7589,-1.7589,-1.7589,-1.7589,-1.7589,-1.7589,-1.7589,-1.7589,-1.7589,-1.7589,-1.7589,-1.7589,-1.7589,-1.7589,-1.7589,-1.7589,-1.7589,-1.7589,-1.7589,-1.7589,-1.7589,-1.7589,-1.7589,-1.7589,-1.7589,-1.7589,-1.7589,-1.7589,-1.7589,-1.7589,-1.7589,-2.8351,-2.8111,-2.7684,-2.7103,-2.6362,-2.5443,-2.4615,-2.3831,-2.3754,-2.3484,-2.3144,-2.3144,-2.3144,-2.3144,-2.3144,-2.333,-2.3545,-2.3818,-2.4297,-2.4687,-2.499,-2.515,-2.5198,-2.5039,-2.4735,-2.4538,-2.435,-2.4161,-2.4161,-2.4161,-2.4053,-2.3646,-2.3138,-2.2325,-2.1522,-2.0712,-1.968,-1.8855,-1.8646,-1.822,-1.7905,-1.7799,-1.7694,-1.7589,-1.7589,-1.7589,-1.7589,-1.7589,-1.7589,-1.7589,-1.7589,-1.7589,-1.7589,-1.7589,-1.7589,-1.7589,-1.7589,-1.7589,-1.7589,-1.7589,-1.7589,-1.7589,-1.7589,-1.7589,-1.7589,-1.7589,-1.7589,-1.7589,-1.7589,-1.7589,-1.7589,-1.7589,-1.7589,-1.7589,-1.7589,-1.7589,-1.7589,-1.7589,-1.7589,-1.7589,-1.7589,-1.7589,-1.7589,-1.7589,-1.7589,-1.7589,-1.7589,-1.7589,-1.7589,-1.7589,-1.7589,-1.7589,-1.7589,-1.7589,-1.7589,-1.7589,-1.7589,-1.7589,-1.7589,-1.7589,-1.7589,-1.7589,-1.7589,-1.7589,-1.7589,-1.7589,-1.7589,-1.7589,-1.7589,-1.7589,-1.7589,-1.7589,-1.7589,-1.7589,-1.7589,-2.8431,-2.8179,-2.7777,-2.7196,-2.6279,-2.5443,-2.4605,-2.41,-2.3841,-2.358,-2.3144,-2.3144,-2.3144,-2.3184,-2.333,-2.3545,-2.376,-2.4014,-2.4424,-2.4863,-2.5088,-2.5073,-2.5101,-2.4932,-2.4745,-2.444,-2.4242,-2.4161,-2.4161,-2.4152,-2.4044,-2.3746,-2.3229,-2.2526,-2.1623,-2.0814,-1.9783,-1.8945,-1.8318,-1.8003,-1.7793,-1.7589,-1.7589,-1.7589,-1.7589,-1.7589,-1.7589,-1.7589,-1.7589,-1.7589,-1.7589,-1.7589,-1.7589,-1.7589,-1.7589,-1.7589,-1.7589,-1.7589,-1.7589,-1.7589,-1.7589,-1.7589,-1.7589,-1.7589,-1.7589,-1.7589,-1.7589,-1.7589,-1.7589,-1.7589,-1.7589,-1.7589,-1.7589,-1.7589,-1.7589,-1.7589,-1.7589,-1.7589,-1.7589,-1.7589,-1.7589,-1.7589,-1.7589,-1.7589,-1.7589,-1.7589,-1.7589,-1.7589,-1.7589,-1.7589,-1.7589,-1.7589,-1.7589,-1.7589,-1.7589,-1.7589,-1.7589,-1.7589,-1.7589,-1.7589,-1.7589,-1.7589,-1.7589,-1.7589,-1.7589,-1.7589,-1.7589,-1.7589,-1.7589,-1.7589,-1.7589,-1.7589,-1.7589,-1.7589,-1.7589,-2.8431,-2.8179,-2.795,-2.729,-2.6279,-2.5611,-2.5031,-2.455,-2.4161,-2.364,-2.331,-2.3203,-2.3281,-2.3565,-2.3701,-2.3906,-2.4131,-2.4365,-2.4707,-2.5117,-2.5215,-2.5237,-2.5032,-2.4833,-2.4646,-2.4341,-2.4251,-2.4161,-2.4161,-2.4152,-2.4053,-2.3746,-2.3438,-2.2636,-2.153,-2.1019,-1.9983,-1.884,-1.8422,-1.8108,-1.7793,-1.7589,-1.7589,-1.7589,-1.7589,-1.7589,-1.7589,-1.7589,-1.7589,-1.7589,-1.7589,-1.7589,-1.7589,-1.7589,-1.7589,-1.7589,-1.7589,-1.7589,-1.7589,-1.7589,-1.7589,-1.7589,-1.7589,-1.7589,-1.7589,-1.7589,-1.7589,-1.7589,-1.7589,-1.7589,-1.7589,-1.7589,-1.7589,-1.7589,-1.7589,-1.7589,-1.7589,-1.7589,-1.7589,-1.7589,-1.7589,-1.7589,-1.7589,-1.7589,-1.7589,-1.7589,-1.7589,-1.7589,-1.7589,-1.7589,-1.7589,-1.7589,-1.7589,-1.7589,-1.7589,-1.7589,-1.7589,-1.7589,-1.7589,-1.7589,-1.7589,-1.7589,-1.7589,-1.7589,-1.7589,-1.7589,-1.7589,-1.7589,-1.7589,-1.7589,-1.7589,-1.7589,-1.7589,-1.7589,-1.7589,-2.8498,-2.8351,-2.8042,-2.7464,-2.6715,-2.6196,-2.5527,-2.4817,-2.4892,-2.4578,-2.4167,-2.4019,-2.4068,-2.4315,-2.4271,-2.4385,-2.479,-2.4814,-2.5166,-2.541,-2.5518,-2.5324,-2.5206,-2.4932,-2.4735,-2.444,-2.4341,-2.4097,-2.4024,-2.407,-2.4035,-2.3728,-2.3302,-2.2475,-2.153,-2.1019,-1.999,-1.8729,-1.8422,-1.8108,-1.7694,-1.7589,-1.7589,-1.7589,-1.7589,-1.7589,-1.7589,-1.7589,-1.7589,-1.7589,-1.7589,-1.7589,-1.7589,-1.7589,-1.7589,-1.7589,-1.7589,-1.7589,-1.7589,-1.7589,-1.7589,-1.7589,-1.7589,-1.7589,-1.7589,-1.7589,-1.7589,-1.7589,-1.7589,-1.7589,-1.7589,-1.7589,-1.7589,-1.7589,-1.7589,-1.7589,-1.7589,-1.7589,-1.7589,-1.7589,-1.7589,-1.7589,-1.7589,-1.7589,-1.7589,-1.7589,-1.7589,-1.7589,-1.7589,-1.7589,-1.7589,-1.7589,-1.7589,-1.7589,-1.7589,-1.7589,-1.7589,-1.7589,-1.7589,-1.7589,-1.7589,-1.7589,-1.7589,-1.7589,-1.7589,-1.7589,-1.7589,-1.7589,-1.7589,-1.7589,-1.7589,-1.7589,-1.7589,-1.7589,-1.7589,-2.8162,-2.8107,-2.8108,-2.78,-2.7301,-2.6715,-2.6124,-2.5654,-2.538,-2.5382,-2.5471,-2.4996,-2.4776,-2.4963,-2.4898,-2.4982,-2.5307,-2.5379,-2.5459,-2.5664,-2.5635,-2.5509,-2.5333,-2.5001,-2.4726,-2.451,-2.4012,-2.3813,-2.3712,-2.362,-2.3514,-2.3439,-2.2883,-2.2255,-2.1558,-2.0814,-1.9872,-1.8617,-1.852,-1.8108,-1.7694,-1.7589,-1.7589,-1.7589,-1.7589,-1.7589,-1.7589,-1.7589,-1.7589,-1.7589,-1.7589,-1.7589,-1.7589,-1.7589,-1.7589,-1.7589,-1.7589,-1.7589,-1.7589,-1.7589,-1.7589,-1.7589,-1.7589,-1.7589,-1.7589,-1.7589,-1.7589,-1.7589,-1.7589,-1.7589,-1.7589,-1.7589,-1.7589,-1.7589,-1.7589,-1.7589,-1.7589,-1.7589,-1.7589,-1.7589,-1.7589,-1.7589,-1.7589,-1.7589,-1.7589,-1.7589,-1.7589,-1.7589,-1.7589,-1.7589,-1.7589,-1.7589,-1.7589,-1.7589,-1.7589,-1.7589,-1.7589,-1.7589,-1.7589,-1.7589,-1.7589,-1.7589,-1.7589,-1.7589,-1.7589,-1.7589,-1.7589,-1.7589,-1.7589,-1.7589,-1.7589,-1.7589,-1.7589,-1.7589,-1.7589,-2.7609,-2.7615,-2.7937,-2.8004,-2.7799,-2.729,-2.688,-2.6467,-2.595,-2.6163,-2.6635,-2.5802,-2.5473,-2.5573,-2.5618,-2.556,-2.5645,-2.569,-2.5781,-2.5723,-2.5732,-2.5528,-2.5189,-2.4916,-2.4519,-2.4078,-2.368,-2.3327,-2.3021,-2.303,-2.3062,-2.2946,-2.2469,-2.1875,-2.1249,-2.0538,-1.9686,-1.8819,-1.8318,-1.8108,-1.7799,-1.7589,-1.7589,-1.7589,-1.7589,-1.7589,-1.7589,-1.7589,-1.7589,-1.7589,-1.7589,-1.7589,-1.7589,-1.7589,-1.7589,-1.7589,-1.7589,-1.7589,-1.7589,-1.7589,-1.7589,-1.7589,-1.7589,-1.7589,-1.7589,-1.7589,-1.7589,-1.7589,-1.7589,-1.7589,-1.7589,-1.7589,-1.7589,-1.7589,-1.7589,-1.7589,-1.7589,-1.7589,-1.7589,-1.7589,-1.7589,-1.7589,-1.7589,-1.7589,-1.7589,-1.7589,-1.7589,-1.7589,-1.7589,-1.7589,-1.7589,-1.7589,-1.7589,-1.7589,-1.7589,-1.7589,-1.7589,-1.7589,-1.7589,-1.7589,-1.7589,-1.7589,-1.7589,-1.7589,-1.7589,-1.7589,-1.7589,-1.7589,-1.7589,-1.7589,-1.7589,-1.7589,-1.7589,-1.7589,-1.7589,-2.7091,-2.714,-2.7579,-2.7717,-2.7542,-2.7601,-2.7464,-2.709,-2.6954,-2.6926,-2.6878,-2.6941,-2.6854,-2.6878,-2.6666,-2.6411,-2.5978,-2.5954,-2.579,-2.5732,-2.5576,-2.542,-2.5092,-2.4612,-2.3935,-2.3463,-2.3116,-2.3024,-2.2637,-2.272,-2.2771,-2.2577,-2.2187,-2.159,-2.0915,-2.0217,-1.9623,-1.8704,-1.8304,-1.8108,-1.7793,-1.7582,-1.7589,-1.7589,-1.7589,-1.7589,-1.7589,-1.7589,-1.7589,-1.7589,-1.7589,-1.7589,-1.7589,-1.7589,-1.7589,-1.7589,-1.7589,-1.7589,-1.7589,-1.7589,-1.7589,-1.7589,-1.7589,-1.7589,-1.7589,-1.7589,-1.7589,-1.7589,-1.7589,-1.7589,-1.7589,-1.7589,-1.7589,-1.7589,-1.7589,-1.7589,-1.7589,-1.7589,-1.7589,-1.7589,-1.7589,-1.7589,-1.7589,-1.7589,-1.7589,-1.7589,-1.7589,-1.7589,-1.7589,-1.7589,-1.7589,-1.7589,-1.7589,-1.7589,-1.7589,-1.7589,-1.7589,-1.7589,-1.7589,-1.7589,-1.7589,-1.7589,-1.7589,-1.7589,-1.7589,-1.7589,-1.7589,-1.7589,-1.7589,-1.7589,-1.7589,-1.7589,-1.7589,-1.7589,-1.7589]},{"header":{"parameterUnit":"m.s-1","parameterCategory":1,"la1":31.0,"la2":29.5877,"lo1":-88.7671,"lo2":-86.6584,"dy":0.0162,"dx":0.0185,"nx":115,"ny":88,"refTime":"2023-08-08T00:00:00:Z","depth":0,"parameterNumber":3,"parameterNumberName":"V-component_of_WINDS"},"data":[0.0,0.0,0.0,0.0,0.0,0.0,0.0,0.0,0.0,0.0,0.0,0.0,0.0,0.0,0.0,0.0,0.0,0.0,0.0,0.0,0.0,0.0,0.0,0.0,0.0,0.0,0.0,0.0,0.0,0.0,0.0,0.0,0.0,0.0,0.0,0.0,0.0,0.0,0.0,0.0,0.0,0.0,0.0,0.0,0.0,0.0,0.0,0.0,0.0,0.0,0.0,0.0,0.0,0.0,0.0,0.0,0.0,0.0,0.0,0.0,0.0,0.0,0.0,0.0,0.0,0.0,0.0,0.0,0.0,0.0,0.0,0.0,0.0,0.0,0.0,0.0,0.0,0.0,0.0,0.0,0.0,0.0,0.0,0.0,0.0,0.0,0.0,0.0,0.0,0.0,0.0,0.0,0.0,0.0,0.0,0.0,0.0,0.0,0.0,0.0,0.0,0.0,0.0,0.0,0.0,0.0,0.0,0.0,0.0,0.0,0.0,0.0,0.0,0.0,0.0,0.0,0.0,0.0,0.0,0.0,0.0,0.0,0.0,0.0,0.0,0.0,0.0,0.0,0.0,0.0,0.0,0.0,0.0,0.0,0.0,0.0,0.0,0.0,0.0,0.0,0.0,0.0,0.0,0.0,0.0,0.0,0.0,0.0,0.0,0.0,0.0,0.0,0.0,0.0,0.0,0.0,0.0,0.0,0.0,0.0,0.0,0.0,0.0,0.0,0.0,0.0,0.0,0.0,0.0,0.0,0.0,0.0,0.0,0.0,0.0,0.0,0.0,0.0,0.0,0.0,0.0,0.0,0.0,0.0,0.0,0.0,0.0,0.0,0.0,0.0,0.0,0.0,0.0,0.0,0.0,0.0,0.0,0.0,0.0,0.0,0.0,0.0,0.0,0.0,0.0,0.0,0.0,0.0,0.0,0.0,0.0,0.0,0.0,0.0,0.0,0.0,0.0,0.0,0.0,0.0,0.0,0.0,0.0,0.0,0.0,0.0,0.0,0.0,0.0,0.0,0.0,0.0,0.0,0.0,0.0,0.0,0.0,0.0,0.0,0.0,0.0,0.0,0.0,0.0,0.0,0.0,0.0,0.0,0.0,0.0,0.0,0.0,0.0,0.0,0.0,0.0,0.0,0.0,0.0,0.0,0.0,0.0,0.0,0.0,0.0,0.0,0.0,0.0,0.0,0.0,0.0,0.0,0.0,0.0,0.0,0.0,0.0,0.0,0.0,0.0,0.0,0.0,0.0,0.0,0.0,0.0,0.0,0.0,0.0,0.0,0.0,0.0,0.0,0.0,0.0,0.0,0.0,0.0,0.0,0.0,0.0,0.0,0.0,0.0,0.0,0.0,0.0,0.0,0.0,0.0,0.0,0.0,0.0,0.0,0.0,0.0,0.0,0.0,0.0,0.0,0.0,0.0,0.0,0.0,0.0,0.0,0.0,0.0,0.0,0.0,0.0,0.0,0.0,0.0,0.0,0.0,0.0,0.0,0.0,0.0,0.0,0.0,0.0,0.0,0.0,0.0,0.0,0.0,0.0,0.0,0.0,0.0,0.0,0.0,0.0,0.0,0.0,0.0,0.0,0.0,0.0,0.0,0.0,0.0,0.0,0.0,0.0,0.0,0.0,0.0,0.0,0.0,0.0,0.0,0.0,0.0,0.0,0.0,0.0,0.0,0.0,0.0,0.0,0.0,0.0,0.0,0.0,0.0,0.0,0.0,0.0,0.0,0.0,0.0,0.0,0.0,0.0,0.0,0.0,0.0,0.0,0.0,0.0,0.0,0.0,0.0,0.0,0.0,0.0,0.0,0.0,0.0,0.0,0.0,0.0,0.0,0.0,0.0,0.0,0.0,0.0,0.0,0.0,0.0,0.0,0.0,0.0,0.0,0.0,0.0,0.0,0.0,0.0,0.0,0.0,0.0,0.0,0.0,0.0,0.0,0.0,0.0,0.0,0.0,0.0,0.0,0.0,0.0,0.0,0.0,0.0,0.0,0.0,0.0,0.0,0.0,0.0,0.0,0.0,0.0,0.0,0.0,0.0,0.0,0.0,0.0,0.0,0.0,0.0,0.0,0.0,0.0,0.0,0.0,0.0,0.0,0.0,0.0,0.0,0.0,0.0,0.0,0.0,0.0,0.0,0.0,0.0,0.0,0.0,0.0,0.0,0.0,0.0,0.0,0.0,0.0,0.0,0.0,0.0,0.0,0.0,0.0,0.0,0.0,0.0,0.0,0.0,0.0,0.0,0.0,0.0,0.0,0.0,0.0,0.0,0.0,0.0,0.0,0.0,0.0,0.0,0.0,0.0,0.0,0.0,0.0,0.0,0.0,0.0,0.0,0.0,0.0,0.0,0.0,0.0,0.0,0.0,0.0,0.0,0.0,0.0,0.0,0.0,0.0,0.0,0.0,0.0,0.0,0.0,0.0,0.0,0.0,0.0,0.0,0.0,0.0,0.0,0.0,0.0,0.0,0.0,0.0,0.0,0.0,0.0,0.0,0.0,0.0,0.0,0.0,0.0,0.0,0.0,0.0,0.0,0.0,0.0,0.0,0.0,0.0,0.0,0.0,0.0,0.0,0.0,0.0,0.0,0.0,0.0,0.0,0.0,0.0,0.0,0.0,0.0,0.0,0.0,0.0,0.0,0.0,0.0,0.0,0.0,0.0,0.0,0.0,0.0,0.0,0.0,0.0,0.0,0.0,0.0,0.0,0.0,0.0,0.0,0.0,0.0,0.0,0.0,0.0,0.0,0.0,0.0,0.0,0.0,0.0,0.0,0.0,0.0,0.0,0.0,0.0,0.0,0.0,0.0,0.0,0.0,0.0,0.0,0.0,0.0,0.0,0.0,0.0,0.0,0.0,0.0,0.0,0.0,0.0,0.0,0.0,0.0,0.0,0.0,0.0,0.0,0.0,0.0,0.0,0.0,0.0,0.0,0.0,0.0,0.0,0.0,0.0,0.0,0.0,0.0,0.0,0.0,0.0,0.0,0.0,0.0,0.0,0.0,0.0,0.0,0.0,0.0,0.0,0.0,0.0,0.0,0.0,0.0,0.0,0.0,0.0,0.0,0.0,0.0,0.0,0.0,0.0,0.0,0.0,0.0,0.0,0.0,0.0,0.0,0.0,0.0,0.0,0.0,0.0,0.0,0.0,0.0,0.0,0.0,0.0,0.0,0.0,0.0,0.0,0.0,0.0,0.0,0.0,0.0,0.0,0.0,0.0,0.0,0.0,0.0,0.0,0.0,0.0,0.0,0.0,0.0,0.0,0.0,0.0,0.0,0.0,0.0,0.0,0.0,0.0,0.0,0.0,0.0,0.0,0.0,0.0,0.0,0.0,0.0,0.0,0.0,0.0,0.0,0.0,0.0,0.0,0.0,0.0,0.0,0.0,0.0,0.0,0.0,0.0,0.0,0.0,0.0,0.0,0.0,0.0,0.0,0.0,0.0,0.0,0.0,0.0,0.0,0.0,0.0,0.0,0.0,0.0,0.0,0.0,0.0,0.0,0.0,0.0,0.0,0.0,0.0,0.0,0.0,0.0,0.0,0.0,0.0,0.0,0.0,0.0,0.0,0.0,0.0,0.0,0.0,0.0,0.0,0.0,0.0,0.0,0.0,0.0,0.0,0.0,0.0,0.0,0.0,0.0,0.0,0.0,0.0,0.0,0.0,0.0,0.0,0.0,0.0,0.0,0.0,0.0,0.0,0.0,0.0,0.0,0.0,0.0,0.0,0.0,0.0,0.0,0.0,0.0,0.0,0.0,0.0,0.0,0.0,0.0,0.0,0.0,0.0,0.0,0.0,0.0,0.0,0.0,0.0,0.0,0.0,0.0,0.0,0.0,0.0,0.0,0.0,0.0,0.0,0.0,0.0,0.0,0.0,0.0,0.0,0.0,0.0,0.0,0.0,0.0,0.0,0.0,0.0,0.0,0.0,0.0,0.0,0.0,0.0,0.0,0.0,0.0,0.0,0.0,0.0,0.0,0.0,0.0,0.0,0.0,0.0,0.0,0.0,0.0,0.0,0.0,0.0,0.0,0.0,0.0,0.0,0.0,0.0,0.0,0.0,0.0,0.0,0.0,0.0,0.0,0.0,0.0,0.0,0.0,0.0,0.0,0.0,0.0,0.0,0.0,0.0,0.0,0.0,0.0,0.0,0.0,0.0,0.0,0.0,0.0,0.0,0.0,0.0,0.0,0.0,0.0,0.0,0.0,0.0,0.0,0.0,0.0,0.0,0.0,0.0,0.0,0.0,0.0,0.0,0.0,-4.2174,0.0,0.0,0.0,0.0,0.0,0.0,0.0,0.0,0.0,0.0,0.0,0.0,0.0,0.0,0.0,0.0,0.0,0.0,0.0,0.0,0.0,0.0,0.0,0.0,0.0,0.0,0.0,0.0,0.0,0.0,0.0,0.0,0.0,0.0,0.0,0.0,0.0,0.0,0.0,0.0,0.0,0.0,0.0,0.0,0.0,0.0,0.0,0.0,0.0,0.0,0.0,0.0,0.0,0.0,0.0,0.0,0.0,0.0,0.0,0.0,0.0,0.0,0.0,0.0,0.0,0.0,0.0,0.0,0.0,0.0,0.0,0.0,0.0,0.0,0.0,0.0,0.0,0.0,0.0,0.0,0.0,0.0,0.0,0.0,0.0,0.0,0.0,0.0,0.0,0.0,0.0,0.0,0.0,0.0,0.0,0.0,0.0,0.0,0.0,0.0,0.0,0.0,0.0,0.0,0.0,0.0,0.0,0.0,0.0,0.0,-4.1785,-4.1654,-4.1785,-4.1785,-4.1654,0.0,0.0,0.0,0.0,0.0,0.0,0.0,0.0,0.0,0.0,0.0,0.0,0.0,0.0,0.0,0.0,0.0,0.0,0.0,0.0,0.0,0.0,0.0,0.0,0.0,0.0,0.0,0.0,0.0,0.0,0.0,0.0,0.0,0.0,0.0,0.0,0.0,0.0,0.0,0.0,0.0,0.0,0.0,0.0,0.0,0.0,0.0,0.0,0.0,0.0,0.0,0.0,0.0,0.0,0.0,0.0,0.0,0.0,0.0,0.0,0.0,0.0,0.0,0.0,0.0,0.0,0.0,0.0,0.0,0.0,0.0,0.0,0.0,0.0,0.0,0.0,0.0,0.0,0.0,0.0,0.0,0.0,0.0,0.0,0.0,0.0,0.0,0.0,0.0,0.0,0.0,0.0,0.0,0.0,0.0,0.0,0.0,0.0,0.0,0.0,0.0,0.0,0.0,0.0,0.0,0.0,0.0,0.0,0.0,0.0,0.0,0.0,-4.1174,-4.1241,-4.1189,0.0,0.0,0.0,0.0,0.0,0.0,0.0,0.0,0.0,0.0,0.0,0.0,0.0,0.0,0.0,0.0,0.0,0.0,0.0,0.0,0.0,0.0,0.0,0.0,0.0,0.0,0.0,0.0,0.0,0.0,0.0,0.0,0.0,0.0,0.0,0.0,0.0,0.0,0.0,0.0,0.0,0.0,0.0,0.0,0.0,0.0,0.0,0.0,0.0,0.0,0.0,0.0,0.0,0.0,0.0,0.0,0.0,0.0,0.0,0.0,0.0,0.0,0.0,0.0,0.0,0.0,0.0,0.0,0.0,0.0,0.0,0.0,0.0,0.0,0.0,0.0,0.0,0.0,0.0,0.0,0.0,0.0,0.0,0.0,0.0,0.0,0.0,0.0,0.0,0.0,0.0,0.0,0.0,0.0,0.0,0.0,0.0,0.0,0.0,0.0,0.0,0.0,0.0,0.0,0.0,0.0,0.0,0.0,0.0,0.0,-4.0478,-4.0285,-4.0355,0.0,-4.0799,0.0,0.0,0.0,0.0,0.0,0.0,0.0,0.0,0.0,0.0,0.0,0.0,0.0,0.0,0.0,0.0,0.0,0.0,0.0,0.0,0.0,0.0,0.0,0.0,0.0,0.0,0.0,0.0,0.0,0.0,0.0,0.0,0.0,0.0,0.0,0.0,0.0,0.0,0.0,0.0,0.0,0.0,0.0,0.0,0.0,0.0,0.0,0.0,0.0,0.0,0.0,0.0,0.0,0.0,0.0,0.0,0.0,0.0,0.0,0.0,0.0,0.0,0.0,0.0,0.0,0.0,0.0,0.0,0.0,0.0,0.0,0.0,0.0,0.0,0.0,0.0,0.0,0.0,0.0,0.0,0.0,0.0,0.0,0.0,0.0,0.0,0.0,0.0,0.0,0.0,0.0,0.0,0.0,0.0,0.0,0.0,0.0,0.0,0.0,0.0,0.0,0.0,0.0,0.0,0.0,0.0,0.0,0.0,0.0,0.0,-3.9793,-3.9364,-3.9349,-3.958,0.0,0.0,0.0,0.0,0.0,0.0,0.0,0.0,0.0,0.0,0.0,0.0,0.0,0.0,0.0,0.0,0.0,0.0,0.0,0.0,0.0,0.0,0.0,0.0,0.0,0.0,0.0,0.0,0.0,0.0,0.0,0.0,0.0,0.0,0.0,0.0,0.0,0.0,0.0,0.0,0.0,0.0,0.0,0.0,0.0,0.0,0.0,0.0,0.0,0.0,0.0,0.0,0.0,0.0,0.0,0.0,0.0,0.0,0.0,0.0,0.0,0.0,0.0,0.0,0.0,0.0,0.0,0.0,0.0,0.0,0.0,0.0,0.0,0.0,0.0,0.0,0.0,0.0,0.0,0.0,0.0,0.0,0.0,0.0,0.0,0.0,0.0,0.0,0.0,0.0,0.0,0.0,0.0,0.0,0.0,0.0,0.0,0.0,0.0,0.0,0.0,0.0,0.0,0.0,0.0,0.0,0.0,0.0,0.0,0.0,-3.961,-3.9104,-3.856,-3.856,-3.8797,-3.9235,0.0,0.0,0.0,0.0,0.0,0.0,0.0,0.0,0.0,0.0,0.0,0.0,0.0,0.0,0.0,0.0,0.0,0.0,0.0,0.0,0.0,0.0,0.0,0.0,0.0,0.0,0.0,0.0,0.0,0.0,0.0,0.0,0.0,0.0,0.0,0.0,0.0,0.0,0.0,0.0,0.0,0.0,0.0,0.0,0.0,0.0,0.0,0.0,0.0,0.0,0.0,0.0,0.0,0.0,0.0,0.0,0.0,0.0,0.0,0.0,0.0,0.0,0.0,0.0,0.0,0.0,0.0,0.0,0.0,0.0,0.0,0.0,0.0,0.0,0.0,0.0,0.0,0.0,0.0,0.0,0.0,0.0,0.0,0.0,0.0,0.0,0.0,0.0,0.0,0.0,0.0,0.0,0.0,0.0,0.0,0.0,0.0,0.0,0.0,0.0,0.0,0.0,0.0,0.0,0.0,0.0,0.0,0.0,-3.9409,-3.89,-3.8352,-3.7947,-3.7947,-3.8037,0.0,0.0,0.0,0.0,0.0,0.0,0.0,0.0,0.0,0.0,0.0,0.0,0.0,0.0,0.0,0.0,0.0,0.0,0.0,0.0,0.0,0.0,0.0,0.0,0.0,0.0,0.0,0.0,0.0,0.0,0.0,0.0,0.0,0.0,0.0,0.0,0.0,0.0,0.0,0.0,0.0,0.0,0.0,0.0,0.0,0.0,0.0,0.0,0.0,0.0,0.0,0.0,0.0,0.0,0.0,0.0,0.0,0.0,0.0,0.0,0.0,0.0,0.0,0.0,0.0,0.0,0.0,0.0,0.0,0.0,0.0,0.0,0.0,0.0,0.0,0.0,0.0,0.0,0.0,0.0,0.0,0.0,0.0,0.0,0.0,0.0,0.0,0.0,0.0,0.0,0.0,0.0,0.0,0.0,0.0,0.0,0.0,0.0,0.0,0.0,0.0,0.0,0.0,0.0,0.0,0.0,0.0,0.0,0.0,-3.9017,-3.8202,-3.7763,-3.7687,-3.7596,-3.7596,0.0,0.0,0.0,0.0,0.0,0.0,0.0,0.0,0.0,0.0,0.0,0.0,0.0,0.0,0.0,0.0,0.0,0.0,0.0,0.0,0.0,0.0,0.0,0.0,0.0,0.0,0.0,0.0,0.0,0.0,0.0,0.0,0.0,0.0,0.0,0.0,0.0,0.0,0.0,0.0,0.0,0.0,0.0,0.0,0.0,0.0,0.0,0.0,0.0,0.0,0.0,0.0,0.0,0.0,0.0,0.0,0.0,0.0,0.0,0.0,0.0,0.0,0.0,0.0,0.0,0.0,0.0,0.0,0.0,0.0,0.0,0.0,0.0,0.0,0.0,0.0,0.0,0.0,0.0,0.0,0.0,0.0,0.0,0.0,0.0,0.0,0.0,0.0,0.0,0.0,0.0,0.0,0.0,0.0,0.0,0.0,0.0,0.0,0.0,0.0,0.0,0.0,0.0,0.0,0.0,0.0,0.0,0.0,0.0,-3.8412,0.0,-3.7303,-3.738,-3.7303,-3.7303,0.0,0.0,0.0,0.0,0.0,0.0,0.0,0.0,0.0,0.0,0.0,0.0,0.0,0.0,0.0,0.0,0.0,0.0,0.0,0.0,0.0,0.0,0.0,0.0,0.0,0.0,0.0,0.0,0.0,0.0,0.0,0.0,0.0,0.0,0.0,0.0,0.0,0.0,0.0,0.0,0.0,0.0,0.0,0.0,0.0,0.0,0.0,0.0,0.0,0.0,0.0,0.0,0.0,0.0,0.0,0.0,0.0,0.0,0.0,0.0,0.0,0.0,0.0,0.0,0.0,0.0,0.0,0.0,0.0,0.0,0.0,0.0,0.0,0.0,0.0,0.0,0.0,0.0,0.0,0.0,0.0,0.0,0.0,0.0,0.0,0.0,0.0,0.0,0.0,0.0,0.0,0.0,0.0,0.0,0.0,0.0,0.0,0.0,0.0,0.0,0.0,0.0,0.0,0.0,0.0,0.0,0.0,0.0,-3.859,-3.761,-3.738,-3.7226,-3.6993,-3.6978,-3.6993,0.0,0.0,0.0,0.0,0.0,0.0,0.0,0.0,0.0,0.0,0.0,0.0,0.0,0.0,0.0,0.0,0.0,0.0,0.0,0.0,0.0,0.0,0.0,0.0,0.0,0.0,0.0,0.0,0.0,0.0,0.0,0.0,0.0,0.0,0.0,0.0,0.0,0.0,0.0,0.0,0.0,0.0,0.0,0.0,0.0,0.0,0.0,0.0,0.0,0.0,0.0,0.0,0.0,0.0,0.0,0.0,0.0,0.0,0.0,0.0,0.0,0.0,0.0,0.0,0.0,0.0,0.0,0.0,0.0,0.0,0.0,0.0,0.0,0.0,0.0,0.0,0.0,0.0,0.0,0.0,0.0,0.0,0.0,0.0,0.0,0.0,0.0,0.0,0.0,0.0,0.0,0.0,0.0,0.0,0.0,0.0,0.0,0.0,0.0,0.0,0.0,0.0,0.0,0.0,0.0,0.0,0.0,0.0,0.0,-3.738,-3.7226,-3.7056,-3.6978,-3.6978,-3.6978,0.0,0.0,0.0,0.0,0.0,0.0,0.0,0.0,0.0,0.0,0.0,0.0,0.0,0.0,0.0,0.0,0.0,0.0,0.0,0.0,0.0,0.0,0.0,0.0,0.0,0.0,0.0,0.0,0.0,0.0,0.0,0.0,0.0,0.0,0.0,0.0,0.0,0.0,0.0,0.0,0.0,0.0,0.0,0.0,0.0,0.0,0.0,0.0,0.0,0.0,0.0,0.0,0.0,0.0,0.0,0.0,0.0,0.0,0.0,0.0,0.0,0.0,0.0,0.0,0.0,0.0,0.0,0.0,0.0,0.0,0.0,0.0,0.0,0.0,0.0,0.0,0.0,0.0,0.0,0.0,0.0,0.0,0.0,0.0,0.0,0.0,0.0,0.0,0.0,0.0,0.0,0.0,0.0,0.0,0.0,0.0,0.0,0.0,0.0,0.0,0.0,0.0,0.0,0.0,0.0,0.0,0.0,0.0,0.0,-3.7226,-3.7056,-3.6978,-3.6978,-3.6978,-3.6978,-3.6978,0.0,0.0,0.0,0.0,0.0,0.0,0.0,0.0,0.0,0.0,0.0,0.0,0.0,0.0,0.0,0.0,0.0,0.0,0.0,0.0,0.0,0.0,0.0,0.0,0.0,0.0,0.0,0.0,0.0,0.0,0.0,0.0,0.0,0.0,0.0,0.0,0.0,0.0,0.0,0.0,0.0,0.0,0.0,0.0,0.0,0.0,0.0,0.0,0.0,0.0,0.0,0.0,0.0,0.0,0.0,0.0,0.0,0.0,0.0,0.0,0.0,0.0,0.0,0.0,0.0,0.0,0.0,0.0,0.0,0.0,0.0,0.0,0.0,0.0,0.0,0.0,0.0,0.0,0.0,0.0,0.0,0.0,0.0,0.0,0.0,0.0,0.0,0.0,0.0,0.0,0.0,0.0,0.0,0.0,0.0,0.0,0.0,0.0,0.0,0.0,0.0,0.0,0.0,0.0,0.0,0.0,0.0,0.0,-3.6978,-3.6978,-3.6978,-3.6978,-3.6978,-3.6978,0.0,0.0,0.0,0.0,0.0,0.0,0.0,0.0,0.0,0.0,0.0,0.0,0.0,0.0,0.0,0.0,0.0,0.0,0.0,0.0,0.0,0.0,0.0,0.0,0.0,0.0,0.0,0.0,0.0,0.0,0.0,0.0,0.0,0.0,0.0,0.0,0.0,0.0,0.0,0.0,0.0,0.0,0.0,0.0,0.0,0.0,0.0,0.0,0.0,0.0,0.0,0.0,0.0,0.0,0.0,0.0,0.0,0.0,0.0,0.0,0.0,0.0,0.0,0.0,0.0,0.0,0.0,0.0,0.0,0.0,0.0,0.0,0.0,0.0,0.0,0.0,0.0,0.0,0.0,0.0,0.0,0.0,0.0,0.0,0.0,0.0,0.0,0.0,0.0,0.0,0.0,0.0,0.0,0.0,0.0,0.0,0.0,0.0,0.0,0.0,0.0,0.0,0.0,0.0,0.0,0.0,0.0,0.0,0.0,-3.6993,-3.6978,-3.6978,-3.6978,-3.6978,-3.6978,0.0,0.0,0.0,0.0,0.0,0.0,0.0,0.0,0.0,0.0,0.0,0.0,0.0,0.0,0.0,0.0,0.0,0.0,0.0,0.0,0.0,0.0,0.0,0.0,0.0,0.0,0.0,0.0,0.0,0.0,0.0,0.0,0.0,0.0,0.0,0.0,0.0,0.0,0.0,0.0,0.0,0.0,0.0,0.0,0.0,0.0,0.0,0.0,0.0,0.0,0.0,0.0,0.0,0.0,0.0,0.0,0.0,0.0,0.0,0.0,0.0,0.0,0.0,0.0,0.0,0.0,0.0,0.0,0.0,0.0,0.0,0.0,0.0,0.0,0.0,0.0,0.0,0.0,0.0,0.0,0.0,0.0,0.0,0.0,0.0,0.0,0.0,0.0,0.0,0.0,0.0,0.0,0.0,0.0,0.0,0.0,0.0,0.0,0.0,0.0,0.0,0.0,0.0,0.0,0.0,0.0,0.0,0.0,-3.7226,-3.6978,-3.6978,-3.6978,-3.6978,-3.6978,-3.6978,0.0,0.0,0.0,0.0,0.0,0.0,0.0,0.0,0.0,0.0,0.0,0.0,0.0,0.0,0.0,0.0,0.0,0.0,0.0,0.0,0.0,0.0,0.0,0.0,0.0,0.0,0.0,0.0,0.0,0.0,0.0,0.0,0.0,0.0,0.0,0.0,0.0,0.0,0.0,0.0,0.0,0.0,0.0,0.0,0.0,0.0,0.0,0.0,0.0,0.0,0.0,0.0,0.0,0.0,0.0,0.0,0.0,0.0,0.0,0.0,0.0,0.0,0.0,0.0,0.0,0.0,0.0,0.0,0.0,0.0,0.0,0.0,0.0,0.0,0.0,0.0,0.0,0.0,0.0,0.0,0.0,0.0,0.0,0.0,0.0,0.0,0.0,0.0,0.0,0.0,0.0,0.0,0.0,0.0,0.0,0.0,0.0,0.0,0.0,0.0,0.0,0.0,0.0,0.0,0.0,0.0,0.0,0.0,-3.7148,-3.6993,-3.6978,-3.6978,-3.6978,-3.6978,-3.6978,0.0,0.0,0.0,0.0,0.0,0.0,0.0,0.0,0.0,0.0,0.0,0.0,0.0,0.0,0.0,0.0,0.0,0.0,0.0,0.0,0.0,0.0,0.0,0.0,0.0,0.0,0.0,0.0,0.0,0.0,0.0,0.0,0.0,0.0,0.0,0.0,0.0,0.0,0.0,0.0,0.0,0.0,0.0,0.0,0.0,0.0,0.0,0.0,0.0,0.0,0.0,0.0,0.0,0.0,0.0,0.0,0.0,0.0,0.0,0.0,0.0,0.0,0.0,0.0,0.0,0.0,0.0,0.0,0.0,0.0,0.0,0.0,0.0,0.0,0.0,0.0,0.0,0.0,0.0,0.0,0.0,0.0,0.0,0.0,0.0,0.0,0.0,0.0,0.0,0.0,0.0,0.0,0.0,0.0,0.0,0.0,0.0,0.0,0.0,0.0,0.0,0.0,0.0,0.0,0.0,0.0,0.0,0.0,-3.707,-3.6993,-3.6978,-3.6978,-3.6978,-3.6978,-3.6978,0.0,0.0,0.0,0.0,0.0,0.0,0.0,0.0,0.0,0.0,0.0,0.0,0.0,0.0,0.0,0.0,0.0,0.0,0.0,0.0,0.0,0.0,0.0,0.0,0.0,0.0,0.0,0.0,0.0,0.0,0.0,0.0,0.0,0.0,0.0,0.0,0.0,0.0,0.0,0.0,0.0,0.0,0.0,0.0,0.0,0.0,0.0,0.0,-3.998,0.0,0.0,0.0,0.0,0.0,0.0,0.0,0.0,0.0,0.0,0.0,0.0,0.0,0.0,0.0,0.0,0.0,0.0,0.0,0.0,0.0,0.0,0.0,0.0,0.0,0.0,0.0,0.0,0.0,0.0,0.0,0.0,0.0,0.0,0.0,0.0,0.0,0.0,0.0,0.0,0.0,0.0,0.0,0.0,0.0,0.0,0.0,0.0,0.0,0.0,0.0,0.0,0.0,0.0,0.0,0.0,0.0,0.0,0.0,-3.6978,-3.6978,-3.6978,-3.6978,-3.6978,-3.6978,-3.7119,0.0,0.0,0.0,0.0,0.0,0.0,0.0,0.0,0.0,0.0,0.0,0.0,0.0,0.0,0.0,0.0,0.0,0.0,0.0,0.0,0.0,0.0,0.0,0.0,0.0,0.0,0.0,0.0,0.0,0.0,0.0,0.0,0.0,0.0,0.0,0.0,0.0,0.0,0.0,0.0,0.0,0.0,0.0,0.0,0.0,0.0,0.0,0.0,0.0,0.0,0.0,0.0,0.0,0.0,0.0,0.0,0.0,0.0,0.0,0.0,0.0,0.0,0.0,0.0,0.0,0.0,0.0,0.0,0.0,0.0,0.0,0.0,0.0,0.0,0.0,0.0,0.0,0.0,0.0,0.0,0.0,0.0,0.0,0.0,0.0,0.0,0.0,0.0,0.0,0.0,0.0,0.0,0.0,0.0,0.0,0.0,0.0,0.0,0.0,0.0,0.0,0.0,0.0,0.0,0.0,0.0,0.0,-3.6978,-3.6978,-3.6978,-3.6978,-3.6978,-3.6978,-3.7077,-3.7414,-3.8098,0.0,0.0,0.0,0.0,0.0,0.0,0.0,0.0,0.0,0.0,0.0,0.0,0.0,0.0,0.0,0.0,0.0,0.0,0.0,0.0,0.0,0.0,0.0,0.0,0.0,0.0,0.0,0.0,0.0,0.0,0.0,0.0,0.0,0.0,0.0,0.0,0.0,0.0,-4.1339,-4.1153,0.0,0.0,0.0,0.0,0.0,0.0,0.0,0.0,-3.9397,0.0,0.0,0.0,0.0,0.0,0.0,0.0,0.0,0.0,0.0,0.0,0.0,0.0,0.0,0.0,0.0,0.0,0.0,0.0,0.0,0.0,0.0,0.0,0.0,0.0,0.0,0.0,0.0,0.0,0.0,0.0,0.0,0.0,0.0,0.0,0.0,0.0,0.0,0.0,0.0,0.0,0.0,0.0,0.0,0.0,0.0,0.0,0.0,0.0,0.0,0.0,0.0,0.0,0.0,0.0,0.0,-3.6978,-3.6978,-3.6978,-3.6978,-3.6978,-3.6978,-3.6993,-3.7484,-3.8126,-3.8908,0.0,0.0,0.0,0.0,0.0,0.0,0.0,0.0,0.0,0.0,0.0,0.0,0.0,0.0,0.0,0.0,0.0,0.0,0.0,0.0,0.0,0.0,0.0,0.0,0.0,0.0,0.0,0.0,0.0,0.0,0.0,0.0,0.0,0.0,0.0,0.0,0.0,0.0,0.0,-4.095,-4.0882,0.0,0.0,0.0,0.0,0.0,0.0,0.0,0.0,-3.9847,0.0,0.0,0.0,0.0,0.0,0.0,0.0,0.0,0.0,0.0,0.0,0.0,0.0,0.0,0.0,0.0,0.0,0.0,0.0,0.0,0.0,0.0,0.0,0.0,0.0,0.0,0.0,0.0,0.0,0.0,0.0,0.0,0.0,0.0,0.0,0.0,0.0,0.0,0.0,0.0,0.0,0.0,0.0,0.0,0.0,0.0,0.0,0.0,0.0,0.0,0.0,0.0,0.0,0.0,0.0,-3.7148,-3.707,-3.6978,-3.6993,-3.7302,-3.7456,-3.7484,-3.8154,-3.8936,0.0,0.0,0.0,0.0,0.0,0.0,0.0,0.0,0.0,0.0,0.0,0.0,0.0,0.0,0.0,0.0,0.0,0.0,0.0,0.0,0.0,0.0,0.0,0.0,0.0,0.0,0.0,0.0,0.0,0.0,0.0,0.0,0.0,0.0,0.0,0.0,0.0,0.0,0.0,0.0,-4.0814,-4.0662,-4.0662,0.0,0.0,0.0,0.0,0.0,0.0,-3.9875,-4.0263,0.0,0.0,0.0,0.0,0.0,0.0,0.0,0.0,0.0,0.0,0.0,0.0,0.0,0.0,0.0,0.0,0.0,0.0,0.0,0.0,0.0,0.0,0.0,0.0,0.0,0.0,0.0,0.0,0.0,0.0,0.0,0.0,0.0,0.0,0.0,0.0,0.0,0.0,0.0,0.0,0.0,0.0,0.0,0.0,0.0,0.0,0.0,0.0,0.0,0.0,0.0,0.0,0.0,0.0,0.0,-3.7394,-3.7339,-3.7331,-3.7346,-3.7924,-3.8249,-3.8263,-3.9045,-3.9843,0.0,0.0,0.0,0.0,0.0,0.0,0.0,0.0,0.0,0.0,0.0,0.0,0.0,0.0,0.0,0.0,0.0,0.0,0.0,0.0,0.0,0.0,0.0,0.0,0.0,0.0,0.0,0.0,0.0,0.0,0.0,0.0,0.0,0.0,0.0,0.0,0.0,0.0,0.0,0.0,0.0,-4.0524,-4.0524,-4.0524,0.0,0.0,0.0,0.0,-3.9949,-4.0216,0.0,0.0,0.0,0.0,0.0,0.0,0.0,0.0,0.0,0.0,0.0,0.0,0.0,0.0,0.0,0.0,0.0,0.0,0.0,0.0,0.0,0.0,0.0,0.0,0.0,0.0,0.0,0.0,0.0,0.0,0.0,0.0,0.0,0.0,0.0,0.0,0.0,0.0,0.0,0.0,0.0,0.0,0.0,0.0,0.0,0.0,0.0,0.0,0.0,0.0,0.0,0.0,0.0,0.0,0.0,0.0,-3.7639,-3.8167,-3.8439,-3.8467,-3.8974,-3.9287,-3.9301,-4.0158,-4.0842,0.0,0.0,0.0,0.0,0.0,0.0,0.0,0.0,0.0,0.0,0.0,0.0,0.0,0.0,0.0,0.0,0.0,0.0,0.0,0.0,0.0,0.0,0.0,0.0,0.0,0.0,0.0,0.0,0.0,0.0,0.0,0.0,0.0,0.0,0.0,0.0,0.0,0.0,0.0,0.0,0.0,-4.0524,-4.0524,-4.0524,-4.0455,0.0,0.0,-4.042,-4.0785,-4.1364,0.0,0.0,0.0,0.0,0.0,0.0,0.0,0.0,0.0,0.0,0.0,0.0,0.0,0.0,0.0,0.0,0.0,0.0,0.0,0.0,0.0,0.0,0.0,0.0,0.0,0.0,0.0,0.0,0.0,0.0,0.0,0.0,0.0,0.0,0.0,0.0,0.0,0.0,0.0,0.0,0.0,0.0,0.0,0.0,0.0,0.0,0.0,0.0,0.0,0.0,0.0,0.0,0.0,0.0,0.0,-3.9583,-3.9445,-3.9503,-3.9491,-3.9506,-4.0097,-4.0495,-4.0575,-4.1441,-4.2085,0.0,0.0,0.0,0.0,0.0,0.0,0.0,0.0,0.0,0.0,0.0,0.0,0.0,0.0,0.0,0.0,0.0,0.0,0.0,0.0,0.0,0.0,0.0,0.0,0.0,0.0,0.0,0.0,0.0,0.0,0.0,0.0,0.0,0.0,0.0,0.0,0.0,0.0,0.0,0.0,0.0,0.0,-4.0524,-4.0524,0.0,0.0,0.0,-4.0863,-4.0952,0.0,0.0,0.0,0.0,0.0,0.0,0.0,0.0,0.0,0.0,0.0,0.0,0.0,0.0,0.0,0.0,0.0,0.0,0.0,0.0,0.0,0.0,0.0,0.0,0.0,0.0,0.0,0.0,0.0,0.0,0.0,0.0,0.0,0.0,0.0,0.0,0.0,0.0,0.0,0.0,0.0,0.0,0.0,0.0,0.0,0.0,0.0,0.0,0.0,0.0,0.0,0.0,0.0,0.0,0.0,0.0,0.0,-4.0959,-4.0827,-4.0774,-4.0803,-4.1374,-4.1762,-4.1951,-4.2663,0.0,0.0,0.0,0.0,0.0,0.0,0.0,0.0,0.0,0.0,0.0,0.0,0.0,0.0,0.0,0.0,0.0,0.0,0.0,0.0,0.0,0.0,0.0,0.0,0.0,0.0,0.0,-4.5874,0.0,0.0,0.0,0.0,0.0,0.0,0.0,0.0,0.0,0.0,0.0,0.0,0.0,0.0,-4.0524,-4.0524,-4.0678,-4.0731,0.0,0.0,-4.1591,-4.1614,-4.2467,-4.3258,0.0,0.0,0.0,0.0,0.0,0.0,0.0,0.0,0.0,0.0,0.0,0.0,0.0,0.0,0.0,0.0,0.0,0.0,0.0,0.0,0.0,0.0,0.0,0.0,0.0,0.0,0.0,0.0,0.0,0.0,0.0,0.0,0.0,0.0,0.0,0.0,0.0,0.0,0.0,0.0,0.0,0.0,0.0,0.0,0.0,0.0,0.0,0.0,0.0,0.0,0.0,0.0,0.0,0.0,-4.173,-4.143,-4.1968,-4.2297,-4.2234,-4.2862,-4.3254,-4.3476,-4.3678,-4.402,0.0,0.0,0.0,0.0,0.0,0.0,0.0,0.0,0.0,0.0,0.0,0.0,0.0,0.0,0.0,0.0,0.0,0.0,0.0,0.0,0.0,0.0,0.0,0.0,0.0,0.0,0.0,0.0,0.0,0.0,0.0,0.0,0.0,0.0,0.0,0.0,0.0,0.0,0.0,0.0,0.0,-4.0539,-4.0524,-4.1093,-4.1524,0.0,-4.2109,-4.2756,-4.334,-4.3494,-4.3787,-4.4418,0.0,0.0,0.0,0.0,0.0,0.0,0.0,0.0,0.0,0.0,0.0,0.0,0.0,0.0,0.0,0.0,0.0,0.0,0.0,0.0,0.0,0.0,0.0,0.0,0.0,0.0,0.0,0.0,0.0,0.0,0.0,0.0,0.0,0.0,0.0,0.0,0.0,0.0,0.0,0.0,0.0,0.0,0.0,0.0,0.0,0.0,0.0,0.0,0.0,0.0,0.0,0.0,0.0,-4.3712,-4.3562,-4.367,-4.3731,-4.3731,-4.3975,-4.4174,-4.4404,-4.4496,-4.4648,0.0,0.0,0.0,0.0,0.0,0.0,0.0,0.0,0.0,0.0,0.0,0.0,0.0,0.0,0.0,0.0,0.0,0.0,0.0,0.0,0.0,0.0,0.0,0.0,0.0,0.0,0.0,0.0,-4.4522,-4.3611,-4.2696,0.0,0.0,0.0,0.0,0.0,0.0,0.0,0.0,0.0,0.0,-4.1201,-4.1186,-4.1786,0.0,0.0,-4.2771,-4.3279,-4.3525,-4.3925,-4.4279,-4.4541,-4.4572,0.0,0.0,0.0,0.0,0.0,0.0,0.0,0.0,0.0,0.0,0.0,0.0,0.0,0.0,0.0,0.0,0.0,0.0,0.0,0.0,0.0,0.0,0.0,0.0,0.0,0.0,0.0,0.0,0.0,0.0,0.0,0.0,0.0,0.0,0.0,0.0,0.0,0.0,0.0,0.0,0.0,0.0,0.0,0.0,0.0,0.0,0.0,0.0,0.0,0.0,0.0,0.0,-4.5039,-4.4964,-4.4889,-4.4739,-4.4814,-4.4739,-4.4889,-4.5039,-4.5114,-4.5188,0.0,0.0,0.0,0.0,0.0,0.0,0.0,0.0,0.0,0.0,0.0,0.0,0.0,0.0,0.0,0.0,0.0,0.0,0.0,0.0,0.0,0.0,0.0,0.0,0.0,0.0,0.0,0.0,-4.469,-4.3552,-4.2634,0.0,0.0,0.0,0.0,0.0,0.0,0.0,0.0,0.0,0.0,-4.1894,-4.1894,-4.2479,-4.291,-4.2894,-4.3448,-4.3879,-4.3879,-4.4279,-4.4572,-4.4572,0.0,0.0,0.0,0.0,0.0,0.0,0.0,0.0,0.0,0.0,0.0,0.0,0.0,0.0,0.0,0.0,0.0,0.0,0.0,0.0,0.0,0.0,0.0,0.0,0.0,0.0,0.0,0.0,0.0,0.0,-4.6582,0.0,0.0,0.0,0.0,0.0,0.0,0.0,0.0,0.0,0.0,0.0,0.0,0.0,0.0,0.0,0.0,0.0,0.0,0.0,0.0,0.0,0.0,-4.5368,-4.522,-4.522,-4.522,-4.5204,-4.522,-4.5294,-4.5442,-4.5515,-4.5662,-4.604,0.0,0.0,0.0,0.0,0.0,0.0,0.0,0.0,0.0,0.0,0.0,0.0,0.0,0.0,0.0,0.0,0.0,0.0,0.0,0.0,0.0,0.0,0.0,0.0,0.0,0.0,-4.5971,-4.4399,-4.3328,0.0,0.0,0.0,0.0,0.0,0.0,0.0,0.0,0.0,0.0,-4.2171,-4.2602,-4.2586,-4.314,-4.3556,-4.3556,-4.411,-4.4541,-4.4541,-4.4572,-4.4572,0.0,0.0,0.0,0.0,0.0,0.0,0.0,0.0,0.0,0.0,0.0,0.0,0.0,0.0,0.0,0.0,0.0,0.0,0.0,0.0,0.0,0.0,0.0,0.0,0.0,0.0,0.0,-4.6404,-4.6458,0.0,0.0,0.0,0.0,0.0,0.0,0.0,0.0,0.0,0.0,0.0,-4.6876,-4.6876,0.0,0.0,0.0,0.0,0.0,0.0,0.0,0.0,0.0,0.0,0.0,0.0,-4.5662,-4.5589,-4.5589,-4.5589,-4.5589,-4.5735,-4.5823,-4.5896,-4.6008,-4.6136,-4.6404,0.0,0.0,0.0,0.0,0.0,0.0,0.0,0.0,0.0,0.0,0.0,0.0,0.0,0.0,0.0,0.0,0.0,0.0,0.0,0.0,0.0,0.0,0.0,0.0,0.0,-4.6979,0.0,0.0,0.0,0.0,0.0,0.0,0.0,0.0,0.0,0.0,0.0,-4.2478,-4.2494,-4.2906,-4.3248,-4.3248,-4.3818,-4.4249,0.0,0.0,0.0,0.0,0.0,0.0,0.0,0.0,0.0,0.0,0.0,0.0,0.0,0.0,-4.6945,-4.6791,-4.6997,-4.727,-4.7286,0.0,0.0,0.0,0.0,0.0,0.0,0.0,0.0,0.0,0.0,0.0,0.0,0.0,0.0,-4.6652,0.0,-4.6807,0.0,0.0,0.0,0.0,0.0,0.0,0.0,0.0,-4.6876,-4.6961,-4.703,-4.703,-4.703,0.0,-4.703,-4.6961,0.0,0.0,0.0,0.0,0.0,0.0,0.0,0.0,-4.588,-4.5896,-4.5896,-4.5952,-4.6008,-4.6152,-4.6294,-4.6294,-4.6545,-4.6807,-4.705,-4.7304,-4.7588,0.0,0.0,0.0,0.0,0.0,0.0,0.0,0.0,0.0,0.0,0.0,0.0,0.0,0.0,0.0,0.0,0.0,0.0,0.0,0.0,0.0,0.0,0.0,-4.6979,0.0,0.0,0.0,0.0,0.0,0.0,0.0,0.0,0.0,-4.2799,-4.3138,-4.3448,-4.3448,-4.3878,-4.4149,-4.4149,0.0,0.0,0.0,0.0,0.0,0.0,0.0,-4.5173,-4.5352,-4.5484,-4.5614,-4.6017,-4.6426,-4.6913,-4.7671,0.0,0.0,-4.7572,-4.7803,-4.8016,-4.8016,-4.8227,-4.8483,-4.8673,-4.8798,-4.8923,0.0,0.0,0.0,0.0,0.0,0.0,0.0,0.0,-4.6582,-4.6738,0.0,-4.6892,0.0,0.0,0.0,0.0,0.0,-4.6961,0.0,0.0,-4.6945,-4.7014,-4.7183,-4.7251,-4.7235,-4.7251,-4.7251,-4.7098,-4.6961,-4.6945,0.0,0.0,0.0,0.0,0.0,0.0,-4.6112,-4.6096,-4.6112,-4.6168,-4.6333,-4.6528,-4.6652,-4.6652,-4.7134,-4.7588,-4.7885,-4.8113,-4.8386,-4.8702,-4.8702,0.0,0.0,0.0,0.0,0.0,0.0,0.0,0.0,0.0,0.0,0.0,0.0,0.0,0.0,0.0,0.0,0.0,0.0,0.0,0.0,-4.8518,0.0,0.0,0.0,0.0,0.0,0.0,0.0,0.0,0.0,0.0,-4.4056,-4.4299,-4.4582,-4.4582,0.0,0.0,0.0,0.0,-4.522,-4.522,-4.522,-4.5278,-4.5468,-4.5541,-4.5614,-4.5832,0.0,0.0,-4.705,-4.7253,-4.7671,-4.8403,-4.8593,-4.8639,-4.8306,-4.8513,-4.8702,-4.8719,-4.8968,-4.9168,-4.9212,-4.935,-4.9488,-4.4394,0.0,0.0,0.0,0.0,-4.6317,-4.6598,-4.6807,-4.6807,-4.6807,-4.6876,-4.6876,0.0,0.0,0.0,0.0,0.0,0.0,-4.7335,-4.7335,-4.7437,-4.7504,-4.7571,-4.7721,-4.7803,-4.7787,-4.7803,-4.7654,-4.7504,-4.7504,-4.7302,-4.6876,0.0,0.0,0.0,0.0,-4.6349,-4.6474,-4.6474,-4.6545,-4.6754,-4.7014,-4.7321,-4.7721,-4.8,-4.8275,-4.8433,-4.8781,-4.8968,-4.9029,-4.9273,0.0,0.0,0.0,0.0,0.0,0.0,0.0,0.0,0.0,0.0,0.0,0.0,0.0,0.0,0.0,0.0,0.0,0.0,0.0,-4.9217,-4.8598,-4.7992,0.0,0.0,0.0,0.0,0.0,0.0,0.0,0.0,0.0,-4.6631,-4.6233,-4.6029,0.0,0.0,-4.5817,-4.5785,-4.5672,-4.563,-4.563,-4.5672,0.0,-4.6017,-4.6159,-4.6372,-4.6705,-4.6997,-4.7337,-4.777,-4.8065,-4.8339,-4.8923,-4.9168,-4.929,-4.9273,-4.9273,-4.929,-4.929,-4.935,-4.9471,-4.953,-4.959,-4.9725,-4.4473,-4.497,-4.5651,-4.6088,-4.6442,-4.6668,-4.6823,-4.6876,-4.6876,-4.6876,-4.6876,-4.6876,-4.6961,-4.703,-4.737,0.0,0.0,0.0,-4.782,-4.782,-4.7951,-4.8,-4.8081,-4.8227,-4.8292,-4.8292,-4.8308,-4.8146,-4.8,-4.8,-4.7803,-4.7421,0.0,0.0,-4.6876,-4.6754,-4.6807,-4.6929,-4.7014,-4.7134,-4.7404,-4.7737,-4.8129,-4.8576,-4.8719,-4.8906,-4.9073,-4.9273,-4.9411,-4.9488,-4.9725,-4.986,0.0,0.0,0.0,0.0,0.0,0.0,0.0,0.0,0.0,0.0,0.0,-5.0011,-5.0011,0.0,0.0,0.0,-5.0011,-4.9804,-4.9338,-4.8896,0.0,0.0,0.0,0.0,0.0,0.0,0.0,-4.8386,-4.8389,-4.8292,-4.8081,-4.7985,-4.7664,-4.6909,-4.6582,-4.6468,-4.6756,0.0,-4.6773,-4.7061,-4.7165,-4.7293,-4.7523,-4.7632,-4.7883,-4.8065,-4.8051,-4.8163,-4.8513,-4.8719,-4.8906,-4.9273,-4.9471,-4.9607,-4.9784,-4.9742,-4.9683,-4.9683,-4.9683,-4.9742,-4.9801,-4.986,-4.986,-4.4074,-4.4538,-4.5858,-4.6405,-4.6491,-4.6629,-4.6714,-4.6714,-4.6698,-4.6747,-4.6795,-4.6811,-4.6981,-4.7302,-4.7737,0.0,-4.8242,-4.8433,-4.8416,-4.848,-4.848,-4.856,-4.8765,-4.8765,-4.8765,-4.8765,-4.8765,-4.8685,-4.848,-4.848,-4.8433,-4.8242,-4.7836,-4.7537,-4.7302,-4.7421,-4.7471,-4.7471,-4.7688,-4.7951,-4.8242,-4.8576,-4.8906,-4.9212,-4.9229,-4.9394,-4.9725,-4.9708,-4.9784,-5.0011,-5.0011,-5.0011,-5.0011,0.0,0.0,0.0,0.0,0.0,0.0,0.0,0.0,0.0,0.0,0.0,0.0,0.0,0.0,-5.0011,-5.0011,0.0,-5.0011,-4.9338,0.0,0.0,0.0,-4.8562,-4.8235,-4.8804,-4.9202,-4.9131,0.0,0.0,-4.895,-4.959,-4.9389,-4.7767,-4.7329,-4.7436,-4.8085,-4.8183,-4.8443,-4.9011,-4.9157,-4.9245,-4.9328,-4.9522,-4.9637,-4.969,-4.9167,-4.9005,-4.9379,-4.9484,-4.9615,-4.9923,-4.9897,-5.0007,-5.0125,-5.0287,-5.02,-5.0252,-5.0097,-5.0011,-4.9993,-5.0011,-4.9993,-4.3717,-4.3978,-4.4851,-4.5223,-4.5223,-4.5289,-4.5289,-4.5289,-4.5289,-4.5581,-4.605,-4.6202,-4.6897,-4.8,-4.8275,-4.853,-4.8798,-4.8877,-4.8861,-4.8861,-4.8968,-4.9029,-4.9107,-4.9229,-4.929,-4.929,-4.929,-4.9212,-4.9029,-4.9029,-4.8968,-4.8798,-4.8673,-4.842,-4.8,-4.8,-4.8113,-4.8386,-4.845,-4.8656,-4.8968,-4.9029,-4.9229,-4.959,-4.9573,-4.9666,-4.9935,-4.9935,-4.9935,-5.0011,-5.0011,-5.0011,-5.0011,-5.0011,0.0,0.0,0.0,0.0,0.0,0.0,0.0,0.0,0.0,-5.0011,-5.0011,0.0,-5.0011,0.0,-5.0011,-5.0011,-4.9993,-4.9838,0.0,0.0,-4.9526,-4.9392,-4.9316,-4.9368,-4.9632,-5.0134,-5.0185,-5.0362,-5.0798,-5.0973,-5.0896,-5.0354,-4.9876,-4.969,-4.9872,-4.9752,-4.975,-4.9931,-5.0066,-5.0171,-5.0272,-5.0593,-5.0873,-5.1044,-5.0985,-5.1089,-5.1319,-5.1319,-5.1381,-5.1546,-5.1623,-5.1606,-5.1649,-5.1701,-5.1683,-5.1614,-5.0804,-5.0011,-5.0011,-5.0028,-5.0011,-4.3121,-4.3265,-4.367,-4.401,-4.4334,-4.4642,-4.4804,-4.4787,-4.4837,-4.5308,-4.5958,-4.6733,-4.7554,-4.8433,-4.8781,-4.9046,-4.9307,-4.9428,-4.9445,-4.9445,-4.9488,-4.9547,-4.9547,-4.9683,-4.9742,-4.9742,-4.9742,-4.9683,-4.9547,-4.9547,-4.9471,-4.929,-4.929,-4.9152,-4.8889,-4.8702,-4.8702,-4.8906,-4.9073,-4.9212,-4.9394,-4.9471,-4.9607,-4.9801,-4.9842,-4.986,-5.0011,-5.0011,-5.0011,-5.0011,-5.0011,-5.0011,-5.0011,-5.0011,-5.0011,0.0,0.0,0.0,0.0,0.0,0.0,0.0,0.0,0.0,0.0,0.0,-5.0011,-5.0011,-5.0011,-5.0011,-5.0011,-5.0011,-5.0011,-5.0011,-5.0169,-5.0341,-5.0341,-5.0515,-5.0875,-5.1287,-5.1339,-5.1449,-5.1691,-5.2016,-5.2158,-5.1966,-5.1995,-5.1815,-5.1313,-5.1044,-5.1025,-5.1341,-5.1562,-5.1749,-5.1866,-5.1828,-5.1885,-5.2123,-5.201,-5.1929,-5.2052,-5.2114,-5.2114,-5.2157,-5.2201,-5.2201,-5.2201,-5.2201,-5.2132,-5.1701,-5.108,-5.0683,-5.0925,-5.0718,-5.0493,-4.2571,-4.2571,-4.2571,-4.299,-4.3686,-4.4318,-4.4691,-4.4853,-4.5033,-4.5538,-4.6323,-4.7668,-4.8463,-4.8692,-4.9137,-4.9401,-4.9492,-4.9642,-4.9717,-4.9717,-4.9717,-4.97,-4.9717,-4.9717,-4.9717,-4.97,-4.9804,-4.9855,-4.9855,-4.9959,-4.9918,-4.9708,-4.9725,-4.9725,-4.9708,-4.9488,-4.929,-4.929,-4.9607,-4.9784,-4.9725,-4.9918,-5.0011,-5.0011,-5.0011,-5.0011,-5.0011,-5.0011,-5.0011,-5.0011,-5.0011,-5.0011,-5.0011,-5.0011,-5.0011,0.0,-5.0011,0.0,0.0,0.0,0.0,0.0,0.0,0.0,0.0,-5.0011,-5.0011,-5.0011,-5.0011,-5.0045,-5.0131,-5.0166,-5.02,-5.0304,-5.0856,-5.1252,-5.1287,-5.1821,-5.2252,-5.2356,-5.2373,-5.2347,-5.2396,-5.2912,-5.3244,-5.3186,-5.3485,-5.3474,-5.2621,-5.2202,-5.2354,-5.2957,-5.3179,-5.3264,-5.3447,-5.3154,-5.2874,-5.2992,-5.2671,-5.2173,-5.2174,-5.2218,-5.2218,-5.2201,-5.2201,-5.2201,-5.2201,-5.2201,-5.2028,-5.1476,-5.1304,-5.1356,-5.1563,-5.1252,-5.1011,-4.2571,-4.2571,-4.2571,-4.2778,-4.3049,-4.3287,-4.4085,-4.5227,-4.5436,-4.6132,-4.7208,-4.8337,-4.8707,-4.843,-4.8624,-4.8547,-4.8092,-4.8148,-4.8148,-4.8148,-4.8148,-4.8148,-4.8148,-4.8148,-4.8148,-4.8183,-4.8752,-4.9045,-4.9062,-4.97,-4.9993,-4.9952,-4.9935,-4.9935,-4.9935,0.0,0.0,0.0,-4.9918,-4.9918,-4.9935,-4.9993,-5.0011,-5.0011,-5.0011,0.0,-5.0011,-5.0011,-5.0011,-5.0011,-5.0011,0.0,0.0,0.0,0.0,0.0,0.0,0.0,0.0,0.0,0.0,0.0,-5.0011,-5.0011,-5.0011,-5.0011,-5.0011,-5.0011,-5.0011,-5.0252,-5.0838,-5.089,-5.1149,-5.1735,-5.1925,-5.2011,-5.2011,-5.2149,-5.2442,-5.3115,-5.3166,-5.3408,-5.3863,-5.4138,-5.4207,-5.4126,-5.4154,-5.4042,-5.3823,-5.3594,-5.3613,-5.3766,-5.3783,-5.3915,-5.4093,-5.3939,-5.3609,-5.3421,-5.3242,-5.2846,-5.2356,-5.2201,-5.2201,-5.2201,-5.2201,-5.2201,-5.2201,-5.2201,-5.2166,-5.2011,-5.1977,-5.1701,-5.0666,-5.0321,-5.0218,-4.2571,0.0,-4.2571,-4.2907,0.0,-4.3777,-4.4632,-4.5715,-4.5097,-4.5561,-4.6701,-4.7683,-4.8038,-4.7912,-4.81,-4.7967,-4.7717,-4.7717,-4.7717,-4.7717,-4.7717,-4.7717,-4.7717,-4.7717,-4.7717,-4.7734,-4.8096,-4.8459,-4.8821,-4.9217,-4.9614,-4.9993,-5.0011,-5.0011,-5.0011,-5.0011,-5.0011,-5.0011,-5.0011,-5.0011,-5.0011,-5.0011,-5.0011,-5.0011,0.0,0.0,0.0,0.0,0.0,0.0,0.0,0.0,0.0,0.0,0.0,-5.0011,-5.0011,-5.0011,-5.0011,-5.0011,-5.0011,-5.0011,-5.0011,-5.0011,-5.0011,-5.0338,-5.0545,-5.0562,-5.0873,-5.1252,-5.1614,-5.1666,-5.1804,-5.2183,-5.2563,-5.2804,-5.2839,-5.3132,-5.3494,-5.3856,-5.396,-5.4098,-5.446,-5.4512,-5.4512,-5.4512,-5.4431,-5.435,-5.4321,-5.411,-5.4045,-5.411,-5.411,-5.4158,-5.4269,-5.4023,-5.3731,-5.3442,-5.308,-5.2684,-5.2287,-5.2201,-5.2201,-5.2201,-5.2201,-5.2201,-5.2201,-5.2201,-5.2114,-5.177,-5.1666,-5.1321,-5.031,-5.0345,-5.0545,-4.2571,-4.2634,-4.2634,-4.31,-4.3921,-4.4384,-4.5123,-4.595,0.0,0.0,0.0,-4.6959,-4.7278,-4.7361,-4.7455,-4.7441,-4.732,-4.732,-4.732,-4.732,-4.732,-4.7303,-4.732,-4.732,-4.7303,-4.7303,-4.7458,-4.7838,-4.8424,-4.8683,-4.9148,-4.9752,-4.9924,-5.0011,-5.0011,-5.0011,-5.0011,-5.0011,-5.0011,-5.0011,-5.0011,-5.0011,-5.0011,-5.0011,-5.0011,-5.0011,-5.0011,-5.0011,-5.0011,-5.0011,-5.0011,-5.0011,-5.0011,-5.0011,-5.0011,-5.0011,-5.0011,-5.0011,-5.0011,-5.0011,-5.0011,-5.0011,-5.0011,-5.0011,-5.0011,-5.058,-5.0976,-5.1097,-5.1666,-5.2114,-5.239,-5.2425,-5.2494,-5.2615,-5.3201,-5.3598,-5.3632,-5.4115,-5.4443,-5.4512,-5.4477,-5.4443,-5.4305,-5.427,-5.4253,-5.4115,-5.396,-5.4115,-5.4069,-5.3879,-5.3849,-5.3724,-5.3621,-5.3822,-5.3931,-5.3598,-5.3166,-5.2891,-5.239,-5.2011,-5.1856,-5.1821,-5.1881,-5.1743,-5.1881,-5.183,-5.1847,-5.182,-5.1657,-5.1087,-5.0966,-5.0835,-5.0488,-5.0674,-5.0962,-4.2571,-4.2618,-4.2775,-4.3072,-4.352,-4.4014,-4.4626,-4.5426,-4.6503,-4.7124,-4.73,-4.7498,-4.73,-4.6714,-4.6769,-4.6389,-4.5751,-4.5751,-4.5751,0.0,-4.5751,-4.5698,-4.5734,-4.5751,-4.5698,-4.575,-4.6441,-4.682,-4.7044,-4.82,-4.889,-4.9062,-4.9666,-4.9993,-5.0011,-5.0011,-5.0011,-5.0011,-5.0011,-5.0011,-5.0011,-5.0011,-5.0011,-5.0011,-5.0011,-5.0011,-5.0011,-5.0011,-5.0011,-5.0011,-5.0011,-5.0011,-5.0011,-5.0011,-5.0011,-5.0011,-5.0011,-5.0011,-5.0011,-5.0011,-5.0011,-5.0011,-5.0011,-5.0011,-5.0011,-5.0097,-5.0424,-5.1028,-5.1252,-5.1821,-5.3011,-5.3201,-5.3425,-5.4011,-5.4253,-5.4339,-5.4236,-5.4322,-5.4408,-5.4391,-5.4512,-5.4184,-5.3667,-5.3563,-5.3304,-5.277,-5.2848,-5.2615,-5.2718,-5.307,-5.3156,-5.2657,-5.2485,-5.2485,-5.2666,-5.2494,-5.2183,-5.1528,-5.139,-5.1139,-5.0778,-5.0691,-5.0749,-5.0684,-5.0828,-5.0793,-5.0758,-5.0672,-5.0724,-5.0602,-5.0602,-5.0554,-5.0547,-5.0669,-5.0756,-4.2571,-4.2634,-4.2883,-4.3174,-4.3535,-4.4293,-4.4869,-4.5352,-4.6057,-4.6384,-4.6367,-4.6404,-4.6286,-4.5992,-4.5975,-4.5768,-4.5441,-4.5441,-4.5441,-4.5441,-4.5441,-4.5441,-4.5441,-4.5441,-4.5441,-4.5405,-4.5786,-4.6182,-4.6648,-4.732,-4.782,-4.8252,-4.8993,-4.9562,-4.9976,-5.0011,-5.0011,-5.0011,-5.0011,-5.0011,-5.0011,-5.0011,-5.0011,-5.0011,-5.0011,-5.0011,-5.0011,-5.0011,-5.0011,-5.0011,-5.0011,-5.0011,-5.0011,-5.0011,-5.0011,-5.0011,-5.0011,-5.0011,-5.0011,-5.0011,-5.0011,-5.0011,-5.0011,-5.0011,-5.0011,-5.0373,-5.0752,-5.1097,-5.1459,-5.2166,-5.3287,-5.3408,-5.3546,-5.3873,-5.3908,-5.3718,-5.3356,-5.3349,-5.3393,-5.341,-5.3454,-5.3376,-5.3065,-5.3013,-5.2926,-5.251,-5.2458,-5.232,-5.1904,-5.2206,-5.25,-5.2399,-5.2399,-5.2493,-5.2424,-5.2077,-5.1713,-5.1332,-5.0968,-5.0662,-5.0432,-5.0436,-5.0509,-5.062,-5.0657,-5.0694,-5.0694,-5.0803,-5.0803,-5.0857,-5.0803,-5.0893,-5.0999,-5.1175,-5.1193,-4.2634,-4.2696,-4.3052,-4.3459,-4.3931,-4.4686,-4.5211,-4.5371,-4.5441,-4.5441,-4.5441,-4.5441,-4.5441,-4.5441,-4.5441,-4.5441,-4.5441,-4.5441,-4.5441,-4.5441,-4.5441,-4.5441,-4.5441,-4.5441,-4.5441,-4.5441,-4.5441,-4.5751,-4.6303,-4.651,-4.6993,-4.7717,-4.8459,-4.9131,-4.9717,-4.9924,-5.0011,-5.0011,-5.0011,-5.0011,-5.0011,-5.0011,-5.0011,-5.0011,-5.0011,-5.0011,-5.0011,-5.0011,-5.0011,-5.0011,-5.0011,-5.0011,-5.0011,-5.0011,-5.0011,-5.0011,-5.0011,-5.0011,-5.0011,-5.0011,-5.0011,-4.9993,-5.0051,-5.0051,-5.0103,-5.0569,-5.1001,-5.1132,-5.158,-5.2252,-5.2942,-5.3176,-5.3211,-5.3211,-5.3193,-5.3047,-5.2477,-5.2476,-5.2594,-5.2594,-5.2712,-5.2736,-5.2561,-5.2527,-5.2405,-5.2213,-5.2248,-5.2026,-5.1503,-5.1549,-5.1847,-5.2118,-5.2288,-5.2161,-5.2213,-5.1743,-5.1342,-5.1307,-5.091,-5.0707,-5.0694,-5.0749,-5.0857,-5.0982,-5.107,-5.1175,-5.1158,-5.1228,-5.128,-5.1297,-5.1297,-5.1383,-5.1518,-5.1822,-5.184,-4.2696,-4.2899,-4.3267,-4.3906,-4.4665,-4.5032,-4.5247,-4.5371,-4.5441,-4.5441,-4.5441,-4.5441,-4.5441,-4.5441,-4.5441,-4.5441,-4.5441,-4.5441,-4.5441,-4.5441,-4.5441,-4.5441,-4.5441,-4.5441,-4.5441,-4.5441,-4.5441,-4.5492,-4.563,-4.6268,-4.6958,-4.7717,-4.8459,-4.8838,-4.9028,-4.9648,-4.9993,-5.0011,-5.0011,-5.0011,-5.0011,-5.0011,-5.0011,-5.0011,-5.0011,-5.0011,-5.0011,-5.0011,-5.0011,-5.0011,-5.0011,-5.0011,-5.0011,-5.0011,-5.0011,-5.0011,-5.0011,-5.0011,-5.0011,-5.0011,-4.9993,-5.0011,-5.0149,-5.0189,-5.0189,-5.0372,-5.0662,-5.1025,-5.1166,-5.1528,-5.2218,-5.246,-5.2597,-5.258,-5.2698,-5.2723,-5.2584,-5.277,-5.2869,-5.2852,-5.2849,-5.2853,-5.2242,-5.2119,-5.1783,-5.1347,-5.1329,-5.1331,-5.1246,-5.1299,-5.1423,-5.1441,-5.1264,-5.1119,-5.1154,-5.0959,-5.1013,-5.0978,-5.0981,-5.0999,-5.1123,-5.1262,-5.1416,-5.1521,-5.164,-5.1622,-5.1654,-5.164,-5.1672,-5.1772,-5.1772,-5.1722,-5.1987,-5.2246,-5.2228,-4.2696,-4.2961,-4.3355,-4.4064,-4.4869,-4.5211,-4.5353,-4.5441,-4.5441,-4.5441,-4.5441,-4.5441,-4.5441,-4.5441,-4.5441,-4.5441,-4.5441,-4.5441,-4.5441,-4.5441,-4.5441,-4.5441,-4.5441,-4.5441,-4.5441,-4.5441,-4.5441,-4.5441,-4.5492,-4.5751,-4.6303,-4.701,-4.7372,-4.7941,-4.8752,-4.9148,-4.9528,-4.9993,-5.0011,-5.0011,-5.0011,-5.0011,-5.0011,-5.0011,-5.0011,-5.0011,-5.0011,-5.0011,-5.0011,-5.0011,-5.0011,-5.0011,-5.0011,-5.0011,-5.0011,-5.0011,-5.0011,-5.0051,-5.0092,-5.0149,-5.0149,-5.0263,-5.0341,-5.0436,-5.0453,-5.0547,-5.0704,-5.0837,-5.0771,-5.0951,-5.1703,-5.1958,-5.2091,-5.2091,-5.2245,-5.2257,-5.1731,-5.1915,-5.2005,-5.2005,-5.2148,-5.2201,-5.1882,-5.1811,-5.1669,-5.135,-5.1297,-5.1367,-5.1401,-5.1503,-5.1622,-5.1654,-5.1604,-5.1503,-5.1349,-5.1297,-5.1315,-5.1349,-5.1349,-5.147,-5.1622,-5.1672,-5.1772,-5.2036,-5.2084,-5.218,-5.2221,-5.2304,-5.2351,-5.2304,-5.2351,-5.2397,-5.249,-5.2599,-5.2554,-4.2759,-4.3007,-4.3578,-4.4276,-4.5032,-4.5264,-4.5441,-4.5441,-4.5441,-4.5441,-4.5441,-4.5441,-4.5441,-4.5441,-4.5441,-4.5441,-4.5441,-4.5441,-4.5441,-4.5441,-4.5441,-4.5441,-4.5441,-4.5441,-4.5441,-4.5441,-4.5441,-4.5441,-4.5441,-4.5441,-4.5734,-4.6234,-4.6493,-4.7148,-4.8131,-4.8372,-4.8907,-4.9614,-4.9683,-4.9769,-4.9959,-5.0011,-5.0011,-5.0011,-5.0011,-5.0011,-5.0011,-5.0011,-5.0011,-5.0011,-5.0011,-5.0011,-5.0011,-5.0011,-4.9993,-5.0051,-5.0051,-5.0166,-5.0285,-5.0302,-5.0397,-5.0547,-5.0694,-5.0785,-5.0857,-5.0964,-5.1035,-5.1052,-5.0874,-5.101,-5.1189,-5.1497,-5.1625,-5.1681,-5.1881,-5.1777,-5.1334,-5.1416,-5.1589,-5.1536,-5.1815,-5.179,-5.1808,-5.1826,-5.1826,-5.179,-5.184,-5.1889,-5.1938,-5.2036,-5.2066,-5.2132,-5.2228,-5.2132,-5.1871,-5.179,-5.179,-5.1889,-5.1889,-5.1987,-5.2084,-5.2132,-5.218,-5.2415,-5.2526,-5.2572,-5.2536,-5.2672,-5.2779,-5.2806,-5.2806,-5.2806,-5.2806,-5.2868,-5.2868,-4.2789,-4.3218,-4.4105,-4.4631,-4.5032,-4.53,-4.5441,-4.5441,-4.5441,-4.5441,-4.5441,-4.5441,-4.5441,-4.5441,-4.5441,-4.5441,-4.5441,-4.5441,-4.5441,-4.5441,-4.5441,-4.5441,-4.5441,-4.5441,-4.5441,-4.5441,-4.5441,-4.5441,-4.5441,-4.5441,-4.5441,-4.5544,-4.6182,-4.6631,-4.6906,-4.7458,-4.8131,-4.8786,-4.8924,-4.9252,-4.989,-4.9976,-5.0011,-5.0011,-5.0011,-5.0011,-5.0011,-5.0011,-5.0011,-5.0011,-5.0011,-5.0011,-5.0011,-5.0011,-5.0051,-5.0206,-5.0206,-5.0341,-5.0547,-5.0585,-5.0694,-5.0946,-5.1105,-5.121,-5.1365,-5.1503,-5.1622,-5.1622,-5.1571,-5.1402,-5.1087,-5.1264,-5.1317,-5.1369,-5.1558,-5.1693,-5.1708,-5.184,-5.1858,-5.1889,-5.2036,-5.2132,-5.2084,-5.2102,-5.2084,-5.2132,-5.218,-5.2275,-5.2369,-5.249,-5.2581,-5.2672,-5.2672,-5.2581,-5.218,-5.2132,-5.2198,-5.2228,-5.2304,-5.2415,-5.2581,-5.2654,-5.2717,-5.2779,-5.2779,-5.2779,-5.2779,-5.2824,-5.2824,-5.2868,-5.285,-5.2912,-5.2955,-5.2999,-5.2999,-4.2929,-4.3459,-4.4202,-4.4686,-4.5032,-4.5264,-4.5441,-4.5441,-4.5441,-4.5441,-4.5441,-4.5441,-4.5441,-4.5441,-4.5441,-4.5441,-4.5441,-4.5441,-4.5441,-4.5441,-4.5441,-4.5441,-4.5441,-4.5441,-4.5441,-4.5441,-4.5441,-4.5441,-4.5441,-4.5441,-4.5441,-4.5458,-4.5699,-4.6096,-4.6562,-4.6855,-4.7372,-4.8079,-4.8545,-4.8959,-4.9269,-4.9735,-5.0011,-5.0011,-5.0011,-5.0011,-5.0011,-5.0011,-5.0011,-5.0011,-5.0011,-5.0011,-5.0011,-5.0092,-5.0246,-5.0453,-5.0564,-5.0712,-5.0946,-5.1035,-5.121,-5.1418,-5.1554,-5.1672,-5.1722,-5.1889,-5.1956,-5.1938,-5.1938,-5.1822,-5.1804,-5.1722,-5.1622,-5.1672,-5.1987,-5.2198,-5.2246,-5.2369,-5.2508,-5.2508,-5.2554,-5.2536,-5.249,-5.2536,-5.2536,-5.2554,-5.2581,-5.2627,-5.269,-5.2717,-5.2761,-5.2761,-5.2806,-5.2779,-5.2581,-5.2554,-5.2599,-5.2599,-5.2672,-5.269,-5.2761,-5.2761,-5.2806,-5.2912,-5.2912,-5.2955,-5.2955,-5.3017,-5.3017,-5.3017,-5.3017,-5.3017,-5.3121,-5.3103,-5.3121,-4.3096,-4.3638,-4.4276,-4.4686,-4.5049,-4.5264,-4.5441,-4.5441,-4.5441,-4.5441,-4.5441,-4.5441,-4.5441,-4.5441,-4.5441,-4.5441,-4.5441,-4.5441,-4.5441,-4.5441,-4.5441,-4.5441,-4.5441,-4.5441,-4.5441,-4.5441,-4.5441,-4.5441,-4.5441,-4.5441,-4.5441,-4.5441,-4.5441,-4.5682,-4.6148,-4.6217,-4.6596,-4.732,-4.7855,-4.8183,-4.851,-4.9217,-4.9631,-4.9666,-4.9873,-5.0011,-5.0011,-5.0011,-5.0011,-5.0011,-5.0051,-5.0109,-5.0206,-5.0285,-5.0492,-5.0749,-5.0893,-5.107,-5.1383,-5.1536,-5.1754,-5.1938,-5.2066,-5.2132,-5.2162,-5.2275,-5.2304,-5.2304,-5.2304,-5.2351,-5.2415,-5.2322,-5.218,-5.218,-5.2415,-5.2572,-5.2618,-5.2735,-5.2761,-5.2761,-5.2761,-5.2761,-5.2806,-5.2806,-5.2761,-5.2806,-5.2806,-5.285,-5.285,-5.2912,-5.293,-5.2912,-5.2955,-5.2974,-5.293,-5.2886,-5.2824,-5.285,-5.2806,-5.2868,-5.2912,-5.2912,-5.2912,-5.2999,-5.3085,-5.3103,-5.3164,-5.3164,-5.3206,-5.3206,-5.3164,-5.3121,-5.3164,-5.3164,-5.3059,-4.3295,-4.3638,-4.4276,-4.4669,-4.5032,-4.5264,-4.5441,-4.5441,-4.5441,-4.5441,-4.5441,-4.5441,-4.5441,-4.5441,-4.5441,-4.5441,-4.5441,-4.5441,-4.5441,-4.5441,-4.5441,-4.5441,-4.5441,-4.5441,-4.5441,-4.5441,-4.5441,-4.5441,-4.5441,-4.5441,-4.5441,-4.5441,-4.5441,-4.5475,-4.5422,-4.5579,-4.5872,-4.6475,-4.6751,-4.7079,-4.77,-4.8441,-4.8821,-4.8907,-4.9476,-4.9804,-4.9873,-4.9959,-5.0011,-5.0051,-5.0132,-5.0341,-5.053,-5.064,-5.0803,-5.1158,-5.121,-5.1452,-5.1858,-5.2054,-5.2228,-5.2387,-5.2536,-5.2608,-5.2672,-5.2717,-5.2717,-5.2717,-5.2717,-5.2761,-5.2761,-5.2779,-5.2672,-5.2635,-5.2698,-5.2779,-5.2824,-5.2824,-5.2806,-5.2806,-5.2868,-5.2806,-5.2806,-5.2868,-5.2868,-5.2868,-5.2937,-5.298,-5.2999,-5.306,-5.3164,-5.3164,-5.3103,-5.3121,-5.3164,-5.3164,-5.3103,-5.3042,-5.2999,-5.2999,-5.306,-5.306,-5.306,-5.3146,-5.3146,-5.3164,-5.3164,-5.3206,-5.3206,-5.3206,-5.3206,-5.3188,-5.3188,-5.3096,-5.2674,-4.3279,-4.3638,-4.4259,-4.4669,-4.5032,-4.5318,-4.5441,-4.5441,-4.5441,-4.5441,-4.5441,-4.5441,-4.5441,-4.5441,-4.5441,-4.5441,-4.5441,-4.5441,-4.5441,-4.5441,-4.5441,-4.5441,-4.5441,-4.5441,-4.5441,-4.5441,-4.5441,-4.5441,-4.5441,-4.5441,-4.5441,-4.5441,-4.5441,-4.5441,-4.5441,-4.5441,-4.5596,-4.582,-4.6337,-4.6734,-4.701,-4.7665,-4.8062,-4.8096,-4.8303,-4.8424,-4.8476,-4.9441,-5.0017,-5.0097,-5.0246,-5.0547,-5.091,-5.1087,-5.1331,-5.1672,-5.1835,-5.1982,-5.2275,-5.2462,-5.2599,-5.269,-5.2698,-5.2743,-5.2806,-5.2787,-5.2769,-5.2787,-5.2806,-5.2806,-5.2912,-5.2955,-5.285,-5.2743,-5.285,-5.2955,-5.2937,-5.2999,-5.3078,-5.306,-5.306,-5.306,-5.306,-5.306,-5.306,-5.3078,-5.3103,-5.3103,-5.3164,-5.3164,-5.3206,-5.3206,-5.3206,-5.3206,-5.3206,-5.3206,-5.3146,-5.3103,-5.3103,-5.3085,-5.3164,-5.3206,-5.3206,-5.3206,-5.3206,-5.3206,-5.3206,-5.3206,-5.3206,-5.317,-5.3151,-5.3151,-5.3151,-5.2784,-5.2215,-4.3279,-4.3638,-4.4276,-4.4686,-4.5049,-4.5247,-4.5441,-4.5441,-4.5441,-4.5441,-4.5441,-4.5441,-4.5441,-4.5441,-4.5441,-4.5441,-4.5441,-4.5441,-4.5441,-4.5441,-4.5441,-4.5441,-4.5441,-4.5441,-4.5441,-4.5441,-4.5441,-4.5441,-4.5441,-4.5441,-4.5441,-4.5441,-4.5441,-4.5441,-4.5441,-4.5441,-4.5441,-4.551,-4.5906,-4.6165,-4.632,-4.6906,-4.7303,-4.7338,-4.7579,-4.77,-4.7786,-4.8739,-4.9262,-4.9465,-4.9878,-5.0576,-5.1296,-5.1586,-5.1804,-5.2084,-5.2239,-5.2408,-5.2599,-5.2779,-5.2868,-5.2831,-5.2638,-5.2498,-5.2498,-5.2517,-5.2498,-5.2517,-5.2773,-5.2955,-5.306,-5.3042,-5.2999,-5.2974,-5.3017,-5.306,-5.3103,-5.3164,-5.3164,-5.3164,-5.3164,-5.3206,-5.3206,-5.3206,-5.3206,-5.3206,-5.3206,-5.3206,-5.3206,-5.3206,-5.3206,-5.3206,-5.3206,-5.3206,-5.3206,-5.3206,-5.3206,-5.3164,-5.3164,-5.3164,-5.3206,-5.3206,-5.3206,-5.3206,-5.3206,-5.3206,-5.3206,-5.3206,-5.3206,-5.3151,-5.2986,-5.2711,-5.2472,-5.1958,-5.1408,-4.3295,-4.3638,-4.4276,-4.4669,-4.5049,-4.5247,-4.5441,-4.5441,-4.5441,-4.5441,-4.5441,-4.5441,-4.5441,-4.5441,-4.5441,-4.5441,-4.5388,-4.5371,-4.5371,-4.5371,-4.5371,-4.5371,-4.5371,-4.5441,-4.5441,-4.5441,-4.5441,-4.5441,-4.5441,-4.5441,-4.5441,-4.5441,-4.5441,-4.5441,-4.5441,-4.5441,-4.5441,-4.5441,-4.5475,-4.5527,-4.5544,-4.6148,-4.6544,-4.6544,-4.7079,-4.7389,-4.7444,-4.7674,-4.7922,-4.8114,-4.9311,-5.0376,-5.1351,-5.1843,-5.1921,-5.2136,-5.24,-5.2363,-5.2587,-5.2553,-5.2651,-5.256,-5.2168,-5.1922,-5.1899,-5.188,-5.188,-5.1917,-5.2449,-5.2871,-5.2852,-5.2962,-5.2999,-5.3206,-5.3164,-5.3164,-5.3206,-5.3206,-5.3206,-5.3206,-5.3206,-5.3206,-5.3206,-5.3206,-5.3206,-5.3206,-5.3206,-5.3206,-5.3206,-5.3206,-5.3206,-5.3206,-5.3206,-5.3206,-5.3206,-5.3206,-5.3206,-5.3206,-5.3206,-5.3206,-5.3206,-5.3206,-5.3206,-5.3206,-5.3151,-5.317,-5.3133,-5.3059,-5.2968,-5.2821,-5.2527,-5.2123,-5.1665,-5.1187,-5.071,-4.3174,-4.3638,-4.4276,-4.4686,-4.5032,-4.5247,-4.5423,-4.5441,-4.5441,-4.5441,-4.5441,-4.5441,-4.5441,-4.5441,-4.5441,-4.5441,-4.5371,-4.53,-4.523,-4.5247,-4.5157,-4.5264,-4.5371,-4.5423,-4.5371,-4.5371,-4.5371,-4.5441,-4.5441,-4.5441,-4.5441,-4.5441,-4.5441,-4.5441,-4.5441,-4.5441,-4.5441,-4.5441,-4.5441,-4.5441,-4.5458,-4.5613,-4.5734,-4.5751,-4.6011,-4.6238,-4.6203,-4.6464,-4.7364,-4.8553,-4.9135,-4.9758,-5.0505,-5.0706,-5.0921,-5.1053,-5.1128,-5.1158,-5.1237,-5.1357,-5.144,-5.1385,-5.1257,-5.1132,-5.1114,-5.1114,-5.1114,-5.1151,-5.1371,-5.1499,-5.1573,-5.1977,-5.2491,-5.3096,-5.3059,-5.3096,-5.3206,-5.3206,-5.3206,-5.3206,-5.3206,-5.3206,-5.3206,-5.3206,-5.3206,-5.3206,-5.3206,-5.3206,-5.3206,-5.3206,-5.3206,-5.3206,-5.3206,-5.3206,-5.3206,-5.3206,-5.3206,-5.3206,-5.3206,-5.3206,-5.3206,-5.3206,-5.3206,-5.3206,-5.2986,-5.2949,-5.2821,-5.2729,-5.2601,-5.2307,-5.172,-5.1169,-5.0912,-5.0508,-5.0068,-4.3174,-4.3638,-4.4162,-4.4631,-4.4978,-4.5247,-4.5353,-4.5371,-4.5441,-4.5441,-4.5441,-4.5441,-4.5441,-4.5441,-4.5441,-4.5371,-4.53,-4.523,-4.5194,-4.5123,-4.5032,-4.5103,-4.5211,-4.5194,-4.5247,-4.53,-4.5318,-4.5371,-4.5388,-4.5441,-4.5441,-4.5441,-4.5441,-4.5441,-4.5441,-4.5441,-4.5441,-4.5441,-4.5441,-4.5441,-4.5441,-4.5441,-4.5441,-4.5476,-4.5615,-4.5752,-4.6005,-4.6253,-4.7095,-4.8245,-4.877,-4.9241,-5.0027,-5.0221,-5.0375,-5.0459,-5.0602,-5.0703,-5.0684,-5.0762,-5.0802,-5.0747,-5.0563,-5.0306,-5.0288,-5.0288,-5.0288,-5.0306,-5.0582,-5.0784,-5.0875,-5.1242,-5.1683,-5.2032,-5.2215,-5.2472,-5.3078,-5.3206,-5.3206,-5.3206,-5.3206,-5.3206,-5.3206,-5.3206,-5.3206,-5.3206,-5.3206,-5.3206,-5.3206,-5.3206,-5.3206,-5.3206,-5.3206,-5.3206,-5.3206,-5.3206,-5.3206,-5.3206,-5.3041,-5.3078,-5.3078,-5.3059,-5.2949,-5.2876,-5.2784,-5.2582,-5.2289,-5.1995,-5.1701,-5.1298,-5.071,-5.0343,-5.0105,-4.9829,-4.9389,-4.3113,-4.3578,-4.4064,-4.4536,-4.4978,-4.5123,-4.53,-4.5371,-4.5441,-4.5441,-4.5441,-4.5441,-4.5371,-4.5371,-4.5371,-4.5318,-4.5177,-4.5123,-4.5015,-4.4978,-4.494,-4.494,-4.494,-4.5049,-4.5086,-4.5177,-4.5177,-4.53,-4.5371,-4.5441,-4.5441,-4.5441,-4.5441,-4.5441,-4.5441,-4.5441,-4.5441,-4.5441,-4.5441,-4.5441,-4.5423,-4.5423,-4.5528,-4.5667,-4.5854,-4.6186,-4.6495,-4.672,-4.7086,-4.795,-4.8153,-4.8749,-4.9691,-5.0041,-5.013,-5.0163,-5.0171,-5.0285,-5.0453,-5.0306,-5.0435,-5.0251,-4.9738,-4.9462,-4.9444,-4.9444,-4.9444,-4.9444,-5.0141,-5.0343,-5.0563,-5.0655,-5.082,-5.1041,-5.0967,-5.1573,-5.2546,-5.3041,-5.3115,-5.3206,-5.3206,-5.3206,-5.3206,-5.3206,-5.3206,-5.3206,-5.3206,-5.3206,-5.3206,-5.3206,-5.3206,-5.3206,-5.3206,-5.3206,-5.3206,-5.3206,-5.3206,-5.3188,-5.2894,-5.2784,-5.2784,-5.2729,-5.2546,-5.2399,-5.216,-5.1756,-5.1298,-5.1004,-5.0747,-5.0435,-4.9958,-4.9664,-4.9389,-4.9077,-4.8673,-4.2789,-4.3218,-4.3906,-4.444,-4.4831,-4.5086,-4.5247,-4.5371,-4.5388,-4.5371,-4.5388,-4.5388,-4.53,-4.5247,-4.5247,-4.5194,-4.5015,-4.4923,-4.4831,-4.4665,-4.4682,-4.4682,-4.4737,-4.4903,-4.5086,-4.5194,-4.5177,-4.5247,-4.5371,-4.5441,-4.5441,-4.5441,-4.5441,-4.5441,-4.5441,-4.5441,-4.5441,-4.5441,-4.5441,-4.5423,-4.5441,-4.5528,-4.5615,-4.5803,-4.6186,-4.6637,-4.698,-4.7088,-4.7295,-4.7641,-4.7775,-4.8067,-4.8543,-4.8725,-4.8864,-4.8943,-4.8928,-4.893,-4.8893,-4.9003,-4.8893,-4.8985,-4.8893,-4.8581,-4.8581,-4.8636,-4.8618,-4.86,-4.8765,-4.926,-4.9738,-4.9829,-5.0068,-5.0435,-5.0637,-5.082,-5.1334,-5.1885,-5.2454,-5.2931,-5.3078,-5.3188,-5.317,-5.3115,-5.3133,-5.3188,-5.3206,-5.3206,-5.3206,-5.3206,-5.3206,-5.3206,-5.3206,-5.3206,-5.3151,-5.3023,-5.2766,-5.2637,-5.238,-5.2252,-5.2252,-5.205,-5.1756,-5.1573,-5.1463,-5.0986,-5.038,-5.0086,-4.9829,-4.9517,-4.926,-4.9022,-4.8746,-4.8398,-4.8324,-4.2054,-4.2561,-4.3403,-4.4097,-4.4536,-4.4797,-4.5015,-4.5194,-4.5211,-4.5194,-4.5194,-4.5211,-4.5194,-4.5123,-4.5069,-4.5015,-4.4869,-4.4793,-4.4682,-4.4626,-4.457,-4.457,-4.4626,-4.4776,-4.4978,-4.5086,-4.5086,-4.5211,-4.5371,-4.5441,-4.5441,-4.5441,-4.5441,-4.5441,-4.5441,-4.5441,-4.5441,-4.5441,-4.5441,-4.5423,-4.5528,-4.5581,-4.5871,-4.6137,-4.6572,-4.698,-4.7399,-4.7443,-4.7572,-4.7765,-4.7847,-4.7888,-4.805,-4.8148,-4.8226,-4.8286,-4.8324,-4.8324,-4.8324,-4.8324,-4.8361,-4.8324,-4.8324,-4.8324,-4.8324,-4.8324,-4.8324,-4.8324,-4.8379,-4.8563,-4.893,-4.8985,-4.9297,-4.9462,-4.9646,-4.9793,-5.0251,-5.093,-5.1536,-5.1977,-5.1977,-5.2252,-5.2435,-5.2601,-5.2931,-5.2931,-5.3096,-5.3115,-5.3206,-5.3206,-5.3206,-5.3206,-5.3206,-5.317,-5.3096,-5.2784,-5.2215,-5.1922,-5.1536,-5.1463,-5.1444,-5.1132,-5.0784,-5.0692,-5.0582,-5.0013,-4.9462,-4.9187,-4.904,-4.8875,-4.8673,-4.8416,-4.8324,-4.8324,-4.8324,-4.1064,-4.1601,-4.2714,-4.3488,-4.4085,-4.4395,-4.4742,-4.4995,-4.4995,-4.5049,-4.4995,-4.4995,-4.5032,-4.4995,-4.4978,-4.4869,-4.4776,-4.4682,-4.457,-4.457,-4.457,-4.4626,-4.4682,-4.4776,-4.4923,-4.5032,-4.5086,-4.5211,-4.5371,-4.5441,-4.5441,-4.5441,-4.5441,-4.5441,-4.5441,-4.5441,-4.5441,-4.5441,-4.5441,-4.5476,-4.5581,-4.5667,-4.6005,-4.659,-4.6962,-4.7294,-4.7615,-4.7759,-4.7806,-4.801,-4.813,-4.8187,-4.8226,-4.8226,-4.8208,-4.8306,-4.8324,-4.8324,-4.8324,-4.8324,-4.8324,-4.8324,-4.8324,-4.8324,-4.8324,-4.8324,-4.8324,-4.8324,-4.8343,-4.8343,-4.8324,-4.8434,-4.8416,-4.8434,-4.8379,-4.8673,-4.9297,-5.005,-5.038,-5.0949,-5.1224,-5.1499,-5.1683,-5.1848,-5.2289,-5.2674,-5.2821,-5.2913,-5.2931,-5.2858,-5.2656,-5.2472,-5.2307,-5.2252,-5.2179,-5.2142,-5.1628,-5.1242,-5.0784,-5.0637,-5.0545,-5.0086,-4.9756,-4.9774,-4.9554,-4.9114,-4.8838,-4.871,-4.8545,-4.8324,-4.8324,-4.8324,-4.8324,-4.8324,-4.8324,-3.9802,-4.0222,-4.1541,-4.2433,-4.313,-4.4047,-4.4618,-4.4978,-4.4927,-4.4978,-4.4995,-4.4995,-4.4923,-4.4814,-4.4831,-4.4737,-4.4682,-4.4626,-4.457,-4.457,-4.457,-4.4626,-4.4737,-4.4793,-4.494,-4.514,-4.5194,-4.5247,-4.5371,-4.5441,-4.5441,-4.5441,-4.5441,-4.5441,-4.5441,-4.5441,-4.5441,-4.5423,-4.5423,-4.5476,-4.5667,-4.5905,-4.635,-4.698,-4.7338,-4.7615,-4.7801,-4.7907,-4.801,-4.8148,-4.8187,-4.8226,-4.8304,-4.8286,-4.8267,-4.8306,-4.8324,-4.8324,-4.8324,-4.8324,-4.8324,-4.8324,-4.8324,-4.8324,-4.8324,-4.8324,-4.8324,-4.8324,-4.8324,-4.8324,-4.8324,-4.8324,-4.8324,-4.8324,-4.8343,-4.8398,-4.86,-4.8875,-4.9444,-5.0233,-5.0563,-5.0747,-5.0894,-5.1041,-5.1353,-5.1628,-5.1775,-5.1775,-5.1756,-5.1628,-5.1426,-5.1261,-5.1114,-5.1096,-5.1059,-5.1077,-5.0875,-5.0545,-5.016,-4.9811,-4.9554,-4.8985,-4.8746,-4.904,-4.8985,-4.8655,-4.8416,-4.8324,-4.8324,-4.8324,-4.8324,-4.8324,-4.8324,-4.8324,-4.8324,-3.8857,-3.9213,-4.0389,-4.1222,-4.1964,-4.2622,-4.3401,-4.4037,-4.4071,-4.4347,-4.4691,-4.4776,-4.4793,-4.4737,-4.4682,-4.4626,-4.4626,-4.457,-4.457,-4.457,-4.457,-4.4682,-4.4831,-4.4886,-4.5032,-4.5194,-4.5247,-4.53,-4.5353,-4.5441,-4.5441,-4.5441,-4.5441,-4.5441,-4.5441,-4.5441,-4.5441,-4.5423,-4.5476,-4.5632,-4.5854,-4.6235,-4.6778,-4.7187,-4.7529,-4.7783,-4.7947,-4.8068,-4.813,-4.8229,-4.8247,-4.8286,-4.8286,-4.8324,-4.8324,-4.8324,-4.8324,-4.8324,-4.8324,-4.8324,-4.8324,-4.8324,-4.8324,-4.8324,-4.8324,-4.8324,-4.8324,-4.8324,-4.8324,-4.8324,-4.8324,-4.8324,-4.8324,-4.8324,-4.8324,-4.8324,-4.8324,-4.8324,-4.8875,-4.9554,-4.9444,-4.9627,-5.0105,-5.027,-5.0417,-5.0582,-5.071,-5.0692,-5.0618,-5.0563,-5.0453,-5.0508,-5.0453,-5.0306,-5.0251,-5.016,-5.0086,-4.9774,-4.9554,-4.9205,-4.8967,-4.8563,-4.8508,-4.8673,-4.8471,-4.8324,-4.8324,-4.8324,-4.8324,-4.8324,-4.8324,-4.8324,-4.8324,-4.8324,-4.8324,-3.7903,-3.8273,-3.9304,-4.0151,-4.0787,-4.1312,-4.2088,-4.2841,-4.3019,-4.3377,-4.4062,-4.4096,-4.4185,-4.435,-4.4502,-4.457,-4.457,-4.457,-4.457,-4.457,-4.457,-4.4682,-4.4848,-4.494,-4.5086,-4.5247,-4.53,-4.5441,-4.5423,-4.5441,-4.5441,-4.5441,-4.5441,-4.5441,-4.5441,-4.5441,-4.5441,-4.5423,-4.5528,-4.577,-4.6204,-4.6684,-4.716,-4.7345,-4.7639,-4.7847,-4.805,-4.813,-4.8247,-4.8286,-4.8324,-4.8324,-4.8324,-4.8324,-4.8324,-4.8324,-4.8324,-4.8324,-4.8324,-4.8324,-4.8324,-4.8324,-4.8324,-4.8324,-4.8324,-4.8324,-4.8324,-4.8324,-4.8324,-4.8324,-4.8324,-4.8324,-4.8324,-4.8324,-4.8324,-4.8324,-4.8324,-4.8324,-4.8324,-4.8563,-4.8324,-4.8636,-4.926,-4.9334,-4.9462,-4.9536,-4.9682,-4.9738,-4.9682,-4.9811,-4.9811,-4.9958,-4.9921,-4.9682,-4.9517,-4.9334,-4.9187,-4.893,-4.8838,-4.8673,-4.8545,-4.8361,-4.8416,-4.8489,-4.8416,-4.8324,-4.8324,-4.8324,-4.8324,-4.8324,-4.8324,-4.8324,-4.8324,-4.8324,-4.8324,-3.6863,-3.7293,-3.8391,-3.9216,-3.9928,-4.0958,-4.1738,-4.2169,-4.224,-4.2365,-4.276,-4.2675,-4.3031,-4.3572,-4.4282,-4.4502,-4.4536,-4.457,-4.457,-4.457,-4.4626,-4.4737,-4.494,-4.4995,-4.514,-4.53,-4.5353,-4.5423,-4.5441,-4.5441,-4.5441,-4.5441,-4.5441,-4.5441,-4.5441,-4.5441,-4.5441,-4.5441,-4.5581,-4.5905,-4.6495,-4.698,-4.7312,-4.7615,-4.7847,-4.801,-4.8148,-4.8226,-4.8286,-4.8324,-4.8324,-4.8324,-4.8324,-4.8324,-4.8324,-4.8324,-4.8324,-4.8324,-4.8324,-4.8324,-4.8324,-4.8324,-4.8324,-4.8324,-4.8324,-4.8324,-4.8324,-4.8324,-4.8324,-4.8324,-4.8324,-4.8324,-4.8324,-4.8324,-4.8324,-4.8324,-4.8324,-4.8324,-4.8324,-4.8324,-4.8324,-4.8324,-4.8618,-4.8545,-4.8489,-4.8563,-4.8636,-4.8746,-4.8857,-4.9058,-4.9114,-4.9242,-4.9297,-4.9095,-4.904,-4.882,-4.8673,-4.8324,-4.8324,-4.8324,-4.8324,-4.8324,-4.8324,-4.8361,-4.8324,-4.8324,-4.8324,-4.8324,-4.8324,-4.8324,-4.8324,-4.8324,-4.8324,-4.8324,-4.8324,-3.6616,-3.6877,-3.7568,-3.8157,-3.8746,-3.9527,-4.0393,-4.1147,-4.1322,-4.1718,-4.2236,-4.2303,-4.2489,-4.2912,-4.3589,-4.3893,-4.4012,-4.435,-4.457,-4.457,-4.4626,-4.4682,-4.4886,-4.4978,-4.514,-4.5247,-4.5371,-4.5423,-4.5441,-4.5441,-4.5441,-4.5441,-4.5441,-4.5441,-4.5423,-4.5441,-4.5476,-4.5632,-4.5972,-4.6398,-4.6888,-4.7267,-4.759,-4.7819,-4.7988,-4.8148,-4.8187,-4.8247,-4.8324,-4.8324,-4.8324,-4.8324,-4.8324,-4.8324,-4.8324,-4.8324,-4.8324,-4.8324,-4.8324,-4.8324,-4.8324,-4.8324,-4.8324,-4.8324,-4.8324,-4.8324,-4.8324,-4.8324,-4.8324,-4.8324,-4.8324,-4.8324,-4.8324,-4.8324,-4.8324,-4.8324,-4.8324,-4.8324,-4.8324,-4.8324,-4.8324,-4.8324,-4.8324,-4.8343,-4.8361,-4.8416,-4.8471,-4.8508,-4.8526,-4.8563,-4.8563,-4.8526,-4.8545,-4.8489,-4.8526,-4.8471,-4.8526,-4.8324,-4.8324,-4.8324,-4.8324,-4.8324,-4.8324,-4.8324,-4.8324,-4.8324,-4.8324,-4.8324,-4.8324,-4.8324,-4.8324,-4.8324,-4.8324,-4.8324,-4.8324,-3.6554,-3.6662,-3.7089,-3.7476,-3.7927,-3.8399,-3.9226,-4.0197,-4.0461,-4.0975,-4.1589,-4.188,-4.1999,-4.2202,-4.2777,-4.3267,-4.3487,-4.4028,-4.4384,-4.4502,-4.4626,-4.4665,-4.4776,-4.4923,-4.5032,-4.5177,-4.53,-4.5371,-4.5371,-4.5441,-4.5441,-4.5441,-4.5441,-4.5441,-4.5423,-4.5476,-4.5563,-4.5803,-4.6284,-4.6731,-4.7133,-4.7486,-4.7699,-4.7925,-4.8087,-4.8206,-4.8226,-4.8286,-4.8324,-4.8324,-4.8324,-4.8324,-4.8324,-4.8324,-4.8324,-4.8324,-4.8324,-4.8324,-4.8324,-4.8324,-4.8324,-4.8324,-4.8324,-4.8324,-4.8324,-4.8324,-4.8324,-4.8324,-4.8324,-4.8324,-4.8324,-4.8324,-4.8324,-4.8324,-4.8324,-4.8324,-4.8324,-4.8324,-4.8324,-4.8324,-4.8324,-4.8324,-4.8324,-4.8324,-4.8324,-4.8324,-4.8324,-4.8324,-4.8324,-4.8324,-4.8324,-4.8324,-4.8324,-4.8324,-4.8324,-4.8324,-4.8324,-4.8324,-4.8324,-4.8324,-4.8324,-4.8324,-4.8324,-4.8324,-4.8324,-4.8324,-4.8324,-4.8324,-4.8324,-4.8324,-4.8324,-4.8324,-4.8324,-4.8324,-4.8324,-3.6492,-3.6554,-3.7013,-3.7492,-3.7886,-3.8399,-3.8909,-3.9491,-3.9707,-3.9982,-4.039,-4.0881,-4.1288,-4.1474,-4.2033,-4.2709,-4.3318,-4.3453,-4.391,-4.4333,-4.4626,-4.4682,-4.4776,-4.4831,-4.4923,-4.5123,-4.523,-4.53,-4.5371,-4.5441,-4.5441,-4.5441,-4.5441,-4.5441,-4.5476,-4.5563,-4.5854,-4.6154,-4.6542,-4.6824,-4.7223,-4.7529,-4.7824,-4.797,-4.813,-4.8226,-4.8267,-4.8306,-4.8324,-4.8324,-4.8324,-4.8324,-4.8324,-4.8324,-4.8324,-4.8324,-4.8324,-4.8324,-4.8324,-4.8324,-4.8324,-4.8324,-4.8324,-4.8324,-4.8324,-4.8324,-4.8324,-4.8324,-4.8324,-4.8324,-4.8324,-4.8324,-4.8324,-4.8324,-4.8324,-4.8324,-4.8324,-4.8324,-4.8324,-4.8324,-4.8324,-4.8324,-4.8324,-4.8324,-4.8324,-4.8324,-4.8324,-4.8324,-4.8324,-4.8324,-4.8324,-4.8324,-4.8324,-4.8324,-4.8324,-4.8324,-4.8324,-4.8324,-4.8324,-4.8324,-4.8324,-4.8324,-4.8324,-4.8324,-4.8324,-4.8324,-4.8324,-4.8324,-4.8324,-4.8324,-4.8324,-4.8324,-4.8324,-4.8324,-4.8324,-3.6492,-3.6554,-3.6923,-3.721,-3.7519,-3.8042,-3.8583,-3.9023,-3.9504,-3.9816,-4.0054,-4.0392,-4.051,-4.073,-4.1255,-4.1762,-4.2185,-4.3115,-4.3521,-4.3944,-4.4265,-4.4575,-4.4665,-4.4776,-4.4869,-4.5086,-4.5123,-4.523,-4.5353,-4.5423,-4.5441,-4.5441,-4.5441,-4.5476,-4.5581,-4.5821,-4.6186,-4.6542,-4.6842,-4.7133,-4.7363,-4.7681,-4.7929,-4.7992,-4.819,-4.8286,-4.8324,-4.8324,-4.8324,-4.8324,-4.8324,-4.8324,-4.8324,-4.8324,-4.8324,-4.8324,-4.8324,-4.8324,-4.8324,-4.8324,-4.8324,-4.8324,-4.8324,-4.8324,-4.8324,-4.8324,-4.8324,-4.8324,-4.8324,-4.8324,-4.8324,-4.8324,-4.8324,-4.8324,-4.8324,-4.8324,-4.8324,-4.8324,-4.8324,-4.8324,-4.8324,-4.8324,-4.8324,-4.8324,-4.8324,-4.8324,-4.8324,-4.8324,-4.8324,-4.8324,-4.8324,-4.8324,-4.8324,-4.8324,-4.8324,-4.8324,-4.8324,-4.8324,-4.8324,-4.8324,-4.8324,-4.8324,-4.8324,-4.8324,-4.8324,-4.8324,-4.8324,-4.8324,-4.8324,-4.8324,-4.8324,-4.8324,-4.8324,-4.8324,-4.8324,-3.6554,-3.66,-3.68,-3.7044,-3.7238,-3.7886,-3.8399,-3.8805,-3.9415,-3.9833,-4.007,-4.0087,-4.0087,-4.0257,-4.0578,-4.1085,-4.1576,-4.2439,-4.3081,-4.3656,-4.4181,-4.4502,-4.4626,-4.4737,-4.4886,-4.4978,-4.514,-4.5247,-4.5371,-4.5423,-4.5441,-4.5441,-4.5476,-4.5528,-4.577,-4.6105,-4.6525,-4.6888,-4.7116,-4.7356,-4.7554,-4.7829,-4.805,-4.809,-4.8229,-4.8267,-4.8324,-4.8324,-4.8324,-4.8324,-4.8324,-4.8324,-4.8324,-4.8324,-4.8324,-4.8324,-4.8324,-4.8324,-4.8324,-4.8324,-4.8324,-4.8324,-4.8324,-4.8324,-4.8324,-4.8324,-4.8324,-4.8324,-4.8324,-4.8324,-4.8324,-4.8324,-4.8324,-4.8324,-4.8324,-4.8324,-4.8324,-4.8324,-4.8324,-4.8324,-4.8324,-4.8324,-4.8324,-4.8324,-4.8324,-4.8324,-4.8324,-4.8324,-4.8324,-4.8324,-4.8324,-4.8324,-4.8324,-4.8324,-4.8324,-4.8324,-4.8324,-4.8324,-4.8324,-4.8324,-4.8324,-4.8324,-4.8324,-4.8324,-4.8324,-4.8324,-4.8324,-4.8324,-4.8324,-4.8324,-4.8324,-4.8324,-4.8324,-4.8324,-4.8324,-3.6616,-3.6723,-3.6723,-3.6907,-3.7314,-3.8049,-3.8488,-3.875,-3.9398,-3.9833,-4.007,-4.0087,-4.0087,-4.0104,-4.0257,-4.0544,-4.1119,-4.1914,-4.2625,-4.3301,-4.3978,-4.4401,-4.4626,-4.472,-4.4886,-4.4978,-4.514,-4.5247,-4.5441,-4.5441,-4.5441,-4.5476,-4.5581,-4.577,-4.5837,-4.6332,-4.6778,-4.7133,-4.7294,-4.7468,-4.7681,-4.7911,-4.805,-4.8169,-4.8229,-4.8324,-4.8324,-4.8324,-4.8324,-4.8324,-4.8324,-4.8324,-4.8324,-4.8324,-4.8324,-4.8324,-4.8324,-4.8324,-4.8324,-4.8324,-4.8324,-4.8324,-4.8324,-4.8324,-4.8324,-4.8324,-4.8324,-4.8324,-4.8324,-4.8324,-4.8324,-4.8324,-4.8324,-4.8324,-4.8324,-4.8324,-4.8324,-4.8324,-4.8324,-4.8324,-4.8324,-4.8324,-4.8324,-4.8324,-4.8324,-4.8324,-4.8324,-4.8324,-4.8324,-4.8324,-4.8324,-4.8324,-4.8324,-4.8324,-4.8324,-4.8324,-4.8324,-4.8324,-4.8324,-4.8324,-4.8324,-4.8324,-4.8324,-4.8324,-4.8324,-4.8324,-4.8324,-4.8324,-4.8324,-4.8324,-4.8324,-4.8324,-4.8324,-4.8324,-4.8324,-3.66,-3.6723,-3.6952,-3.721,-3.7567,-3.8017,-3.8359,-3.8694,-3.9329,-3.9816,-4.007,-4.0087,-4.0087,-4.0087,-4.0087,-4.0257,-4.0561,-4.1238,-4.1965,-4.2726,-4.3521,-4.4113,-4.4456,-4.472,-4.4869,-4.4978,-4.514,-4.53,-4.5441,-4.5441,-4.5441,-4.5476,-4.577,-4.6105,-4.635,-4.6731,-4.7088,-4.7443,-4.7572,-4.7699,-4.7888,-4.805,-4.8148,-4.8169,-4.8286,-4.8324,-4.8324,-4.8324,-4.8324,-4.8324,-4.8324,-4.8324,-4.8324,-4.8324,-4.8324,-4.8324,-4.8324,-4.8324,-4.8324,-4.8324,-4.8324,-4.8324,-4.8324,-4.8324,-4.8324,-4.8324,-4.8324,-4.8324,-4.8324,-4.8324,-4.8324,-4.8324,-4.8324,-4.8324,-4.8324,-4.8324,-4.8324,-4.8324,-4.8324,-4.8324,-4.8324,-4.8324,-4.8324,-4.8324,-4.8324,-4.8324,-4.8324,-4.8324,-4.8324,-4.8324,-4.8324,-4.8324,-4.8324,-4.8324,-4.8324,-4.8324,-4.8324,-4.8324,-4.8324,-4.8324,-4.8324,-4.8324,-4.8324,-4.8324,-4.8324,-4.8324,-4.8324,-4.8324,-4.8324,-4.8324,-4.8324,-4.8324,-4.8324,-4.8324,-4.8324,-3.6616,-3.6862,-3.7074,-3.7433,-3.786,-3.8173,-3.8511,-3.9007,-3.952,-3.9833,-4.0087,-4.0087,-4.0087,-4.0087,-4.0087,-4.0087,-4.0172,-4.0865,-4.161,-4.232,-4.3081,-4.3914,-4.4478,-4.4793,-4.4923,-4.5069,-4.5194,-4.5371,-4.5441,-4.5441,-4.5476,-4.5615,-4.5955,-4.6301,-4.6637,-4.7025,-4.7312,-4.7615,-4.7759,-4.7866,-4.801,-4.813,-4.8187,-4.8247,-4.8286,-4.8324,-4.8324,-4.8324,-4.8324,-4.8324,-4.8324,-4.8324,-4.8324,-4.8324,-4.8324,-4.8324,-4.8324,-4.8324,-4.8324,-4.8324,-4.8324,-4.8324,-4.8324,-4.8324,-4.8324,-4.8324,-4.8324,-4.8324,-4.8324,-4.8324,-4.8324,-4.8324,-4.8324,-4.8324,-4.8324,-4.8324,-4.8324,-4.8324,-4.8324,-4.8324,-4.8324,-4.8324,-4.8324,-4.8324,-4.8324,-4.8324,-4.8324,-4.8324,-4.8324,-4.8324,-4.8324,-4.8324,-4.8324,-4.8324,-4.8324,-4.8324,-4.8324,-4.8324,-4.8324,-4.8324,-4.8324,-4.8324,-4.8324,-4.8324,-4.8324,-4.8324,-4.8324,-4.8324,-4.8324,-4.8324,-4.8324,-4.8324,-4.8324,-4.8324,-4.8324,-3.6693,-3.6999,-3.7134,-3.7535,-3.81,-3.8455,-3.9007,-3.9677,-3.9661,-3.9833,-4.0087,-4.0087,-4.0087,-4.0087,-4.0087,-4.0155,-4.0307,-4.095,-4.1694,-4.2388,-4.3149,-4.3969,-4.4555,-4.494,-4.5032,-4.5194,-4.5318,-4.5371,-4.5441,-4.5441,-4.5528,-4.5718,-4.5905,-4.6332,-4.6778,-4.7116,-4.7486,-4.7759,-4.7884,-4.7988,-4.8148,-4.8226,-4.8265,-4.8286,-4.8324,-4.8324,-4.8324,-4.8324,-4.8324,-4.8324,-4.8324,-4.8324,-4.8324,-4.8324,-4.8324,-4.8324,-4.8324,-4.8324,-4.8324,-4.8324,-4.8324,-4.8324,-4.8324,-4.8324,-4.8324,-4.8324,-4.8324,-4.8324,-4.8324,-4.8324,-4.8324,-4.8324,-4.8324,-4.8324,-4.8324,-4.8324,-4.8324,-4.8324,-4.8324,-4.8324,-4.8324,-4.8324,-4.8324,-4.8324,-4.8324,-4.8324,-4.8324,-4.8324,-4.8324,-4.8324,-4.8324,-4.8324,-4.8324,-4.8324,-4.8324,-4.8324,-4.8324,-4.8324,-4.8324,-4.8324,-4.8324,-4.8324,-4.8324,-4.8324,-4.8324,-4.8324,-4.8324,-4.8324,-4.8324,-4.8324,-4.8324,-4.8324,-4.8324,-4.8324,-4.8324,-3.6616,-3.68,-3.7074,-3.7476,-3.8001,-3.8623,-3.9202,-3.9661,-3.9729,-3.9867,-4.0087,-4.0087,-4.0087,-4.0087,-4.0087,-4.0409,-4.0781,-4.1255,-4.2083,-4.276,-4.3284,-4.4003,-4.4538,-4.494,-4.5086,-4.5194,-4.5318,-4.5441,-4.5441,-4.5441,-4.5476,-4.5667,-4.5905,-4.6284,-4.6684,-4.707,-4.7511,-4.7866,-4.7947,-4.809,-4.8208,-4.8247,-4.8286,-4.8324,-4.8324,-4.8324,-4.8324,-4.8324,-4.8324,-4.8324,-4.8324,-4.8324,-4.8324,-4.8324,-4.8324,-4.8324,-4.8324,-4.8324,-4.8324,-4.8324,-4.8324,-4.8324,-4.8324,-4.8324,-4.8324,-4.8324,-4.8324,-4.8324,-4.8324,-4.8324,-4.8324,-4.8324,-4.8324,-4.8324,-4.8324,-4.8324,-4.8324,-4.8324,-4.8324,-4.8324,-4.8324,-4.8324,-4.8324,-4.8324,-4.8324,-4.8324,-4.8324,-4.8324,-4.8324,-4.8324,-4.8324,-4.8324,-4.8324,-4.8324,-4.8324,-4.8324,-4.8324,-4.8324,-4.8324,-4.8324,-4.8324,-4.8324,-4.8324,-4.8324,-4.8324,-4.8324,-4.8324,-4.8324,-4.8324,-4.8324,-4.8324,-4.8324,-4.8324,-4.8324,-4.8324,-3.6554,-3.6723,-3.7029,-3.7433,-3.8059,-3.8623,-3.9185,-3.952,-3.9677,-3.9833,-4.0087,-4.0087,-4.0087,-4.0155,-4.0409,-4.0781,-4.1153,-4.1593,-4.2303,-4.3064,-4.3453,-4.4092,-4.4593,-4.4978,-4.5103,-4.5247,-4.5353,-4.5441,-4.5441,-4.5423,-4.5459,-4.5615,-4.5837,-4.6186,-4.6637,-4.7025,-4.7468,-4.7788,-4.8032,-4.8151,-4.8229,-4.8324,-4.8324,-4.8324,-4.8324,-4.8324,-4.8324,-4.8324,-4.8324,-4.8324,-4.8324,-4.8324,-4.8324,-4.8324,-4.8324,-4.8324,-4.8324,-4.8324,-4.8324,-4.8324,-4.8324,-4.8324,-4.8324,-4.8324,-4.8324,-4.8324,-4.8324,-4.8324,-4.8324,-4.8324,-4.8324,-4.8324,-4.8324,-4.8324,-4.8324,-4.8324,-4.8324,-4.8324,-4.8324,-4.8324,-4.8324,-4.8324,-4.8324,-4.8324,-4.8324,-4.8324,-4.8324,-4.8324,-4.8324,-4.8324,-4.8324,-4.8324,-4.8324,-4.8324,-4.8324,-4.8324,-4.8324,-4.8324,-4.8324,-4.8324,-4.8324,-4.8324,-4.8324,-4.8324,-4.8324,-4.8324,-4.8324,-4.8324,-4.8324,-4.8324,-4.8324,-4.8324,-4.8324,-4.8324,-4.8324,-3.6554,-3.6723,-3.6923,-3.7389,-3.8059,-3.8511,-3.8914,-3.9288,-3.9621,-3.9933,-4.0172,-4.0189,-4.0324,-4.0611,-4.1052,-4.1407,-4.1796,-4.2202,-4.2794,-4.3504,-4.3673,-4.4156,-4.4698,-4.5032,-4.5157,-4.53,-4.5371,-4.5441,-4.5441,-4.5423,-4.5476,-4.5615,-4.5752,-4.6154,-4.6702,-4.6934,-4.7363,-4.7829,-4.7992,-4.8111,-4.8229,-4.8324,-4.8324,-4.8324,-4.8324,-4.8324,-4.8324,-4.8324,-4.8324,-4.8324,-4.8324,-4.8324,-4.8324,-4.8324,-4.8324,-4.8324,-4.8324,-4.8324,-4.8324,-4.8324,-4.8324,-4.8324,-4.8324,-4.8324,-4.8324,-4.8324,-4.8324,-4.8324,-4.8324,-4.8324,-4.8324,-4.8324,-4.8324,-4.8324,-4.8324,-4.8324,-4.8324,-4.8324,-4.8324,-4.8324,-4.8324,-4.8324,-4.8324,-4.8324,-4.8324,-4.8324,-4.8324,-4.8324,-4.8324,-4.8324,-4.8324,-4.8324,-4.8324,-4.8324,-4.8324,-4.8324,-4.8324,-4.8324,-4.8324,-4.8324,-4.8324,-4.8324,-4.8324,-4.8324,-4.8324,-4.8324,-4.8324,-4.8324,-4.8324,-4.8324,-4.8324,-4.8324,-4.8324,-4.8324,-4.8324,-3.6476,-3.6616,-3.6877,-3.7285,-3.7801,-3.8116,-3.8567,-3.9143,-3.9835,-4.0304,-4.062,-4.0776,-4.1064,-4.1485,-4.1827,-4.2236,-4.2723,-4.298,-4.3589,-4.4012,-4.4198,-4.4309,-4.478,-4.4978,-4.5086,-4.5247,-4.53,-4.532,-4.5182,-4.5268,-4.5441,-4.558,-4.5734,-4.6081,-4.6702,-4.6934,-4.7381,-4.7852,-4.7992,-4.8111,-4.8286,-4.8324,-4.8324,-4.8324,-4.8324,-4.8324,-4.8324,-4.8324,-4.8324,-4.8324,-4.8324,-4.8324,-4.8324,-4.8324,-4.8324,-4.8324,-4.8324,-4.8324,-4.8324,-4.8324,-4.8324,-4.8324,-4.8324,-4.8324,-4.8324,-4.8324,-4.8324,-4.8324,-4.8324,-4.8324,-4.8324,-4.8324,-4.8324,-4.8324,-4.8324,-4.8324,-4.8324,-4.8324,-4.8324,-4.8324,-4.8324,-4.8324,-4.8324,-4.8324,-4.8324,-4.8324,-4.8324,-4.8324,-4.8324,-4.8324,-4.8324,-4.8324,-4.8324,-4.8324,-4.8324,-4.8324,-4.8324,-4.8324,-4.8324,-4.8324,-4.8324,-4.8324,-4.8324,-4.8324,-4.8324,-4.8324,-4.8324,-4.8324,-4.8324,-4.8324,-4.8324,-4.8324,-4.8324,-4.8324,-4.8324,-3.6045,-3.6137,-3.6631,-3.706,-3.7405,-3.7801,-3.8189,-3.8576,-3.927,-4.0034,-4.0763,-4.1193,-4.1644,-4.2169,-4.2479,-4.2837,-4.3394,-4.3736,-4.4096,-4.4451,-4.4626,-4.4631,-4.4776,-4.4872,-4.5069,-4.5142,-4.4923,-4.4785,-4.4596,-4.4423,-4.4457,-4.5026,-4.5399,-4.5884,-4.6495,-4.7025,-4.7389,-4.7875,-4.7933,-4.8111,-4.8286,-4.8324,-4.8324,-4.8324,-4.8324,-4.8324,-4.8324,-4.8324,-4.8324,-4.8324,-4.8324,-4.8324,-4.8324,-4.8324,-4.8324,-4.8324,-4.8324,-4.8324,-4.8324,-4.8324,-4.8324,-4.8324,-4.8324,-4.8324,-4.8324,-4.8324,-4.8324,-4.8324,-4.8324,-4.8324,-4.8324,-4.8324,-4.8324,-4.8324,-4.8324,-4.8324,-4.8324,-4.8324,-4.8324,-4.8324,-4.8324,-4.8324,-4.8324,-4.8324,-4.8324,-4.8324,-4.8324,-4.8324,-4.8324,-4.8324,-4.8324,-4.8324,-4.8324,-4.8324,-4.8324,-4.8324,-4.8324,-4.8324,-4.8324,-4.8324,-4.8324,-4.8324,-4.8324,-4.8324,-4.8324,-4.8324,-4.8324,-4.8324,-4.8324,-4.8324,-4.8324,-4.8324,-4.8324,-4.8324,-4.8324,-3.5337,-3.5505,-3.6244,-3.6661,-3.689,-3.7389,-3.7685,-3.7976,-3.8472,-3.9341,-4.0433,-4.1293,-4.1772,-4.2351,-4.2847,-4.3177,-4.3536,-4.4052,-4.4429,-4.4553,-4.457,-4.4439,-4.4521,-4.4719,-4.4692,-4.4577,-4.4303,-4.3871,-4.3525,-4.3542,-4.3834,-4.4314,-4.482,-4.5351,-4.6358,-4.6955,-4.7234,-4.7775,-4.8032,-4.8111,-4.8247,-4.8324,-4.8324,-4.8324,-4.8324,-4.8324,-4.8324,-4.8324,-4.8324,-4.8324,-4.8324,-4.8324,-4.8324,-4.8324,-4.8324,-4.8324,-4.8324,-4.8324,-4.8324,-4.8324,-4.8324,-4.8324,-4.8324,-4.8324,-4.8324,-4.8324,-4.8324,-4.8324,-4.8324,-4.8324,-4.8324,-4.8324,-4.8324,-4.8324,-4.8324,-4.8324,-4.8324,-4.8324,-4.8324,-4.8324,-4.8324,-4.8324,-4.8324,-4.8324,-4.8324,-4.8324,-4.8324,-4.8324,-4.8324,-4.8324,-4.8324,-4.8324,-4.8324,-4.8324,-4.8324,-4.8324,-4.8324,-4.8324,-4.8324,-4.8324,-4.8324,-4.8324,-4.8324,-4.8324,-4.8324,-4.8324,-4.8324,-4.8324,-4.8324,-4.8324,-4.8324,-4.8324,-4.8324,-4.8324,-4.8324,-3.4675,-3.4737,-3.5459,-3.5797,-3.6055,-3.6794,-3.7285,-3.763,-3.8494,-3.9178,-3.9661,-4.0512,-4.155,-4.3223,-4.3515,-4.3738,-4.3883,-4.4282,-4.4446,-4.457,-4.4299,-4.4028,-4.3902,-4.3948,-4.3854,-4.3666,-4.3475,-4.3302,-4.28,-4.2955,-4.3281,-4.3603,-4.3781,-4.4513,-4.563,-4.6221,-4.6794,-4.7484,-4.7995,-4.8111,-4.8229,-4.8306,-4.8324,-4.8324,-4.8324,-4.8324,-4.8324,-4.8324,-4.8324,-4.8324,-4.8324,-4.8324,-4.8324,-4.8324,-4.8324,-4.8324,-4.8324,-4.8324,-4.8324,-4.8324,-4.8324,-4.8324,-4.8324,-4.8324,-4.8324,-4.8324,-4.8324,-4.8324,-4.8324,-4.8324,-4.8324,-4.8324,-4.8324,-4.8324,-4.8324,-4.8324,-4.8324,-4.8324,-4.8324,-4.8324,-4.8324,-4.8324,-4.8324,-4.8324,-4.8324,-4.8324,-4.8324,-4.8324,-4.8324,-4.8324,-4.8324,-4.8324,-4.8324,-4.8324,-4.8324,-4.8324,-4.8324,-4.8324,-4.8324,-4.8324,-4.8324,-4.8324,-4.8324,-4.8324,-4.8324,-4.8324,-4.8324,-4.8324,-4.8324,-4.8324,-4.8324,-4.8324,-4.8324,-4.8324,-4.8324]}]]